GFSSGP_850_thetae_000.txt.gz
Theta_e
310 310 312 313 319 321 321 320 320 320 320 325 331 333 335 335 337 338 339 336 336 339 338 330 326 325 323 321 323 329 331 334 335 337 336 338 337 337 336 335 336 336 336 335 335 334 333 333 332
311 311 312 316 320 321 321 320 320 319 316 316 326 333 332 336 336 338 339 336 342 340 339 335 327 327 325 321 316 316 326 329 322 333 338 337 338 335 326 336 336 336 335 335 335 334 333 333 332
310 311 315 318 320 321 322 319 317 315 314 318 329 332 334 336 338 338 338 336 337 336 335 330 329 328 327 325 322 318 312 314 324 333 335 337 336 335 330 333 337 338 336 335 334 334 333 333 332
311 312 313 318 317 315 316 316 314 315 319 323 329 334 335 336 339 339 338 336 336 338 339 331 330 329 328 327 326 324 320 314 312 315 328 336 335 333 334 335 336 336 337 336 335 336 336 334 331
311 313 316 316 315 315 315 314 315 319 324 326 328 333 335 338 340 340 339 338 339 337 338 334 330 329 328 327 326 327 326 323 318 314 311 312 322 328 332 334 336 337 336 335 333 331 328 327 328
314 314 316 316 315 315 315 314 318 322 323 325 331 332 332 335 338 340 338 336 336 335 334 333 330 328 326 324 325 325 325 327 326 323 319 313 314 324 327 327 328 328 325 325 325 323 322 321 325
315 317 316 315 315 315 315 314 317 318 322 323 323 330 333 331 337 335 337 334 326 323 325 326 328 328 325 323 324 325 325 326 327 328 327 324 317 316 316 314 313 314 318 328 328 324 322 320 317
313 316 315 315 315 314 314 316 316 318 319 317 319 328 331 331 339 335 332 333 332 329 326 322 322 323 325 326 325 325 325 325 326 327 328 328 328 324 321 325 324 319 318 324 326 325 322 321 318
311 315 315 314 315 314 314 315 317 317 319 318 319 323 325 333 334 334 335 329 329 326 324 324 325 324 324 326 323 322 324 325 325 326 326 328 328 328 328 329 328 327 324 321 320 321 322 322 320
315 316 315 316 316 315 314 315 316 317 319 321 322 321 327 329 328 328 325 323 320 319 318 319 323 328 326 325 320 320 326 327 326 327 325 324 323 322 325 327 325 324 326 326 324 321 321 322 322
317 317 315 317 317 316 315 315 315 317 318 319 321 321 320 321 320 320 317 316 315 315 315 315 318 326 330 326 325 325 321 324 326 324 321 320 319 319 320 319 318 318 318 318 319 325 324 324 324
317 317 318 318 315 315 316 315 316 315 317 317 320 319 318 317 316 314 314 313 314 314 314 316 319 324 324 321 322 324 323 321 320 319 318 318 316 319 320 319 321 319 317 320 315 315 317 319 319
318 318 319 317 316 316 315 316 316 316 315 315 315 314 314 314 313 312 311 311 311 312 314 317 319 321 322 322 321 320 317 313 310 308 306 304 303 303 306 312 310 311 314 314 312 315 316 316 317
319 320 320 319 318 317 318 318 316 316 314 314 313 313 313 312 312 311 310 311 310 310 313 316 317 318 318 317 315 311 308 306 305 304 303 302 301 301 301 303 310 314 313 311 312 318 314 317 319
318 320 320 318 318 319 316 319 318 316 315 315 313 313 313 312 311 310 311 310 309 310 311 312 310 308 307 306 305 305 304 303 302 302 303 302 301 299 299 300 303 308 312 315 317 318 320 321 323
319 319 318 318 316 317 316 316 317 316 315 315 315 314 313 312 311 310 309 309 308 308 308 306 305 304 304 304 303 303 302 302 303 303 303 303 302 301 300 299 299 300 302 306 315 319 321 321 322
317 316 316 316 316 315 316 316 316 316 315 314 314 315 314 313 311 310 309 308 308 307 305 303 303 303 302 302 302 302 303 303 303 303 303 302 301 301 300 300 300 299 299 300 307 315 317 317 318
317 317 316 316 315 315 315 316 316 315 314 314 314 314 315 314 313 311 309 308 307 307 304 303 302 302 301 301 301 301 302 303 303 303 303 301 300 299 299 301 299 301 301 300 298 299 302 305 309
316 316 316 316 315 314 316 317 317 316 315 315 314 314 314 314 313 310 308 307 307 306 304 303 302 302 301 302 303 303 303 303 304 303 302 302 302 301 302 301 302 301 302 302 301 300 300 301 303
316 317 317 316 315 315 316 316 317 315 314 314 314 315 314 313 312 310 309 308 307 306 305 304 303 302 302 303 303 302 302 302 302 302 303 303 301 302 301 301 301 301 301 301 301 301 300 300 300
317 317 316 316 316 317 315 318 318 316 315 313 313 313 312 312 312 310 309 308 307 306 306 305 304 303 302 301 301 301 301 301 302 302 302 303 301 302 302 301 301 301 301 301 301 300 300 300 299
317 314 314 315 316 318 314 318 318 316 317 316 315 314 313 312 311 309 309 308 307 307 306 305 304 303 302 300 301 301 302 302 302 301 301 301 301 300 300 301 301 302 301 300 300 299 300 300 300
316 314 315 314 315 315 316 317 319 317 317 316 315 314 313 312 310 310 309 308 308 307 307 305 304 303 302 301 300 302 302 301 301 301 300 301 299 297 297 300 301 301 301 301 301 301 299 299 299
313 316 317 314 315 319 317 317 319 318 316 316 315 314 313 312 311 311 310 309 308 307 305 304 303 303 302 300 299 299 299 301 300 300 300 299 299 299 299 299 299 299 299 299 300 300 300 300 299
316 318 323 322 323 322 316 316 319 318 316 315 315 313 313 312 311 311 310 308 308 307 306 304 303 303 302 300 299 299 298 300 299 298 298 297 297 297 296 296 295 295 295 295 296 296 297 297 297
314 316 320 325 322 321 318 318 319 317 315 314 312 312 312 312 312 311 309 308 307 307 305 304 303 302 302 300 299 299 298 297 297 295 295 294 294 292 291 291 291 291 292 292 292 293 293 294 295
316 319 314 316 312 316 319 318 317 317 316 315 315 314 314 313 312 311 310 308 308 309 307 304 303 302 300 299 298 298 296 295 295 294 293 293 292 292 291 290 289 289 289 290 292 293 294 294 295
315 313 319 318 324 323 319 320 320 319 318 317 316 315 313 313 312 312 311 309 309 308 306 304 302 301 300 299 298 296 296 295 293 292 292 292 291 290 289 289 290 291 291 291 291 292 292 293 293
318 318 314 315 316 322 323 320 319 318 318 317 316 314 313 314 313 312 310 310 309 306 306 305 302 300 299 297 296 295 294 293 292 292 291 291 290 289 290 290 290 290 290 290 290 291 291 292 292
315 317 316 319 320 319 318 319 317 318 317 314 314 315 314 313 312 311 311 309 307 305 304 302 300 298 296 296 295 294 293 292 291 291 291 290 290 289 289 289 289 289 289 289 289 289 290 290 291

GFSSGP_850_thetae_003.txt.gz
Theta_e
310 312 314 316 320 321 323 322 322 321 323 330 329 331 336 334 338 341 337 340 341 341 338 333 326 325 323 322 322 325 329 332 337 337 335 337 337 335 336 335 333 335 335 335 336 335 333 332 331
312 311 313 318 321 322 322 322 321 320 319 323 330 329 332 338 335 337 338 341 338 339 338 337 328 328 323 319 317 316 322 331 332 326 337 337 336 330 326 332 326 325 332 333 335 335 334 334 334
310 311 315 320 320 323 323 321 321 318 319 322 328 333 334 337 337 337 338 340 341 340 337 331 328 328 326 322 318 314 318 320 321 333 337 337 336 335 334 332 326 325 330 335 335 332 334 333 334
313 313 316 319 320 320 321 320 319 319 322 323 327 334 335 337 338 336 338 338 340 338 338 331 329 328 327 325 323 320 315 313 317 321 322 333 335 335 334 331 327 327 335 336 336 334 333 332 333
313 316 318 319 318 318 318 318 320 321 325 326 327 332 335 337 339 339 338 338 338 336 337 331 328 327 327 326 325 325 322 318 316 315 314 315 318 329 332 333 334 334 325 326 334 334 332 329 329
316 317 319 318 317 318 318 319 322 323 324 328 329 332 334 336 339 337 337 336 335 336 337 337 329 327 324 323 323 325 326 326 325 324 323 318 313 314 322 327 327 325 326 325 325 325 325 323 321
318 319 318 317 317 317 317 316 318 319 323 324 327 329 334 333 333 333 337 335 334 333 334 335 336 330 326 325 324 325 325 326 326 327 327 326 325 318 316 316 316 320 321 331 329 329 326 324 323
317 318 317 317 317 316 316 317 317 317 317 320 320 326 331 332 330 333 335 336 336 334 333 333 334 334 334 333 326 323 322 323 324 325 325 326 326 326 325 319 320 322 322 324 327 327 326 324 323
316 318 317 316 317 316 316 317 317 317 318 317 319 321 329 332 333 333 333 333 332 330 329 329 334 334 331 329 325 327 327 324 325 321 322 324 330 322 322 324 325 323 326 324 322 322 324 322 322
318 319 317 317 316 317 316 316 316 317 318 320 320 323 328 330 329 330 330 329 325 323 323 322 317 325 328 328 325 332 331 329 328 327 323 326 321 324 324 324 324 325 326 327 327 325 325 323 323
319 318 316 317 317 316 317 316 316 317 318 318 320 322 326 327 327 327 325 323 320 320 320 317 316 319 328 329 330 330 324 327 326 321 322 318 316 316 318 321 320 316 317 317 318 322 318 317 320
319 317 318 318 317 317 318 318 318 317 318 318 319 320 323 324 324 323 320 317 318 319 319 317 316 321 326 327 328 328 326 325 324 320 317 310 309 305 306 307 306 309 314 314 314 320 318 316 316
320 319 319 319 319 319 319 319 319 318 318 317 319 320 321 321 320 317 316 316 316 317 317 317 319 322 324 323 322 321 319 317 315 318 310 319 319 307 308 307 309 311 310 312 313 314 313 316 316
320 320 321 320 320 319 319 318 318 318 318 318 318 318 318 317 316 315 315 315 315 315 315 316 317 319 320 319 317 313 311 310 310 308 305 305 310 305 317 312 309 311 314 315 315 315 315 316 313
320 322 321 320 319 319 318 319 320 318 318 317 317 317 317 317 316 315 315 315 315 313 313 313 314 313 312 311 309 310 308 308 310 308 304 304 306 303 303 308 312 307 301 303 307 311 312 314 317
320 321 319 319 318 318 317 317 319 318 317 317 317 317 317 317 316 315 314 314 314 313 312 311 308 310 309 311 309 309 309 309 311 311 306 303 304 304 304 308 305 301 302 302 300 308 312 317 316
320 319 318 318 318 318 317 318 318 317 317 317 317 316 317 317 316 315 315 313 313 312 311 310 308 309 309 308 308 308 306 308 309 309 308 303 303 303 303 305 305 301 304 303 300 301 304 311 314
318 319 320 320 319 318 318 319 320 319 318 317 317 317 316 316 317 316 314 313 312 311 310 309 308 307 307 307 306 307 307 308 307 307 307 306 306 303 304 305 306 305 304 304 304 303 303 303 304
319 320 321 321 318 318 320 320 320 319 318 318 317 317 316 316 316 316 315 313 311 311 309 308 308 307 306 306 306 306 307 307 307 306 306 306 305 305 305 304 304 304 304 304 304 304 304 303 303
320 321 321 320 320 320 320 321 320 318 317 316 317 317 317 316 316 316 314 313 312 311 310 309 308 307 307 306 306 307 307 306 306 306 306 306 305 305 305 304 304 303 303 304 304 303 303 303 303
320 320 320 320 320 321 320 321 321 318 318 316 317 316 316 315 315 315 314 313 313 312 311 310 308 308 307 306 306 305 305 305 305 305 305 306 306 306 305 305 304 304 304 303 304 303 303 302 302
320 319 319 320 320 322 320 321 321 320 319 318 317 317 316 316 315 314 313 313 313 312 312 310 309 308 307 306 305 305 305 305 305 305 305 304 304 305 305 304 303 303 303 303 303 303 302 302 302
319 318 319 320 320 321 320 320 322 320 319 319 318 317 317 316 315 314 314 313 313 312 312 311 310 309 307 306 305 304 304 304 304 304 304 304 304 304 303 303 302 302 302 302 301 301 301 302 302
317 321 323 322 321 324 323 319 321 321 319 318 318 317 316 315 315 314 314 313 312 311 312 311 311 309 307 306 305 304 303 304 304 303 303 303 301 301 301 301 300 300 300 300 300 300 300 300 300
321 322 326 326 326 325 320 320 321 320 319 318 317 316 315 315 315 315 314 313 313 311 311 311 310 310 308 306 305 304 304 303 303 303 301 301 300 299 298 298 297 296 295 296 296 296 296 296 297
320 320 324 326 325 324 321 321 321 320 318 316 316 315 315 316 315 315 314 313 312 312 311 311 310 309 308 307 305 304 304 303 302 300 299 298 297 297 296 295 295 294 294 294 294 294 294 294 294
321 323 319 320 321 321 321 321 321 321 319 317 317 317 317 316 315 315 315 314 313 312 311 311 311 310 308 306 305 304 303 301 299 299 297 296 296 295 294 294 294 293 293 293 293 293 293 294 294
319 319 323 322 329 326 323 323 323 321 321 320 318 317 316 316 316 315 314 314 313 312 312 311 310 309 308 305 303 302 300 298 297 296 297 295 294 294 294 293 292 292 292 292 293 293 293 293 293
321 322 320 319 321 326 325 323 321 321 321 320 319 317 317 316 315 314 314 313 313 313 311 309 308 307 306 303 301 299 298 296 297 295 294 294 294 293 292 292 292 292 292 292 292 292 292 292 292
318 320 321 323 323 323 325 324 321 321 320 318 318 318 316 316 315 314 313 313 312 312 309 307 306 304 302 300 298 297 296 295 295 294 294 294 293 292 292 292 291 291 291 291 291 291 291 291 291

GFSSGP_850_thetae_006.txt.gz
Theta_e
309 315 314 317 319 320 321 322 322 322 323 329 329 334 336 336 338 342 339 338 340 339 339 329 325 324 322 322 325 331 334 335 337 336 336 338 338 337 336 332 324 326 326 326 332 335 334 333 330
310 315 314 317 319 321 322 322 321 320 320 324 328 333 337 337 338 338 341 340 338 338 338 336 328 325 321 317 316 323 330 334 336 329 328 336 337 336 335 331 327 323 325 325 327 328 334 334 332
309 315 314 318 320 322 323 321 320 319 320 323 327 334 333 337 336 337 340 340 340 337 335 328 328 327 324 322 318 316 321 326 330 329 336 336 336 336 334 333 329 330 327 326 330 331 334 334 333
314 315 314 318 320 320 321 320 320 319 321 321 327 335 338 338 336 338 339 339 338 335 328 327 326 324 324 324 323 321 319 315 314 317 327 331 333 335 334 332 329 324 324 327 331 332 323 332 330
314 315 317 319 318 318 319 320 320 320 325 325 326 333 336 339 339 337 337 337 337 328 326 326 325 324 323 323 323 324 323 321 320 318 314 312 314 320 328 331 332 333 333 332 326 324 322 323 325
315 317 318 318 317 318 319 320 322 323 325 326 328 329 336 338 339 339 336 335 337 336 334 330 329 326 325 324 323 324 325 324 324 322 324 322 314 312 313 319 325 326 327 322 319 323 324 323 326
316 319 318 317 317 317 317 317 319 320 324 323 325 332 330 327 337 337 335 335 333 334 335 336 336 334 333 331 328 324 323 323 322 323 322 324 325 324 320 317 315 314 313 317 326 327 328 326 322
317 319 318 318 317 316 316 317 318 318 317 316 317 326 331 333 332 334 335 335 335 334 334 334 334 335 334 332 331 322 323 322 322 322 322 323 324 325 326 325 322 323 321 319 324 327 327 326 325
317 318 317 317 317 317 316 317 318 317 318 318 318 322 333 335 331 334 334 333 333 331 329 330 333 335 333 331 327 328 331 329 327 325 322 326 329 323 325 324 326 326 327 325 324 324 324 323 323
319 319 317 317 317 317 317 316 317 317 318 318 320 321 327 331 332 331 329 329 328 324 323 323 319 320 320 331 327 332 331 330 331 331 325 328 329 327 323 320 325 323 323 326 327 325 325 323 322
318 317 317 318 317 316 317 317 317 317 318 320 319 321 323 325 326 326 325 325 322 321 321 319 316 315 325 332 329 329 329 326 328 326 328 326 318 316 317 317 320 319 310 315 316 319 316 322 322
319 318 318 319 318 318 319 319 319 318 318 318 319 320 322 323 324 324 323 321 319 320 320 318 314 314 316 327 328 327 327 325 326 321 312 312 310 307 306 307 306 305 306 308 307 307 313 316 318
320 320 320 320 320 319 318 319 319 318 318 318 318 321 321 322 322 322 320 318 317 318 319 318 313 314 315 323 324 324 324 320 318 312 311 316 317 309 311 308 307 307 309 310 309 309 312 312 314
320 320 320 320 320 319 319 318 318 318 318 318 318 319 320 320 320 319 317 316 317 316 317 316 314 315 317 323 319 317 316 312 310 311 308 306 310 308 317 314 311 308 306 308 313 315 315 315 315
320 321 322 321 319 318 319 318 317 319 319 318 317 318 318 318 318 317 317 316 316 316 316 316 315 316 315 317 315 311 311 311 311 310 305 305 306 305 305 307 311 312 303 302 301 302 307 312 316
321 322 320 319 319 318 317 317 319 319 318 318 317 317 317 317 318 317 317 316 316 316 315 314 313 313 312 312 312 310 310 309 311 312 308 305 304 304 305 308 307 303 305 306 303 301 300 304 311
321 320 320 321 320 319 318 318 319 319 318 318 318 318 317 318 317 317 316 316 315 315 314 313 312 309 311 311 311 310 310 309 310 312 310 306 304 304 304 306 305 303 304 304 304 302 302 301 301
320 321 321 322 321 320 320 320 320 320 320 319 319 318 317 317 317 318 317 316 315 314 313 312 311 310 310 309 308 309 309 308 309 309 309 308 306 305 304 306 305 305 305 305 305 304 303 303 303
319 321 321 321 320 321 321 321 321 320 318 318 318 318 317 317 317 317 317 316 315 313 313 311 310 310 309 308 308 307 308 308 308 308 307 307 307 306 305 305 305 305 305 304 304 304 304 303 303
318 320 321 320 320 321 321 322 321 319 318 318 317 318 317 317 317 317 317 316 315 314 312 312 310 309 309 308 307 307 307 308 308 307 307 307 306 305 305 305 304 304 304 303 304 304 304 303 303
318 321 320 320 321 322 322 322 321 319 318 317 317 317 317 316 315 315 315 315 315 314 314 312 311 310 309 308 308 307 307 307 307 306 306 306 305 306 306 306 305 304 304 304 304 303 303 303 303
319 320 320 321 322 322 322 321 320 320 318 318 318 318 317 317 316 316 315 314 314 314 314 314 313 311 310 309 308 307 307 306 306 305 305 305 306 306 306 305 305 304 303 303 303 303 303 303 302
319 319 321 322 324 323 322 321 321 320 319 319 319 318 317 317 316 315 315 315 315 313 313 313 312 312 311 310 309 308 307 306 305 306 305 304 304 304 304 304 304 303 303 302 302 301 299 299 301
320 322 323 324 323 329 325 323 322 321 320 319 318 318 317 316 316 315 316 315 314 314 312 312 312 312 311 310 310 308 307 306 305 304 304 304 304 303 303 302 301 301 301 301 300 297 298 298 297
321 322 329 331 333 331 322 322 322 322 321 319 318 316 316 316 316 316 315 315 314 314 313 312 312 312 311 311 310 309 307 306 305 304 304 303 303 302 301 300 299 299 299 296 294 293 293 293 293
321 321 329 327 326 325 321 322 321 321 319 318 317 316 316 317 316 316 316 316 315 314 314 313 312 311 312 311 311 309 308 306 305 304 304 302 301 300 299 298 296 295 294 293 292 292 292 292 292
321 323 321 322 322 325 322 322 323 322 320 319 319 318 317 317 317 317 316 315 314 314 314 314 313 312 312 311 311 310 307 306 304 304 302 301 298 297 296 295 295 295 293 292 292 292 292 293 293
320 321 323 325 329 325 322 322 323 323 323 321 321 320 319 318 317 316 315 315 314 314 313 312 312 311 310 309 309 308 306 305 304 301 299 297 297 297 295 295 294 292 291 291 291 291 292 292 292
321 321 323 322 324 326 327 323 322 321 321 322 320 319 318 318 317 316 315 314 313 313 312 311 310 309 308 307 307 306 304 302 300 299 297 297 295 295 294 294 292 291 291 291 291 291 291 292 291
319 321 321 324 324 323 324 323 320 321 321 320 320 319 318 317 315 314 313 313 313 312 311 311 309 307 306 305 303 303 301 299 297 295 295 296 295 294 294 292 292 292 291 291 291 291 291 291 291

GFSSGP_850_thetae_009.txt.gz
Theta_e
310 313 313 315 313 311 313 316 316 317 321 334 336 337 336 336 337 341 338 340 339 338 337 325 324 323 323 324 328 331 333 336 336 336 336 338 337 335 335 334 333 324 323 325 326 327 333 334 333
310 312 313 315 313 313 314 316 314 316 321 333 333 331 335 337 340 340 338 337 339 338 337 331 326 323 320 319 319 324 327 331 333 324 324 334 337 337 336 334 332 327 327 326 324 326 328 328 329
311 314 314 310 311 314 317 316 315 319 320 322 332 334 337 337 337 340 338 336 337 333 331 327 325 324 322 320 319 319 318 320 327 320 331 334 336 336 336 333 332 329 328 324 328 327 327 325 325
314 314 314 310 314 315 316 317 318 319 321 330 335 335 337 338 338 339 338 335 333 328 326 325 323 321 322 322 321 320 320 319 316 314 317 327 331 333 335 334 332 332 330 329 325 329 330 326 323
314 314 311 312 313 315 315 317 320 321 327 331 331 333 331 336 337 336 338 336 329 327 326 325 324 322 320 320 320 320 321 321 321 321 319 315 313 316 321 327 329 328 326 326 326 329 330 328 324
314 314 309 312 313 313 314 317 317 319 323 327 330 332 333 332 333 335 337 338 336 333 333 333 332 331 326 324 322 321 321 321 321 322 323 323 320 315 317 320 322 327 328 328 324 318 320 325 323
312 309 311 311 312 313 315 317 316 315 317 320 325 329 329 328 336 337 335 333 333 334 335 334 334 334 331 327 328 323 321 321 321 322 323 322 324 324 322 321 319 317 318 318 318 318 323 325 325
315 309 313 311 312 313 315 317 317 317 315 317 321 327 326 328 337 336 335 335 334 334 334 334 333 333 333 324 328 325 327 326 324 322 323 322 322 322 323 325 325 325 324 323 322 323 325 325 326
316 310 309 312 312 313 315 313 317 316 317 317 325 331 323 325 332 334 330 334 333 332 328 329 335 331 327 329 327 326 329 326 326 325 323 324 327 322 321 319 322 326 327 326 325 324 325 326 325
314 308 313 314 313 312 315 315 316 316 315 317 323 333 332 329 327 332 332 332 332 328 325 318 316 316 318 332 327 327 329 329 324 322 322 323 322 317 316 315 317 319 320 322 322 323 324 324 323
316 313 315 316 317 317 316 318 317 316 315 319 320 325 327 330 329 328 326 329 324 322 321 318 316 315 321 330 328 328 328 327 326 323 321 324 321 318 311 310 310 314 319 308 315 314 315 321 319
316 318 319 318 318 318 318 318 318 318 317 318 319 322 323 323 324 326 324 322 320 319 319 318 316 313 318 324 325 326 327 324 320 320 317 313 309 307 307 308 308 307 306 307 309 309 310 311 311
318 318 319 319 319 319 318 317 317 318 318 318 318 320 321 322 323 323 323 320 318 318 318 317 316 313 314 319 323 326 325 323 322 321 313 313 314 312 308 308 308 308 307 307 308 308 309 309 311
320 320 320 320 319 319 317 317 318 318 318 318 317 318 320 321 321 322 321 320 318 316 316 317 316 313 313 314 315 320 322 321 319 314 311 311 312 312 310 312 308 307 307 306 305 305 306 307 308
320 318 318 319 319 316 317 314 313 318 318 318 317 318 318 319 319 319 319 317 316 316 316 316 315 314 315 315 314 315 313 312 310 309 309 307 306 308 308 309 307 306 307 303 304 302 301 302 306
320 319 317 318 317 318 316 313 314 318 319 318 317 317 317 317 318 318 318 317 316 316 316 316 315 314 313 313 313 311 311 310 309 308 308 308 305 305 305 306 306 305 303 303 303 302 302 301 301
316 316 318 319 317 317 317 315 317 320 318 317 317 317 317 317 317 317 317 317 316 316 315 315 314 313 310 310 312 312 310 310 309 309 307 308 307 304 304 307 305 305 304 304 304 304 303 303 302
317 317 318 318 317 316 316 316 315 320 319 317 316 317 317 317 317 317 317 317 316 315 315 314 313 312 311 310 310 310 310 309 309 310 310 308 307 306 304 305 306 305 305 304 304 304 303 303 303
316 316 317 317 317 316 316 315 315 317 316 316 316 317 317 317 317 317 317 316 316 315 314 314 313 312 311 310 309 309 308 308 307 309 309 308 308 307 306 305 305 305 304 304 304 303 304 303 303
316 318 318 318 318 318 316 317 315 315 315 317 317 317 317 316 316 316 316 316 315 315 315 314 313 312 311 310 309 309 308 307 307 307 308 308 307 307 306 305 305 305 304 304 304 303 303 303 303
315 318 317 318 318 318 318 317 315 315 316 317 317 317 316 316 315 315 315 315 314 314 314 314 314 313 312 311 309 309 308 307 307 308 308 307 307 307 306 306 305 305 305 304 304 304 303 302 303
316 318 318 318 319 320 318 318 317 315 314 315 317 317 316 316 315 315 315 315 314 314 314 314 313 313 313 312 310 309 309 308 307 307 307 306 306 305 305 306 306 305 305 303 303 303 302 303 302
317 318 318 319 319 320 319 317 315 315 315 315 315 317 316 316 315 315 315 315 314 314 313 313 312 312 312 311 311 310 309 309 308 307 306 306 305 305 306 306 306 305 304 304 303 303 302 301 299
318 319 319 321 319 320 320 318 316 318 317 316 316 316 316 316 315 315 316 316 316 315 314 313 313 312 312 312 311 311 311 310 309 308 306 306 305 304 305 305 304 303 303 302 301 300 300 296 294
317 318 318 319 320 321 319 319 317 318 316 315 314 316 316 316 315 316 316 316 315 315 314 314 313 313 313 313 312 312 311 311 310 309 307 305 305 304 303 302 301 300 300 300 299 298 296 296 293
317 319 317 322 321 319 318 321 319 317 316 318 317 316 317 317 316 317 316 315 315 314 313 313 313 313 313 312 312 312 311 311 311 310 307 305 304 303 301 301 300 298 297 299 299 296 293 291 291
318 319 319 318 317 316 319 319 318 318 319 318 318 319 319 318 317 317 316 315 314 314 313 313 313 313 312 311 310 310 309 308 310 308 305 305 303 300 299 299 296 296 298 297 293 293 291 291 291
318 318 318 314 319 323 320 319 319 319 318 317 317 318 318 317 316 315 314 314 313 313 313 313 312 312 310 309 308 307 307 307 307 306 304 302 300 299 298 297 298 297 293 293 292 290 291 291 291
318 318 319 321 318 323 323 320 318 319 318 317 318 318 316 315 314 314 314 313 313 312 312 312 311 309 309 307 306 305 305 305 304 303 300 299 300 300 298 298 294 293 292 292 291 292 291 291 291
317 319 319 319 322 316 317 321 317 316 317 318 317 315 314 314 314 313 313 312 312 311 311 311 309 308 307 304 304 304 303 303 301 300 299 297 296 296 296 294 293 292 292 292 292 291 291 290 290

GFSSGP_850_thetae_012.txt.gz
Theta_e
309 313 313 316 311 308 311 315 315 318 331 336 336 335 334 336 336 336 339 339 338 335 326 324 323 323 323 324 326 330 332 334 333 334 335 336 335 333 331 332 334 328 325 324 325 326 327 333 332
309 312 314 315 309 311 313 314 316 321 333 331 334 337 337 340 337 337 338 338 338 335 333 326 322 321 320 321 323 326 327 331 330 322 328 335 337 336 335 334 333 329 328 326 325 325 328 332 331
313 314 313 307 308 312 315 315 315 326 330 330 336 338 338 338 340 337 336 336 335 333 335 327 324 322 320 319 319 319 319 321 324 319 329 328 333 336 336 335 334 333 331 330 327 327 327 327 326
314 314 312 308 313 314 315 313 315 320 331 335 336 335 337 337 335 336 331 329 330 329 327 324 322 320 319 319 319 319 318 317 317 315 317 327 333 335 335 335 334 332 331 330 329 327 326 329 326
314 313 307 309 311 314 312 316 324 325 329 330 330 332 337 337 331 328 335 333 327 325 324 322 321 320 319 320 320 320 320 320 320 319 319 315 314 319 328 329 328 328 327 327 329 328 327 330 324
313 312 308 310 312 313 313 316 317 323 329 328 327 330 333 337 331 335 337 337 333 327 328 327 328 326 323 321 320 320 320 320 320 319 320 322 321 318 316 315 316 322 325 324 323 322 319 325 327
310 306 308 310 311 313 314 316 314 313 315 324 324 325 334 337 335 336 337 335 331 332 334 333 334 332 330 321 323 321 320 320 320 320 320 320 320 321 321 322 322 321 319 317 317 319 321 323 324
314 307 309 310 310 313 313 316 316 316 314 325 326 325 325 334 337 336 334 332 333 333 333 332 333 331 331 323 323 325 323 323 321 320 319 318 318 319 318 319 319 320 322 323 324 323 325 325 325
313 307 308 312 312 313 313 315 316 316 316 318 326 322 324 328 336 334 334 333 333 333 333 331 330 330 328 326 327 326 324 324 322 320 320 320 320 320 319 318 317 319 324 324 324 324 324 324 326
311 306 313 313 311 313 313 315 315 315 317 329 327 323 322 326 333 327 332 334 334 331 327 323 321 316 320 321 327 326 326 325 324 322 320 319 319 317 315 314 314 315 320 319 320 320 319 320 323
314 314 314 315 316 316 317 317 317 315 315 328 328 325 327 323 322 325 331 333 333 330 323 320 317 315 316 324 326 327 327 326 324 322 322 320 318 316 316 313 310 312 316 317 310 315 314 313 319
315 317 317 317 317 317 317 317 317 317 317 318 322 322 324 323 325 327 325 332 326 322 320 318 316 314 319 323 327 327 327 326 323 324 322 323 320 319 309 309 309 309 308 306 308 310 308 309 310
317 317 318 319 319 318 318 317 316 317 317 318 320 324 324 324 326 328 324 323 320 319 319 317 315 315 314 321 323 325 325 324 321 319 319 316 313 312 311 308 307 307 307 307 307 307 307 307 308
319 319 318 319 318 318 316 316 317 318 317 317 319 322 322 323 322 323 323 322 322 320 318 316 315 315 313 316 323 325 325 325 323 320 319 314 312 311 310 309 309 308 307 306 306 304 304 303 303
319 318 316 318 318 316 316 314 313 317 316 317 317 317 317 318 321 321 321 321 321 319 316 316 316 315 315 313 314 315 316 317 317 315 313 310 309 309 309 310 309 309 308 307 304 304 303 302 302
319 315 316 316 317 317 314 313 314 317 316 317 317 317 317 317 317 319 319 319 318 316 316 316 316 315 314 313 312 311 312 311 311 310 309 308 308 306 306 307 310 309 307 305 303 303 303 303 302
312 315 316 317 316 315 315 314 315 318 317 317 317 317 317 317 317 318 318 318 317 316 316 316 315 315 314 313 312 311 310 311 310 310 309 308 308 308 306 305 306 308 306 304 304 304 304 303 303
315 314 314 317 315 315 315 314 313 317 316 316 317 315 315 316 317 317 317 317 316 316 315 315 314 314 313 312 311 310 310 310 310 309 309 308 308 309 308 305 304 305 305 305 305 304 304 302 302
315 315 316 316 315 316 315 313 314 315 313 314 315 315 316 317 317 316 317 316 316 315 315 315 314 313 312 312 311 310 310 309 308 309 308 307 308 308 308 307 306 305 305 305 304 304 303 302 302
314 317 316 315 316 317 316 315 311 311 312 315 315 315 315 316 316 316 316 316 315 315 314 314 314 313 313 312 311 311 310 309 309 308 307 307 308 308 308 307 307 305 305 304 304 304 303 303 302
314 317 317 317 316 316 317 317 314 314 315 315 315 315 315 315 315 315 315 315 314 314 314 314 313 313 313 313 312 312 311 310 309 309 308 307 307 308 308 307 307 306 305 305 304 304 304 303 302
315 315 316 317 317 318 317 319 316 313 314 314 315 315 316 316 315 315 315 314 314 314 314 313 313 313 312 312 312 312 311 311 311 310 309 308 307 307 307 307 306 306 305 305 304 304 303 303 303
315 315 317 318 317 318 317 316 315 314 314 314 312 315 315 315 315 315 315 315 315 315 314 314 314 313 312 312 312 312 312 311 311 311 310 309 307 306 306 306 306 306 305 305 303 303 302 302 299
316 318 317 317 317 318 318 317 315 315 314 313 314 316 316 315 315 315 315 315 315 315 315 315 314 313 313 313 313 313 313 313 312 312 311 311 309 307 306 305 306 306 305 305 304 303 301 299 300
315 316 317 318 318 319 318 317 315 314 314 314 314 315 315 315 315 315 316 316 315 315 314 313 313 313 313 313 313 312 311 311 311 312 311 311 309 307 306 305 306 305 302 303 302 300 299 299 299
317 317 315 321 320 319 316 319 317 315 317 318 316 317 317 317 316 316 315 315 314 314 313 313 313 313 312 312 312 311 309 309 309 308 308 308 308 304 303 303 302 300 299 300 298 298 299 299 296
318 318 317 317 314 315 316 317 316 314 316 317 318 317 318 317 316 314 314 313 313 313 313 312 312 312 311 311 310 308 308 307 306 306 306 308 305 302 301 301 299 301 301 300 300 296 295 293 292
318 316 317 313 315 323 319 317 317 316 317 316 315 314 314 314 314 314 313 313 312 312 312 311 311 310 309 308 308 307 306 305 305 304 304 304 303 299 298 298 299 299 297 296 295 293 292 292 291
316 317 317 318 315 318 320 318 314 317 316 314 314 314 313 313 313 313 313 313 312 312 310 309 308 307 307 307 307 306 304 304 303 303 303 301 299 298 300 300 297 296 294 293 292 292 292 292 291
317 317 316 312 319 313 317 318 315 314 314 314 313 314 313 313 313 313 313 312 311 308 308 307 305 307 306 306 305 304 302 302 302 301 300 299 298 298 296 295 293 292 292 292 292 292 291 290 289

GFSSGP_850_thetae_015.txt.gz
Theta_e
309 312 312 316 311 307 311 314 314 320 336 335 334 333 333 336 333 332 336 338 337 329 324 323 323 324 325 326 328 329 329 334 335 335 336 332 328 327 328 328 328 329 325 324 325 329 327 330 327
310 311 314 314 310 310 311 312 318 329 336 335 336 337 336 338 337 337 336 338 337 334 327 323 322 322 321 322 326 328 332 333 330 328 334 336 335 333 332 333 333 330 327 331 327 326 326 331 333
313 314 313 306 306 312 313 314 327 331 333 329 336 337 337 338 338 337 337 338 335 335 330 324 321 319 319 318 319 319 321 323 325 318 325 326 334 336 335 335 334 333 333 332 331 328 327 327 327
314 314 311 308 312 313 314 314 325 329 331 335 336 335 337 337 335 332 335 336 330 327 325 322 321 319 318 318 317 318 318 318 317 317 317 324 331 333 335 333 333 333 332 330 329 326 326 328 327
314 312 306 308 312 313 315 324 325 326 329 329 330 332 337 337 330 331 330 327 324 323 321 320 320 319 318 317 317 317 318 318 319 318 317 317 315 318 327 332 331 327 325 326 328 330 329 328 328
313 311 308 308 310 312 312 320 325 327 327 327 331 330 335 336 333 336 333 326 324 322 322 324 324 321 320 317 317 318 318 319 319 319 319 319 320 319 316 314 314 314 315 318 319 316 314 313 315
309 306 308 308 312 312 313 315 313 317 322 323 325 327 336 333 336 335 334 330 326 325 323 322 323 322 320 317 317 320 320 319 320 320 319 320 320 321 321 321 320 321 321 318 318 319 320 321 321
313 305 308 309 310 312 311 315 314 315 317 324 325 324 334 334 335 336 335 332 331 327 326 326 323 319 316 317 319 324 324 323 321 320 319 318 318 318 318 319 319 320 321 323 323 323 324 324 323
312 306 308 311 311 313 313 314 315 315 321 317 325 323 325 335 336 336 334 333 333 331 331 329 325 321 319 321 323 325 325 324 324 321 319 319 320 321 319 318 318 318 319 323 323 323 320 321 324
309 307 311 312 311 312 314 314 314 316 324 327 324 322 327 334 335 333 333 332 332 332 331 328 322 317 315 320 321 325 326 326 324 323 320 320 320 322 316 314 312 312 315 318 318 318 317 315 315
313 311 312 315 314 314 316 316 316 314 318 325 321 323 327 333 335 333 332 330 331 332 330 322 318 316 314 317 326 325 327 324 323 320 320 319 318 316 312 310 310 309 309 312 312 308 311 311 309
314 315 315 316 316 316 315 316 316 316 316 317 319 320 322 328 328 330 330 331 333 333 328 320 318 315 314 314 320 324 325 324 324 319 317 318 317 314 311 309 308 308 308 308 307 306 308 309 307
316 316 317 318 318 318 317 316 315 316 317 318 322 323 323 321 320 323 328 329 331 331 322 319 317 315 315 312 313 318 322 323 324 323 320 319 318 314 312 312 310 308 308 307 307 307 307 308 307
318 317 317 318 318 317 316 315 316 317 317 317 321 323 322 322 323 325 327 324 326 323 320 318 316 315 315 314 312 315 322 324 324 324 323 321 319 314 312 312 311 310 310 309 307 306 305 304 303
318 317 314 317 317 316 316 313 312 315 316 317 319 322 323 322 322 323 322 322 321 321 320 318 316 315 315 314 313 313 315 317 317 318 317 314 312 309 309 309 309 310 311 310 308 307 303 303 303
314 312 314 314 315 315 314 312 312 315 316 315 318 321 323 322 321 321 321 321 321 320 319 316 315 315 315 314 313 312 311 311 311 311 311 310 309 309 308 307 307 307 309 308 306 304 303 303 304
310 313 314 315 314 315 314 312 313 317 316 316 315 318 319 319 318 318 321 320 320 319 317 316 315 315 314 312 312 312 311 311 310 310 309 309 309 309 308 308 307 305 305 306 305 304 304 304 304
314 313 313 315 314 313 314 312 311 316 314 315 315 315 316 317 317 317 318 319 319 317 316 315 315 314 313 312 312 311 311 311 310 310 309 308 309 308 307 308 308 306 305 305 304 305 305 304 304
314 315 316 315 314 315 315 313 313 312 312 313 313 312 314 315 316 316 316 316 317 316 315 315 314 314 313 313 312 312 311 311 311 310 310 309 308 307 307 307 308 307 307 306 305 305 304 304 303
315 316 315 314 314 315 315 314 310 310 311 311 314 315 316 316 316 316 315 315 316 315 315 314 314 313 313 313 312 312 312 312 311 311 310 309 309 309 308 307 307 307 307 307 306 305 305 304 304
313 316 315 315 314 315 314 316 312 312 313 313 313 314 315 315 315 315 315 315 315 314 314 314 314 313 313 313 313 312 312 312 312 311 311 311 310 309 308 307 307 307 307 307 306 305 304 304 304
314 314 315 315 316 318 314 318 314 312 313 311 312 313 314 314 314 314 314 315 315 315 315 315 314 314 313 313 312 312 312 312 312 312 312 312 311 309 308 307 307 307 308 307 305 304 304 303 304
315 314 314 317 316 316 315 314 314 311 312 312 313 314 314 314 315 315 315 315 315 315 315 315 315 313 313 312 312 313 313 313 312 312 312 311 311 311 308 307 307 307 308 306 304 304 303 304 303
314 316 315 315 315 317 317 315 313 313 313 313 314 314 315 315 315 315 315 315 315 315 314 313 313 312 313 314 314 313 312 312 312 311 309 309 310 310 310 309 306 308 307 305 304 303 302 300 300
314 315 315 316 317 318 316 316 314 314 314 314 313 315 317 316 315 314 314 314 314 314 313 313 313 313 313 313 313 312 311 310 310 309 307 307 307 307 307 307 305 306 305 305 302 300 299 299 300
316 316 314 317 319 318 315 317 315 313 316 316 316 316 316 316 315 314 315 314 313 313 313 312 312 312 312 311 310 310 308 307 307 306 305 305 305 306 306 305 304 303 300 297 298 298 299 300 299
317 316 315 314 313 314 316 316 314 313 314 315 314 314 313 313 313 313 313 313 313 312 312 312 311 310 309 307 306 306 306 305 306 306 304 303 303 305 303 300 299 297 297 298 299 299 298 297 294
316 315 317 312 313 321 318 317 316 316 315 313 312 312 312 313 313 313 313 312 312 311 310 308 307 306 305 306 305 305 305 303 304 304 303 303 303 303 300 298 297 298 299 299 297 294 293 292 292
316 316 315 316 314 318 317 317 313 313 312 311 311 312 312 312 313 313 313 312 310 309 308 307 307 305 305 305 306 306 302 302 302 302 302 302 300 298 297 298 299 298 293 293 292 292 292 292 292
315 315 314 315 318 312 312 315 312 312 312 312 312 313 313 313 313 312 312 311 309 307 308 306 305 304 304 306 306 304 302 301 301 301 300 299 298 298 298 298 295 293 292 292 292 292 292 290 290

GFSSGP_850_thetae_018.txt.gz
Theta_e
310 311 312 315 311 308 310 312 312 326 334 334 334 332 332 336 332 327 336 337 331 325 324 324 328 331 333 332 332 333 334 335 335 336 333 327 327 327 327 326 325 325 325 324 325 327 327 327 327
310 311 313 314 308 309 311 313 323 330 336 335 335 335 336 335 336 335 336 336 336 327 323 322 323 324 325 326 327 328 331 332 332 332 335 335 332 330 330 330 330 328 326 329 332 332 329 327 331
313 313 313 306 305 310 312 315 330 334 330 330 336 336 336 338 335 335 336 336 334 334 324 320 319 319 318 318 318 319 322 325 324 323 322 333 335 335 334 333 333 332 332 332 333 331 328 326 327
314 313 312 311 313 314 314 315 330 331 331 335 336 334 336 337 335 335 336 331 330 328 323 321 319 318 317 316 316 316 316 316 316 316 318 326 329 330 331 332 331 332 332 331 327 328 326 326 328
313 312 306 308 312 314 318 322 328 326 329 333 332 334 336 335 332 333 331 328 325 322 320 319 318 317 316 316 315 315 316 317 318 317 317 317 316 319 322 323 325 324 322 321 324 324 325 328 328
312 310 306 308 310 311 314 323 325 326 327 330 333 332 335 330 330 328 326 324 323 320 319 318 318 318 317 316 316 318 318 319 320 320 319 319 320 320 319 317 316 316 317 317 317 316 314 316 318
308 305 307 308 310 312 312 313 319 322 323 323 325 330 335 333 335 333 329 326 326 324 321 320 321 318 318 317 317 319 321 321 321 321 321 320 320 321 320 320 320 319 320 320 320 319 320 321 322
312 305 308 308 308 311 311 313 313 316 318 324 324 330 333 332 336 335 332 329 326 323 323 322 322 320 316 316 316 319 321 322 322 320 320 319 319 319 319 319 320 319 320 321 322 323 324 323 323
312 306 308 310 311 313 312 312 313 318 323 318 325 324 325 329 335 336 333 330 325 325 327 327 321 317 315 314 315 317 319 319 321 322 320 319 318 318 319 318 316 314 312 314 318 318 319 315 315
309 307 312 311 310 313 313 313 313 317 321 323 322 322 326 331 334 335 333 330 324 329 329 328 320 318 314 314 313 316 318 316 318 318 320 319 317 318 320 314 311 309 309 311 313 312 310 309 309
313 311 312 314 313 314 315 315 314 318 320 321 318 322 328 334 334 333 331 327 325 330 330 329 321 317 314 314 314 314 315 317 318 319 317 318 318 317 316 313 312 310 310 309 310 311 308 309 309
314 314 314 315 315 315 314 315 315 315 315 317 318 319 324 329 331 331 329 324 327 327 330 330 319 316 315 314 313 312 313 317 319 321 320 319 318 317 317 311 310 310 309 308 307 307 306 307 307
315 315 316 317 316 316 316 315 314 315 316 317 318 323 322 323 322 326 326 325 329 330 331 329 319 315 314 314 314 312 313 316 319 320 321 321 321 319 318 314 312 311 310 308 309 308 307 306 306
317 316 316 316 317 317 316 315 316 316 316 316 319 321 322 323 321 322 328 325 329 329 330 324 318 315 315 315 314 313 313 315 315 316 318 319 319 317 316 312 310 311 310 309 309 308 307 306 305
317 316 312 314 314 314 314 312 312 316 315 316 316 322 322 321 320 321 322 325 324 323 328 321 317 315 315 315 313 312 312 312 311 311 312 312 311 310 309 308 308 308 308 309 309 308 307 305 304
311 310 312 313 314 314 313 313 311 314 314 316 316 320 324 322 321 321 323 324 323 322 323 319 316 315 315 314 313 312 311 311 310 310 310 310 309 309 309 308 307 308 307 306 307 306 306 304 303
308 312 313 312 313 313 315 314 313 316 315 316 316 315 322 323 322 322 323 323 322 322 320 318 315 315 314 313 312 312 311 311 311 310 310 309 309 309 308 308 307 308 308 307 305 305 305 304 304
314 312 313 314 313 313 313 312 311 311 312 312 313 314 314 323 324 323 319 320 321 320 318 316 315 314 313 313 312 312 312 311 311 311 311 310 310 309 309 308 308 307 308 307 307 306 305 305 305
313 314 315 313 313 314 314 312 310 309 311 311 310 311 312 314 315 316 316 316 316 318 317 315 314 314 314 313 312 312 312 312 312 312 311 311 311 310 309 309 308 307 307 307 307 307 306 306 305
314 315 313 313 313 314 313 313 309 310 310 311 312 313 314 315 315 316 316 315 315 316 315 315 314 314 313 313 313 312 312 312 312 312 312 312 312 311 311 310 309 308 307 307 307 307 307 306 306
313 314 314 314 312 314 312 314 311 311 312 312 313 314 315 315 315 315 315 315 315 315 314 314 314 313 313 312 312 312 312 312 312 312 312 312 312 311 311 310 309 308 307 307 307 307 307 307 306
315 313 314 314 315 317 312 316 313 310 310 310 313 313 313 314 314 315 315 315 315 314 314 314 314 313 312 312 312 312 312 312 313 312 311 311 311 310 309 310 310 309 307 307 307 307 307 306 305
315 314 314 315 315 315 314 312 312 310 312 312 311 313 314 314 314 314 314 314 314 313 313 313 312 312 312 312 313 313 313 313 312 311 311 309 308 308 308 308 307 309 308 307 308 308 306 305 304
314 315 313 313 313 316 316 314 313 312 312 312 312 315 315 314 314 313 313 313 313 313 312 312 312 313 313 313 313 312 311 311 310 309 308 307 307 307 306 306 306 306 307 306 306 306 304 304 303
314 313 313 316 316 318 315 314 314 313 311 312 313 315 315 315 314 312 313 313 313 313 313 313 312 312 312 312 311 310 308 306 306 305 304 304 305 305 304 303 303 305 305 304 303 302 300 298 298
315 314 312 314 317 316 314 316 315 314 314 313 314 314 313 313 313 313 313 313 312 312 312 312 311 311 310 308 306 305 305 304 303 302 301 303 304 303 303 303 303 304 302 300 298 298 297 298 299
317 315 314 313 312 313 314 314 313 311 311 312 311 312 312 312 312 312 312 312 312 312 311 309 309 307 306 305 304 305 304 304 302 301 300 302 302 302 302 302 301 300 298 298 298 298 299 297 296
315 313 315 311 312 319 316 316 315 313 312 310 310 312 312 312 313 313 312 312 312 311 308 307 307 305 304 303 302 303 303 302 302 301 300 301 302 301 301 299 298 297 298 298 298 297 293 293 292
315 315 313 313 313 313 316 316 312 311 311 311 311 312 312 312 312 311 311 311 311 310 308 307 306 303 302 301 301 301 301 300 300 300 300 300 299 299 297 297 298 298 297 293 292 292 292 292 292
313 315 312 310 314 311 310 313 310 310 311 311 312 312 312 312 311 311 311 311 311 309 307 307 304 302 303 302 302 301 300 299 299 299 298 297 296 296 296 297 294 293 293 292 292 292 292 291 290

GFSSGP_850_thetae_021.txt.gz
Theta_e
310 311 312 315 317 317 316 319 315 334 336 334 333 331 333 335 332 331 336 337 326 325 325 329 331 333 334 334 335 335 335 335 335 334 329 328 332 333 333 332 330 327 326 325 325 328 330 328 327
310 311 314 314 318 324 326 318 321 334 336 334 334 335 335 335 336 335 336 335 326 323 323 324 324 325 326 327 329 331 332 332 332 332 334 332 329 327 327 326 326 325 326 326 329 332 331 329 327
312 313 314 314 314 321 330 324 334 335 330 332 336 335 336 336 333 334 335 335 331 324 321 320 320 320 320 319 319 323 324 324 322 323 320 327 334 334 333 332 331 331 329 330 332 331 329 327 326
313 313 313 320 320 316 320 331 333 333 331 335 334 334 335 336 334 334 335 332 332 323 320 318 317 317 317 316 316 316 316 316 317 318 321 326 328 330 332 332 332 331 331 331 329 327 327 326 327
313 313 317 319 320 321 322 329 332 331 330 332 332 335 336 336 333 334 331 328 325 320 319 319 318 317 316 316 316 316 316 317 317 317 317 318 318 319 321 324 326 324 321 320 321 322 323 326 328
312 312 318 321 317 314 319 324 326 327 327 330 332 332 334 329 330 330 326 325 322 319 318 318 318 318 317 316 316 317 318 318 319 319 319 319 320 320 319 318 317 317 318 319 318 316 315 315 316
312 312 311 311 314 315 315 313 324 325 326 325 327 332 333 332 328 324 323 322 321 321 321 320 320 317 316 316 316 317 316 319 320 320 320 319 320 319 319 319 319 319 320 320 320 320 320 321 321
312 311 310 310 312 313 310 312 315 316 321 324 325 330 334 333 331 327 325 325 326 325 323 323 321 318 315 315 314 313 314 319 321 320 318 318 317 318 318 319 319 318 316 315 315 320 323 323 323
312 312 311 311 312 313 311 313 313 320 323 319 324 323 325 331 332 331 329 328 327 324 325 324 319 318 314 314 314 314 313 314 314 317 317 318 317 316 318 318 315 314 309 309 312 314 315 316 312
311 313 313 311 311 314 313 312 312 317 320 323 322 322 325 329 332 332 331 327 324 325 327 327 321 318 315 314 313 313 313 313 314 315 315 317 317 316 316 316 313 311 310 309 309 311 312 310 308
313 315 312 313 312 314 314 314 313 318 318 318 318 320 325 328 332 333 330 326 324 328 328 328 324 318 315 314 314 313 312 313 314 316 316 315 316 316 317 317 315 312 310 310 309 309 308 307 308
316 313 313 314 314 314 314 314 314 316 316 316 318 319 323 328 330 329 329 325 325 325 326 328 325 317 314 314 314 314 314 314 316 317 318 319 319 319 318 317 315 312 312 311 309 308 308 308 307
316 315 315 315 315 315 315 315 315 315 316 316 317 320 321 324 324 327 325 324 325 325 326 330 326 316 314 314 314 313 314 315 316 317 316 316 316 316 315 315 315 312 310 310 310 309 309 308 307
316 315 315 315 315 314 315 315 315 315 315 315 316 319 321 321 320 324 326 324 324 325 325 329 326 317 315 315 313 312 313 313 313 313 312 312 313 312 311 310 309 309 308 308 308 308 307 307 307
315 316 314 314 313 314 312 316 315 313 315 315 314 320 322 321 322 320 320 321 322 323 326 328 327 317 315 315 313 312 312 311 311 310 310 310 310 310 309 309 309 308 307 307 307 307 307 306 305
314 314 316 314 315 315 316 319 316 315 314 314 315 315 320 323 322 321 321 322 324 326 326 328 325 317 315 314 313 312 312 311 311 311 310 310 310 309 309 309 308 308 307 307 308 307 306 305 305
313 315 315 316 313 315 316 318 316 311 312 314 315 315 315 322 323 323 322 323 324 326 325 325 322 316 315 313 313 312 312 311 311 311 311 311 311 311 310 310 309 308 308 307 308 307 307 306 306
316 315 315 316 315 316 316 317 314 310 310 310 311 313 314 315 323 325 324 323 322 322 322 323 319 315 314 313 313 312 312 312 312 312 312 311 311 311 311 311 311 310 309 308 308 308 307 307 306
313 314 316 314 313 316 316 315 313 311 312 312 312 312 312 314 319 321 319 317 316 317 320 320 317 315 314 313 313 312 312 312 312 312 312 311 311 311 310 310 310 309 309 309 308 308 308 307 307
314 315 314 314 313 316 317 316 312 312 311 310 312 313 314 314 315 315 316 316 315 316 317 316 315 314 314 313 312 312 311 312 312 312 313 313 312 312 312 312 311 311 310 308 308 308 308 308 307
315 315 315 315 314 314 315 317 315 312 312 312 312 313 314 314 315 315 315 315 315 315 315 315 314 314 312 312 311 311 311 312 312 312 313 312 311 311 311 310 310 310 309 310 310 308 308 308 308
317 313 315 315 318 320 314 320 316 312 313 312 312 313 313 314 314 313 314 313 313 313 313 312 312 312 312 312 312 312 312 311 312 311 310 310 309 308 307 307 307 307 307 307 309 309 308 307 308
317 314 315 316 318 318 318 318 317 314 315 314 314 314 315 315 313 312 312 312 312 312 312 312 312 312 312 312 312 312 311 310 308 307 306 305 305 304 303 304 305 304 304 305 306 307 307 306 307
314 316 314 315 317 322 318 317 318 316 314 315 314 312 313 313 312 311 312 312 312 312 312 312 312 312 312 311 311 312 312 310 307 305 304 303 302 301 301 303 303 302 303 303 304 305 305 304 303
317 316 319 323 324 323 316 316 317 314 314 314 313 311 312 312 313 312 312 312 312 312 312 312 311 312 312 312 311 310 307 304 303 302 302 301 301 300 301 302 302 302 302 303 303 301 300 299 299
317 317 320 318 321 321 315 319 318 313 312 312 312 311 312 312 312 312 312 312 312 312 312 311 311 312 311 309 305 303 302 302 300 300 299 300 300 300 301 302 301 301 301 301 299 298 298 297 298
317 320 315 317 314 319 318 316 315 313 312 312 312 312 312 312 313 312 311 311 311 311 311 310 309 306 305 303 301 301 301 301 300 299 299 299 300 300 301 300 299 299 298 298 298 298 298 297 295
316 314 319 318 321 320 319 318 318 315 314 312 313 313 312 312 311 311 310 311 311 311 311 308 307 307 304 303 303 303 303 301 299 299 298 299 299 299 298 297 297 297 296 296 295 293 293 292 293
317 318 316 316 317 322 320 319 315 314 313 313 312 312 312 311 311 310 310 310 311 311 308 304 303 305 306 305 304 304 303 301 299 298 298 298 298 297 297 297 295 296 295 293 293 292 292 292 291
314 315 314 317 316 316 317 316 312 313 312 312 312 312 312 312 310 310 310 309 309 309 305 302 302 303 305 305 305 304 302 300 298 296 297 296 296 296 295 295 295 295 294 293 292 292 291 291 290

GFSSGP_850_thetae_024.txt.gz
Theta_e
310 312 313 317 323 327 329 331 335 336 336 336 335 333 336 337 335 339 338 335 332 334 333 332 333 335 335 335 335 335 336 335 332 332 332 333 334 335 335 334 333 331 328 326 325 328 331 331 328
311 311 315 318 326 328 329 329 333 334 335 334 334 333 332 335 337 338 338 331 330 327 330 328 328 329 330 331 333 333 334 334 334 332 330 330 330 329 330 328 327 327 326 325 328 329 332 331 329
311 313 318 323 325 327 327 328 334 334 334 334 333 334 334 333 336 337 336 326 324 323 328 323 325 325 323 322 323 327 328 326 326 327 328 332 333 332 330 329 329 329 328 328 329 332 331 328 326
314 316 320 323 324 325 328 332 333 333 333 332 331 332 335 336 336 336 334 331 327 326 327 319 317 316 316 316 316 316 316 316 317 318 319 322 325 328 330 331 330 331 331 332 330 329 328 327 327
314 319 323 323 326 327 330 331 331 331 331 332 331 333 334 337 338 335 334 333 326 322 318 317 316 316 316 316 316 316 317 317 318 318 318 318 318 318 318 317 317 318 319 320 319 320 322 324 328
319 322 324 325 326 328 329 330 328 326 328 329 329 329 333 336 335 335 332 329 325 322 317 317 317 317 316 316 315 315 316 318 318 319 319 319 319 319 319 319 319 319 319 319 319 318 317 316 316
320 322 323 323 324 323 324 324 325 324 326 326 327 327 332 335 334 333 331 326 324 323 324 324 319 316 315 315 314 314 315 317 319 320 319 318 318 318 319 319 319 320 320 320 320 320 322 322 322
316 319 319 319 319 318 316 318 321 320 322 326 327 325 329 331 333 332 329 327 328 328 329 328 323 319 315 316 315 314 313 318 320 319 318 318 318 318 318 320 319 318 317 313 313 318 321 321 322
315 318 318 317 317 317 315 317 315 320 323 323 324 326 329 333 333 331 328 329 330 330 324 324 328 319 316 315 315 314 313 313 313 314 316 318 326 323 323 320 317 313 311 310 310 310 311 311 311
318 318 317 316 317 317 316 316 317 319 319 321 324 326 330 335 333 332 330 329 329 331 329 326 321 319 316 314 315 315 314 324 320 321 315 324 317 318 318 316 316 314 313 310 310 309 309 310 313
318 318 317 316 316 317 317 316 316 317 318 318 318 324 331 334 334 334 331 328 328 331 331 332 324 318 315 324 324 326 326 326 324 315 317 318 316 323 324 324 323 323 315 316 313 310 312 309 308
317 317 316 316 316 316 317 317 317 318 317 317 320 323 328 331 330 331 329 327 328 328 329 333 328 318 314 318 324 325 324 326 326 328 318 324 326 326 326 325 325 323 323 318 317 317 310 309 309
320 319 319 317 316 318 317 318 318 318 317 317 320 325 327 328 328 328 328 326 326 327 328 334 330 322 315 315 315 314 315 325 325 326 322 315 324 324 324 322 321 320 320 319 319 319 318 316 311
319 319 319 318 318 317 319 319 318 317 317 317 321 324 326 327 327 328 329 328 328 329 331 334 330 324 315 315 314 312 313 319 317 323 321 310 311 320 320 319 318 318 318 317 317 317 314 314 310
319 320 321 319 319 320 318 319 319 317 316 317 320 323 325 327 327 327 326 327 326 328 331 330 329 328 317 315 314 313 317 311 318 318 311 311 310 310 310 317 317 316 317 313 312 313 311 310 311
320 320 320 320 320 319 321 321 320 319 317 319 318 318 324 326 327 327 328 329 329 330 329 328 327 329 319 315 314 313 315 312 314 311 312 312 311 311 311 315 316 315 314 316 316 316 315 314 312
319 317 318 319 318 320 320 320 320 316 316 319 319 319 319 323 327 329 328 327 326 327 328 327 326 328 319 315 314 313 312 311 314 312 312 312 312 312 311 311 313 314 315 316 316 315 315 313 312
318 318 319 318 319 319 321 321 318 316 317 317 317 317 317 319 324 326 324 323 323 324 324 325 326 326 319 315 314 313 312 312 312 312 312 312 312 311 311 311 312 314 315 315 315 315 315 314 312
318 318 319 318 318 320 321 319 318 317 318 318 318 318 317 318 319 318 322 321 317 316 318 323 324 322 318 317 316 317 316 314 313 313 312 311 312 313 313 312 312 312 314 315 314 314 315 315 313
319 319 319 319 318 320 321 319 318 317 317 317 318 318 318 317 317 316 316 314 314 315 317 318 317 316 316 315 313 312 311 312 312 313 313 313 312 312 311 310 310 311 312 313 313 314 314 314 313
320 320 320 320 320 320 321 320 319 317 316 316 317 317 316 316 316 315 315 314 314 314 314 314 314 314 313 312 313 313 313 313 313 312 312 311 310 307 306 304 304 304 306 310 311 312 312 313 313
320 318 320 320 322 322 321 323 319 318 318 318 318 318 318 316 315 314 315 314 313 313 312 312 312 312 312 312 312 311 312 312 312 311 310 310 308 306 304 304 304 304 306 308 309 309 310 311 311
321 319 320 321 322 322 322 322 321 318 319 319 318 317 316 315 315 314 314 314 314 312 312 312 313 312 311 311 312 315 314 312 311 313 311 307 306 305 304 305 300 301 303 305 305 307 308 308 309
319 320 320 321 323 325 323 323 323 320 319 319 317 316 316 315 315 314 314 314 314 314 313 313 312 312 311 311 310 311 308 306 307 306 305 304 303 303 303 304 300 301 302 302 302 303 303 304 305
321 322 323 326 326 325 321 322 323 318 318 317 317 316 315 315 315 315 314 314 314 314 313 312 312 311 310 309 307 306 305 305 304 304 303 303 302 302 302 301 302 303 302 301 301 301 301 300 300
321 322 325 323 322 323 320 322 322 317 316 315 315 315 315 315 315 315 314 314 314 313 313 312 312 311 309 308 306 303 300 303 304 303 303 302 301 301 301 301 301 300 300 301 299 299 299 299 298
322 323 320 322 320 324 321 320 319 317 316 316 316 315 315 315 314 314 314 314 313 313 313 312 310 309 309 307 306 305 305 304 304 303 301 300 299 300 300 300 300 300 299 298 297 297 296 294 294
320 319 324 322 330 321 318 320 320 319 318 316 316 315 315 314 314 314 313 313 312 312 311 310 308 308 308 307 307 305 305 304 302 300 299 299 299 299 300 299 298 297 297 296 295 295 296 294 294
321 321 320 321 322 324 322 318 320 319 318 316 315 315 315 314 314 313 312 311 311 310 309 307 307 307 307 307 305 304 304 302 300 299 298 298 298 298 298 297 296 295 295 294 293 293 293 293 293
318 318 318 321 320 320 320 317 316 317 316 315 315 315 315 314 312 312 311 311 309 308 306 306 306 305 304 303 302 302 302 300 299 298 297 297 296 296 296 296 295 293 293 293 293 293 292 291 291

GFSSGP_850_thetae_027.txt.gz
Theta_e
310 312 317 319 324 328 333 334 333 334 335 335 332 334 335 337 341 345 339 336 338 339 338 334 334 336 336 336 336 336 335 334 334 333 334 334 335 335 335 335 334 332 330 327 326 326 331 330 330
316 314 316 321 326 329 332 332 332 333 333 331 330 330 330 336 339 339 335 334 336 338 339 336 333 331 330 331 332 333 334 334 333 332 332 332 331 333 332 331 329 328 327 326 326 327 328 329 331
313 315 319 323 328 330 331 331 332 331 331 331 330 331 332 335 337 338 333 331 332 334 338 328 327 325 322 321 324 325 325 326 327 327 328 330 331 331 330 329 328 329 329 328 328 330 331 331 329
316 317 320 324 328 327 328 331 330 331 330 330 328 331 335 335 336 335 331 329 330 333 328 321 318 316 316 316 316 316 316 316 317 317 319 323 324 325 327 329 331 331 331 331 331 329 327 327 327
316 320 324 326 327 328 330 330 329 330 329 328 327 329 334 337 336 334 333 329 328 327 319 316 316 316 316 316 316 316 317 318 318 319 319 319 319 318 318 318 318 317 318 318 319 319 319 319 320
319 323 325 326 327 329 330 329 327 327 327 325 326 328 335 336 335 334 333 327 325 325 326 316 316 316 316 316 316 316 316 318 320 320 320 320 319 319 318 319 319 319 319 319 319 319 319 319 319
320 325 326 325 327 328 328 325 325 325 324 324 323 327 332 333 334 332 329 325 325 326 327 326 320 316 315 315 315 314 315 320 320 320 319 318 318 317 318 318 319 319 318 316 313 313 316 320 322
321 324 323 324 324 322 321 322 322 322 324 322 325 324 331 333 333 331 327 326 326 327 328 329 329 330 331 323 315 314 313 316 319 319 317 317 318 318 317 318 320 316 314 310 309 309 310 311 312
318 321 320 320 320 318 317 318 317 319 320 321 322 327 328 332 332 329 327 327 328 329 330 331 330 331 329 328 323 319 316 315 318 319 315 321 329 328 328 323 317 316 314 313 311 310 309 310 312
320 321 319 319 319 318 318 318 318 320 319 320 322 323 330 331 330 328 327 327 328 329 330 330 331 331 330 326 327 329 327 329 329 329 328 328 328 327 321 323 323 320 320 314 314 313 311 312 319
320 320 318 317 318 318 317 317 317 319 320 320 321 323 328 329 329 328 327 326 327 329 329 329 331 331 330 327 326 327 327 327 328 329 329 329 327 328 327 327 326 326 324 324 323 322 320 319 318
319 318 317 317 317 318 318 318 318 318 319 319 320 323 326 328 328 328 328 327 326 328 328 329 331 329 324 325 324 325 325 327 327 328 329 328 326 326 326 324 324 323 323 323 322 321 321 321 320
319 318 317 317 318 319 318 319 319 319 318 318 320 323 326 328 328 328 327 326 326 326 326 329 332 333 326 318 325 326 326 327 328 327 327 326 325 325 324 323 322 322 321 321 320 320 319 320 319
320 320 321 320 320 319 320 320 319 320 319 319 320 323 325 325 326 327 327 326 326 326 327 329 332 334 325 324 326 325 326 326 326 325 325 322 322 322 322 321 320 319 318 319 318 317 318 318 317
320 321 321 321 321 322 320 320 320 319 319 319 321 321 324 325 325 326 327 327 326 326 327 329 333 333 328 325 325 323 323 321 322 321 321 320 317 320 319 320 319 318 318 318 318 318 318 318 317
321 322 323 322 321 321 322 324 321 321 320 320 320 322 323 325 325 325 325 326 326 326 327 329 331 331 331 325 324 322 321 321 320 319 319 319 315 313 313 319 318 318 318 318 318 318 318 317 317
321 322 320 321 320 322 322 323 322 320 320 320 320 320 321 323 325 326 326 327 327 327 327 328 330 332 330 326 324 322 321 320 320 319 319 318 318 318 316 317 318 318 318 318 318 317 317 317 317
320 319 319 320 321 320 321 322 321 321 321 321 321 321 321 321 324 327 328 325 325 325 327 328 329 331 329 326 323 320 320 319 319 317 316 316 316 316 316 316 317 317 317 317 317 316 316 316 316
319 319 320 320 320 321 322 321 321 321 321 321 321 321 321 323 324 323 321 321 321 322 324 326 327 327 325 323 321 319 318 318 316 316 315 316 316 315 315 314 314 314 314 314 314 315 316 316 316
320 321 322 321 320 320 323 321 321 320 320 321 321 320 320 319 319 319 320 320 319 319 320 320 320 318 317 317 316 316 315 316 316 316 315 314 314 313 313 312 311 311 311 311 311 312 313 314 314
322 322 323 322 322 322 322 322 321 320 319 319 319 319 319 319 318 319 319 319 319 318 318 317 317 316 315 314 316 316 315 315 315 315 315 314 313 312 311 310 309 309 309 309 309 310 310 311 312
323 321 321 322 322 324 323 324 322 321 320 321 321 321 320 319 318 318 318 318 318 318 317 317 316 316 315 314 315 316 316 316 316 315 313 313 311 309 308 307 307 307 308 307 308 308 308 309 310
323 322 322 322 324 323 324 322 324 321 322 321 320 320 319 319 319 318 318 318 318 317 317 316 315 315 315 314 313 314 314 313 311 311 310 308 307 306 305 305 305 306 306 306 307 307 307 307 307
321 323 323 324 325 326 323 324 324 323 323 321 320 319 319 319 318 318 317 317 317 317 317 316 315 315 314 313 313 312 311 310 308 308 307 306 306 305 304 304 304 305 305 306 305 305 305 304 303
323 324 327 328 328 327 325 323 325 322 321 321 320 319 318 318 318 318 317 317 317 316 316 316 315 315 314 312 311 310 309 308 307 307 306 306 305 303 302 303 303 304 304 303 302 302 301 300 299
323 323 327 326 326 325 322 321 325 321 319 318 318 318 318 318 317 317 316 316 316 316 316 316 315 313 311 311 310 309 309 308 307 307 306 304 302 301 302 302 302 301 301 301 300 299 298 298 297
324 325 322 324 325 324 321 323 322 320 319 318 318 318 318 317 316 316 316 316 315 314 313 314 313 311 310 310 310 309 309 307 307 306 304 302 301 301 301 301 301 300 300 299 298 298 297 297 295
321 321 325 325 328 322 320 320 322 321 320 319 319 318 317 317 316 316 315 314 313 313 312 311 310 309 309 309 308 307 306 305 304 303 301 300 300 300 299 299 299 299 298 297 296 295 295 295 295
321 322 322 322 322 324 322 320 320 320 320 320 318 317 317 317 316 315 314 313 313 312 311 309 309 308 306 304 303 303 303 303 302 301 300 300 299 298 297 295 295 296 295 295 295 294 294 294 293
320 321 320 322 321 321 322 320 318 318 318 317 316 316 316 316 314 314 313 313 312 311 308 307 306 303 301 300 300 301 301 301 301 300 298 298 297 297 296 295 295 296 295 294 294 293 293 292 292

GFSSGP_850_thetae_030.txt.gz
Theta_e
311 313 315 319 322 324 327 334 334 335 335 332 333 333 336 339 343 344 338 340 342 336 335 335 335 335 335 335 335 334 334 334 334 334 334 334 333 334 335 335 334 333 331 328 326 325 327 328 328
311 317 317 318 322 326 334 332 334 333 331 328 331 330 336 338 338 336 336 339 339 341 336 332 333 329 329 330 330 332 333 333 333 332 332 331 331 332 332 332 330 328 327 326 326 326 327 329 331
312 317 317 321 323 324 332 333 332 330 329 329 330 334 334 337 337 334 335 337 338 340 336 328 325 322 320 321 323 323 324 324 324 326 326 327 329 330 331 331 331 331 329 329 329 330 331 330 327
312 317 316 321 325 329 330 332 329 329 330 329 330 333 334 335 335 332 331 333 336 335 325 322 317 316 315 315 315 316 316 316 317 318 319 320 320 321 322 322 322 323 325 328 328 326 319 317 317
317 318 320 325 328 330 330 329 328 329 328 327 328 334 336 336 333 331 330 331 331 326 318 315 315 315 315 315 315 315 316 317 318 318 318 319 319 319 318 318 318 318 318 318 318 318 318 318 318
317 319 323 326 328 329 329 328 328 329 327 325 328 333 335 335 334 333 328 328 327 319 315 315 315 315 315 314 314 313 314 316 317 319 319 319 318 318 317 317 318 318 318 318 317 315 313 314 317
318 320 323 327 327 328 329 327 325 325 324 324 324 331 334 335 334 332 326 325 326 325 317 316 316 315 314 314 313 311 311 316 319 319 318 317 316 316 315 315 318 317 315 313 309 308 308 309 310
318 320 324 326 326 325 323 324 323 323 324 321 325 329 332 334 332 329 325 325 326 327 328 330 328 326 328 327 315 312 311 312 314 315 315 321 329 326 326 320 316 315 314 312 311 310 309 309 309
319 323 324 322 323 320 319 320 319 320 320 322 326 326 332 333 331 327 326 326 327 328 330 330 331 331 329 328 324 323 319 328 324 327 323 329 328 329 326 322 323 323 321 320 314 314 312 311 313
320 321 319 320 319 318 318 318 318 321 320 321 325 331 332 331 330 327 326 327 328 330 330 331 331 331 328 325 325 328 327 328 328 329 328 330 327 325 325 326 325 325 323 322 324 322 319 319 319
320 319 319 318 318 318 318 318 319 320 320 321 321 328 330 331 329 327 327 327 329 329 330 331 331 329 331 325 326 328 328 328 330 329 326 328 325 328 326 326 325 324 322 323 323 321 322 321 319
319 318 317 318 318 318 318 317 318 319 320 320 321 323 329 329 328 328 327 327 327 329 329 331 329 322 322 327 326 326 326 328 327 329 328 328 327 326 326 324 324 322 322 321 321 321 321 320 321
318 317 317 317 318 319 318 318 319 319 318 319 322 324 327 327 327 327 328 327 326 329 328 329 331 331 324 320 325 323 324 328 328 327 328 325 318 324 320 320 320 320 320 319 319 319 318 319 319
319 319 319 319 320 319 319 320 319 319 319 318 321 324 326 328 328 328 328 327 327 327 326 330 332 333 326 325 323 321 326 327 326 326 325 322 313 316 315 317 318 319 319 318 316 317 318 318 318
320 321 321 321 321 321 320 320 319 320 320 320 320 321 325 325 326 327 326 327 326 326 327 328 332 333 331 325 325 324 324 322 322 322 321 317 315 316 315 316 317 319 318 317 316 317 318 318 317
320 322 322 322 322 322 321 323 320 320 320 320 320 321 322 325 325 326 327 327 326 326 326 329 331 333 333 328 325 323 323 322 321 320 320 320 319 318 316 315 316 317 318 316 318 317 317 318 317
321 322 323 322 321 322 322 323 322 322 321 321 320 321 322 323 325 325 326 326 326 327 328 329 329 331 331 331 326 324 322 320 321 320 320 319 319 317 317 316 316 316 317 317 317 317 317 317 317
321 320 319 320 321 320 321 321 322 321 321 321 321 321 321 321 325 326 327 327 326 326 327 328 329 331 332 329 326 323 321 320 320 319 317 317 316 316 315 313 313 313 314 314 314 315 315 316 316
319 319 320 321 321 320 320 321 322 322 322 322 322 322 323 323 322 323 324 323 323 323 326 327 329 328 328 326 323 321 320 318 318 316 316 316 316 315 314 314 314 313 312 312 312 311 311 311 314
320 321 322 322 321 320 322 322 321 321 322 322 322 322 321 321 321 321 321 320 320 321 320 320 321 321 319 317 317 317 317 316 316 316 317 315 315 315 314 312 311 310 309 309 308 308 310 311 312
321 321 324 322 322 322 321 322 321 321 321 321 321 321 320 320 320 321 321 320 319 319 318 318 317 317 315 315 316 316 316 315 316 316 315 315 315 314 311 309 308 306 306 307 307 304 306 308 309
322 323 322 321 322 322 323 323 322 321 321 321 322 321 319 319 320 320 320 320 319 319 318 317 317 316 316 314 315 316 315 316 316 315 312 312 311 308 307 306 305 305 305 305 305 306 307 307 307
323 322 322 322 323 323 323 324 323 322 321 322 321 321 320 320 320 319 319 319 319 318 318 317 316 316 315 314 314 313 313 312 311 310 309 308 307 307 306 305 304 303 303 302 305 306 306 306 307
321 323 324 324 324 328 325 323 323 322 322 322 321 320 320 319 319 319 318 318 318 318 318 317 316 316 315 314 313 312 311 310 309 308 308 307 307 306 304 302 301 302 303 304 305 305 302 302 301
323 323 331 332 332 331 326 325 325 323 323 322 321 320 320 319 319 318 318 318 318 317 317 317 316 315 314 312 312 311 310 310 309 308 308 307 306 303 302 301 301 303 303 301 301 300 300 300 299
323 322 332 329 332 330 324 323 324 322 321 320 320 319 319 319 318 317 317 317 317 316 315 314 315 314 312 311 310 310 310 310 308 307 307 306 304 301 301 301 301 300 299 299 299 299 299 297 297
322 326 321 322 327 329 322 324 323 321 320 319 319 319 319 318 318 317 317 316 315 314 314 313 312 311 310 310 309 309 307 307 306 305 304 302 301 300 300 299 297 298 298 298 297 296 296 296 296
321 320 324 329 329 325 320 321 324 321 321 320 320 319 318 318 317 317 316 315 314 314 313 312 310 310 309 308 305 303 302 303 303 302 302 301 300 299 298 297 297 295 295 295 295 293 295 294 294
321 322 322 321 323 326 325 321 319 319 320 320 319 318 317 317 317 316 315 314 314 313 311 310 309 308 305 302 301 300 301 301 301 301 301 300 299 297 297 297 296 295 295 295 295 295 294 294 293
319 320 320 328 322 325 326 323 318 318 318 318 318 317 317 317 316 315 314 314 313 312 310 308 307 303 301 300 300 300 301 300 301 300 299 297 298 297 297 296 296 296 295 294 294 293 293 292 292

GFSSGP_850_thetae_036.txt.gz
Theta_e
310 310 315 318 317 316 317 321 329 331 335 337 337 338 336 337 337 340 342 341 337 334 335 335 334 334 334 333 332 332 332 332 332 332 331 331 330 330 329 328 328 327 327 326 326 325 325 328 329
310 314 317 317 316 316 325 326 334 335 336 335 335 336 337 338 341 343 341 338 337 334 335 335 335 334 330 328 329 328 327 326 326 326 325 324 322 322 323 324 324 326 327 327 325 325 326 326 325
310 316 316 313 314 316 329 326 326 332 335 335 335 335 335 338 341 342 339 336 335 334 334 333 329 326 324 320 317 316 316 317 317 317 317 317 317 317 317 317 317 316 316 316 317 316 316 316 316
312 316 315 313 314 315 327 326 329 332 334 334 335 332 334 336 339 340 339 335 333 332 331 325 321 316 314 314 314 315 315 315 315 315 315 316 317 316 315 315 315 315 316 316 316 316 316 315 315
317 317 314 314 318 327 326 326 327 329 334 334 333 331 332 337 339 340 339 338 337 327 321 316 314 314 314 314 313 312 312 312 313 315 316 317 316 313 314 314 314 315 316 315 314 310 307 306 307
316 316 315 318 325 327 323 326 328 333 333 331 331 331 331 337 337 336 335 330 330 319 315 314 315 314 313 312 310 309 311 314 316 317 317 314 312 311 311 312 312 313 312 312 310 309 309 309 309
315 313 314 319 326 324 321 324 328 333 333 334 333 331 331 332 332 332 330 321 316 314 315 315 314 313 313 312 309 309 311 314 315 314 312 312 314 317 316 316 319 319 318 317 314 312 313 311 309
318 313 315 319 328 322 319 321 320 327 328 334 333 332 329 329 330 329 324 315 315 315 316 315 317 319 318 314 310 309 309 310 311 314 318 319 317 318 322 322 323 322 319 320 321 320 315 315 314
317 313 313 314 318 318 316 317 324 327 329 329 331 332 331 328 327 325 325 325 327 329 329 328 326 319 320 323 322 320 318 318 318 318 320 320 321 321 322 323 323 321 321 321 320 318 315 315 315
315 312 314 314 316 314 314 319 320 327 331 332 333 333 330 326 325 325 325 327 329 329 330 329 329 319 324 324 327 327 327 326 325 322 323 325 322 325 325 324 323 321 319 320 320 317 315 315 315
314 312 314 315 315 317 317 317 319 325 329 333 332 332 330 326 325 325 325 326 326 328 329 329 329 323 327 325 326 328 327 326 325 327 327 327 321 325 325 323 321 319 316 316 316 315 314 315 314
313 314 316 316 315 316 314 317 316 319 328 330 332 332 330 326 325 324 325 327 329 329 329 329 326 323 326 327 327 327 327 327 327 328 328 327 324 321 323 322 316 314 315 315 316 316 317 316 315
313 314 316 318 317 316 315 316 316 319 326 331 332 330 329 327 327 325 326 327 329 329 329 330 324 316 317 323 325 326 326 327 327 327 328 327 324 318 321 315 315 315 316 317 317 317 317 315 315
315 315 315 317 318 318 316 316 318 318 327 331 330 328 327 327 326 326 326 327 329 329 329 330 327 323 322 316 319 319 325 327 327 326 325 325 323 317 314 315 315 316 317 317 317 316 316 315 314
315 314 315 316 318 317 319 317 314 320 326 331 330 329 328 327 327 326 327 326 327 329 329 329 327 327 325 320 319 320 321 324 324 323 324 323 321 316 314 316 314 314 315 314 314 314 315 314 315
317 315 316 317 316 319 317 316 315 318 323 328 329 328 328 328 328 327 327 327 327 329 329 329 329 330 329 323 324 325 322 323 322 321 321 321 320 319 318 319 317 315 313 313 313 314 314 314 315
315 315 317 318 317 318 317 316 316 317 319 319 317 322 324 325 325 326 326 327 327 329 329 329 331 329 329 328 323 325 323 322 321 320 320 320 320 319 320 317 316 315 313 313 314 313 313 312 312
317 315 317 317 317 316 316 318 317 317 318 320 321 322 323 324 325 326 326 326 327 328 329 330 329 328 328 327 325 325 323 322 321 320 319 319 319 317 316 315 315 315 315 314 313 310 308 306 305
316 316 316 316 317 317 315 316 317 319 320 319 321 321 321 322 323 325 326 326 327 328 329 328 328 328 327 325 324 322 318 316 316 316 316 316 315 315 315 314 314 314 313 310 308 307 305 304 303
318 318 318 317 318 315 315 317 316 317 318 320 320 320 320 320 321 322 323 324 324 322 322 321 318 317 317 318 318 318 318 317 316 316 315 314 314 313 313 313 312 310 308 307 306 305 304 302 299
320 319 319 319 318 317 315 317 318 317 318 319 320 320 320 319 318 318 318 319 318 317 316 316 315 315 315 315 315 315 315 314 314 314 314 313 311 310 309 308 307 306 306 306 304 302 299 299 303
322 320 320 319 317 316 316 316 317 316 316 317 318 320 320 319 318 317 317 317 316 316 315 315 315 315 315 315 314 312 311 311 311 311 311 310 309 309 308 308 307 307 304 299 298 300 303 302 301
320 319 319 320 318 319 318 316 315 318 318 317 316 319 319 319 319 318 318 318 317 317 317 316 315 315 315 315 314 312 312 311 311 310 309 309 308 308 308 306 304 301 298 297 299 299 299 298 298
320 320 320 319 319 320 321 320 315 318 319 318 317 318 319 319 318 318 318 317 317 317 317 316 316 315 314 314 313 311 311 310 310 310 310 308 307 306 305 303 301 300 299 297 296 297 298 298 297
318 319 320 322 322 321 323 324 323 320 319 318 317 318 319 318 318 318 318 317 317 317 317 316 315 314 313 312 311 310 310 309 308 307 305 304 304 303 302 301 300 300 298 296 296 295 296 296 295
319 320 318 324 321 319 320 324 319 317 318 318 318 318 318 318 318 317 317 317 317 316 316 314 314 313 312 311 310 309 308 306 304 302 301 301 301 301 301 300 299 297 296 296 295 295 294 294 293
318 319 317 318 317 317 319 319 318 318 319 319 319 320 319 319 317 317 316 316 315 314 314 313 312 311 310 309 309 308 305 302 301 299 299 300 301 300 297 296 296 296 296 295 295 295 294 294 293
318 316 319 316 319 322 319 321 322 318 318 318 317 317 317 317 317 316 315 314 314 313 312 311 310 309 309 309 307 304 302 300 298 298 299 299 299 298 295 297 296 295 295 295 294 294 294 293 293
316 318 317 316 315 317 316 315 316 316 315 315 317 318 318 316 314 313 313 312 311 311 310 309 308 308 307 305 303 303 301 298 297 297 298 298 299 298 293 294 295 295 294 293 292 292 291 291 291
317 318 316 313 316 315 312 313 315 315 316 316 316 316 316 315 313 312 312 312 311 310 308 307 306 305 303 304 302 300 299 298 297 297 297 298 298 297 293 293 293 293 293 291 291 290 290 290 290

GFSSGP_850_thetae_039.txt.gz
Theta_e
309 310 315 318 317 314 317 318 329 332 336 336 337 337 336 337 338 338 340 340 336 334 334 334 333 332 332 331 331 331 331 332 332 331 330 329 327 325 324 325 325 325 326 327 327 327 327 327 327
309 315 317 317 316 316 325 326 335 335 335 335 336 337 337 340 340 340 340 337 335 334 334 334 333 333 332 331 328 328 329 329 327 324 320 318 318 318 318 318 317 318 317 317 318 318 318 317 316
310 315 316 312 314 316 325 327 332 334 335 334 335 334 337 339 342 340 339 336 335 335 335 334 334 331 327 326 323 321 318 318 316 316 315 315 315 315 315 315 314 314 315 315 315 316 316 316 316
313 315 314 313 314 314 325 325 332 333 334 335 333 333 336 338 340 339 337 336 335 335 334 331 328 324 318 315 314 314 315 315 315 314 314 315 315 314 312 313 313 314 314 315 315 313 309 307 307
316 316 313 313 316 319 324 328 332 331 333 333 332 332 333 336 340 337 335 335 334 333 329 323 318 314 314 314 313 313 313 313 313 313 314 316 313 311 311 311 312 313 312 312 310 308 308 308 308
315 315 314 321 325 324 321 327 333 332 332 332 332 332 336 340 339 337 336 333 331 327 319 315 314 314 313 311 310 310 310 312 313 315 315 311 310 311 312 313 313 313 313 312 311 310 310 309 309
313 312 314 326 324 324 320 332 332 331 332 332 331 328 339 340 337 335 333 332 324 316 314 314 313 313 312 310 309 310 311 312 313 312 310 314 317 316 319 319 319 318 316 317 317 316 313 314 312
317 311 314 325 325 324 322 322 333 332 332 332 331 329 334 337 333 328 325 321 315 314 314 314 315 317 313 310 308 308 309 310 310 313 318 319 318 319 320 320 320 318 317 317 314 313 312 312 312
316 312 313 326 323 321 324 317 321 331 333 330 330 330 333 333 330 324 318 315 314 315 315 318 319 316 319 317 314 313 314 315 316 319 320 320 320 322 320 319 320 319 318 317 316 314 313 313 312
315 312 313 321 324 323 317 324 326 331 331 331 329 329 331 331 327 320 314 315 322 326 326 327 326 316 323 325 326 325 323 322 322 320 323 323 320 320 319 320 320 319 317 317 316 315 314 314 314
314 313 312 314 323 321 316 317 324 330 330 331 330 329 330 328 325 324 322 323 322 326 327 327 326 319 323 324 326 327 326 324 324 323 324 325 321 320 323 321 319 317 316 316 316 315 316 316 315
314 313 315 314 314 315 314 317 326 323 330 329 329 330 327 326 325 324 323 324 327 327 327 329 325 318 322 324 326 325 324 324 324 324 323 325 324 320 320 319 317 316 316 316 317 317 317 317 316
313 314 316 315 315 315 315 315 316 319 328 331 331 329 327 326 324 323 322 325 327 328 329 329 324 316 316 317 320 323 323 322 324 326 326 326 325 323 317 318 317 315 316 316 317 317 316 316 316
314 313 314 316 316 316 315 315 317 319 331 332 331 329 328 326 324 324 324 325 327 329 329 329 325 318 318 317 320 321 320 326 326 325 326 326 326 324 320 317 315 315 315 316 316 316 315 314 314
314 313 314 315 316 315 317 316 316 322 331 331 331 330 328 326 325 325 325 325 326 328 329 329 325 319 320 319 321 320 321 321 322 323 322 324 324 321 319 316 318 315 315 315 314 313 313 313 313
315 313 314 315 316 316 315 314 315 326 331 330 330 329 328 327 326 325 325 325 326 329 329 330 324 327 322 324 325 323 324 325 325 324 324 323 321 320 319 319 319 318 317 315 313 313 313 314 312
312 315 316 317 315 316 316 316 315 322 329 325 326 327 327 326 326 326 326 326 325 328 330 330 324 323 323 327 325 323 323 325 322 321 321 321 321 320 320 319 318 316 315 315 314 314 313 312 309
315 315 315 316 316 316 317 316 312 314 321 319 320 322 323 324 325 325 325 325 325 326 329 329 328 328 327 327 325 324 322 322 321 320 320 320 320 319 318 316 316 315 315 314 312 311 309 307 306
316 314 316 315 315 314 315 314 313 317 319 319 320 322 323 325 325 327 327 326 326 328 329 329 328 327 325 325 325 323 322 319 317 316 316 316 316 315 315 315 314 312 311 309 308 307 306 306 305
316 315 316 317 316 314 314 314 313 316 317 319 319 320 321 321 322 323 323 326 327 326 324 320 318 317 318 318 318 318 316 315 315 315 315 315 314 313 311 309 308 308 307 307 306 305 303 300 298
319 317 318 318 316 314 315 315 317 316 318 319 319 320 320 321 321 321 322 320 319 317 316 315 315 315 315 315 315 314 312 310 310 309 308 309 310 310 310 309 308 307 307 305 300 297 296 296 297
321 319 318 318 315 313 314 317 317 316 316 317 318 318 318 318 317 317 316 316 315 315 315 315 314 314 313 311 310 310 310 310 310 309 309 310 309 309 308 308 306 304 302 300 297 297 295 296 298
320 317 318 318 316 317 318 314 314 316 317 316 317 318 318 318 317 317 317 317 317 317 316 316 315 313 313 312 312 312 311 310 310 309 309 309 309 307 305 304 302 301 300 299 299 296 296 298 298
318 319 318 317 317 319 320 319 314 316 317 316 316 318 319 318 318 318 317 317 317 317 316 316 316 315 313 313 312 311 311 310 310 309 308 307 304 302 302 301 301 300 299 298 296 295 295 295 295
317 317 319 322 321 321 319 322 319 317 316 316 316 318 318 318 318 318 317 317 317 317 316 316 315 314 313 312 312 311 310 309 307 304 302 300 299 300 300 300 299 295 295 295 295 295 295 294 294
318 318 316 324 321 317 318 322 319 316 317 318 318 318 318 318 318 318 318 317 317 317 315 313 313 313 312 311 310 309 308 305 303 302 299 297 298 299 299 298 296 294 295 295 294 294 295 294 294
317 317 315 317 315 315 317 318 317 316 316 316 317 317 318 319 318 318 318 317 316 314 313 313 312 311 310 309 308 306 303 303 302 298 297 297 297 298 298 298 294 295 296 295 295 294 294 293 293
315 315 318 314 317 320 317 319 318 317 317 317 317 319 319 318 315 315 316 314 313 312 312 311 310 309 308 307 305 303 301 299 299 298 297 297 297 297 298 297 295 293 294 294 293 293 292 291 291
316 316 314 315 314 316 315 315 312 316 315 315 316 316 315 314 314 314 313 314 313 311 311 308 307 306 305 303 303 301 300 300 299 298 298 298 298 298 298 297 293 292 293 293 292 291 290 290 289
316 317 313 309 314 312 311 311 314 313 314 315 315 313 312 313 312 312 311 311 310 310 308 305 304 303 303 302 302 301 300 300 298 298 298 298 298 298 296 293 293 293 293 292 291 290 289 289 289

GFSSGP_850_thetae_042.txt.gz
Theta_e
309 309 314 317 316 313 316 318 326 332 335 335 336 335 337 339 338 338 340 337 336 336 335 335 334 334 332 331 332 332 332 332 331 331 329 326 322 320 319 321 321 321 322 323 324 324 322 321 320
309 311 316 316 313 314 321 321 335 334 336 336 336 336 338 341 340 339 339 337 335 335 334 333 333 332 332 331 331 331 330 329 327 322 317 315 315 316 316 316 315 314 314 314 314 315 315 315 315
309 315 315 311 312 315 321 328 334 334 334 335 334 335 337 340 340 338 340 337 335 334 334 333 333 332 331 330 328 326 321 317 315 315 314 314 315 315 314 312 312 313 314 314 314 314 312 311 311
312 315 313 311 314 314 324 328 333 333 333 331 330 331 332 338 339 339 338 336 335 335 334 334 333 329 327 321 317 315 314 314 315 313 314 314 314 311 311 312 313 313 313 313 310 308 307 307 307
314 314 310 311 317 317 318 329 333 332 332 329 328 329 332 339 339 338 336 335 335 335 334 332 328 321 315 314 314 314 313 313 312 313 314 314 311 310 310 311 311 311 311 310 309 309 309 309 309
315 313 311 320 324 322 322 329 333 332 332 331 332 331 336 337 338 336 336 335 335 333 330 324 316 314 313 312 311 311 310 311 313 315 314 310 310 312 314 316 316 316 316 314 313 314 313 312 311
313 308 314 324 323 323 321 332 331 331 331 332 333 331 337 339 336 334 335 334 333 328 319 314 314 312 311 310 309 309 311 313 314 313 311 314 315 317 318 317 316 315 316 316 314 312 312 313 313
316 308 316 325 324 324 320 330 331 330 332 331 332 335 338 338 336 335 333 332 326 316 314 313 313 312 311 309 308 309 311 312 311 313 317 316 318 318 318 318 316 314 315 316 314 313 313 312 312
315 311 321 324 327 324 324 328 328 328 332 330 330 334 336 337 334 332 331 324 316 314 314 314 315 314 312 309 309 309 310 311 314 318 319 319 320 319 318 317 317 317 316 316 315 314 313 313 313
313 311 315 322 323 325 325 320 324 332 331 329 329 331 336 333 328 325 322 315 314 314 315 321 321 315 317 317 315 314 316 319 318 321 323 321 319 320 320 318 318 318 317 316 316 315 314 315 314
314 313 312 320 326 324 322 321 323 330 330 329 329 334 334 330 325 319 315 314 314 319 323 323 323 317 321 322 322 322 322 322 322 322 324 324 322 320 320 320 319 318 316 316 316 316 316 317 316
313 313 313 320 326 325 315 320 328 327 326 327 327 328 331 328 323 316 314 314 320 324 323 326 323 318 322 323 325 325 324 324 324 324 324 325 325 324 321 319 320 318 316 316 316 316 317 317 317
311 313 313 319 322 318 317 316 326 319 327 329 328 330 329 327 325 323 319 320 324 326 325 327 325 319 323 324 326 327 326 325 326 326 325 324 324 324 322 320 319 316 315 315 315 316 316 316 315
313 312 313 313 313 314 314 314 317 320 329 329 329 329 328 326 325 324 322 322 325 327 327 328 328 325 326 326 326 326 326 326 327 326 327 326 326 326 323 318 317 316 315 315 315 315 315 314 313
313 313 313 314 315 314 316 315 315 326 330 329 329 328 327 325 325 324 323 323 325 327 328 329 329 325 327 326 325 324 323 323 326 327 326 326 327 326 322 318 318 318 317 316 316 315 314 313 313
314 312 312 314 315 314 314 313 314 327 330 330 328 325 325 324 324 324 324 324 324 326 328 329 330 328 326 325 324 323 323 324 325 325 324 325 325 324 321 319 319 319 318 317 316 315 314 313 313
311 314 315 317 315 315 315 316 309 328 330 327 328 327 327 326 325 324 324 324 324 324 326 328 329 328 325 323 320 322 324 324 324 323 321 322 322 321 321 320 319 316 316 315 314 312 311 311 309
314 315 315 316 316 315 315 312 313 318 326 323 323 324 325 326 326 326 326 326 326 325 325 329 328 326 322 324 325 324 322 320 320 320 319 319 319 319 317 316 315 312 311 310 309 308 307 306 305
314 314 315 314 314 313 312 313 314 316 318 318 319 321 322 324 324 324 325 324 324 325 328 328 328 326 325 324 322 318 320 318 315 313 312 313 314 315 313 312 310 309 308 308 307 306 305 302 298
314 314 315 316 313 313 313 315 314 316 316 317 318 320 322 323 325 326 327 328 328 328 327 324 320 319 319 319 318 316 315 311 310 310 309 309 309 308 309 309 309 308 308 307 304 301 299 297 295
317 316 317 316 314 312 314 315 316 315 317 318 319 320 321 322 322 322 323 322 319 317 315 314 314 315 314 313 312 311 310 310 311 310 309 309 308 308 309 309 308 307 303 302 300 298 297 296 295
319 318 317 315 313 315 313 316 317 315 316 317 318 318 318 319 320 319 317 315 315 315 315 315 313 312 311 311 311 311 311 311 311 310 309 309 309 308 308 305 303 301 300 299 297 295 295 295 295
319 316 316 316 315 315 317 314 313 316 318 317 317 317 317 317 316 316 316 316 316 316 316 316 315 315 313 312 312 312 311 310 310 309 309 308 306 304 302 301 300 299 298 296 294 294 295 295 295
316 317 316 315 315 319 319 318 315 315 316 315 316 317 317 317 317 317 317 317 316 316 316 316 316 315 314 313 312 311 310 309 309 307 305 302 300 298 298 298 298 297 296 293 294 294 294 294 294
315 316 318 321 319 320 317 319 316 315 315 316 316 318 318 317 317 317 317 316 316 317 316 316 315 314 313 311 310 310 308 306 304 302 300 297 297 296 296 296 297 297 296 293 293 293 293 294 294
318 316 316 324 321 318 317 321 318 314 316 318 319 318 318 318 317 317 317 317 317 316 316 315 313 312 311 310 308 306 304 302 300 299 298 297 297 297 297 297 297 297 296 293 294 294 294 294 293
317 316 314 316 313 315 315 317 316 314 315 316 318 318 318 318 317 317 317 317 317 316 313 312 311 310 309 307 305 303 302 301 300 300 299 298 298 298 297 298 297 296 294 294 295 294 293 292 291
315 313 318 312 315 316 315 316 317 317 315 314 314 316 317 317 316 315 315 315 313 313 312 311 309 307 306 304 303 302 301 300 300 299 299 298 298 298 298 297 295 295 293 294 293 293 292 291 290
315 315 313 313 312 314 313 314 311 316 315 314 316 316 316 315 314 314 313 313 312 310 310 309 308 306 304 304 302 301 300 299 299 298 298 298 297 298 298 297 296 295 294 293 292 292 291 290 289
314 315 311 308 313 311 310 312 312 312 314 315 314 312 311 312 311 311 310 310 310 309 306 305 304 304 303 302 301 301 301 299 299 298 298 297 297 296 297 296 295 295 293 292 292 290 289 288 288

GFSSGP_850_thetae_045.txt.gz
Theta_e
312 309 311 317 319 319 319 320 325 336 338 336 336 337 339 339 339 341 339 336 335 337 335 334 334 336 335 335 334 333 332 331 331 332 330 327 322 320 319 318 318 318 319 321 322 319 317 316 315
309 309 315 315 318 317 326 322 336 337 337 336 335 338 338 342 340 339 338 337 336 335 335 334 333 333 334 334 333 332 331 331 330 327 317 314 315 316 316 315 313 313 314 314 315 315 315 314 314
309 312 316 317 317 321 327 334 337 336 336 335 334 335 338 339 339 339 338 336 335 335 334 333 333 333 332 332 331 330 329 327 319 314 313 314 315 314 312 312 313 314 314 314 312 309 307 307 306
310 314 312 317 317 317 325 336 334 333 332 331 330 330 334 336 337 334 339 335 334 333 333 332 333 332 332 330 328 323 318 315 314 312 313 315 312 312 312 312 313 313 311 309 308 309 309 309 308
313 313 315 316 321 321 319 334 334 333 331 328 328 329 334 336 336 338 338 335 334 333 333 333 332 330 328 322 318 315 314 313 311 313 315 312 311 311 311 312 311 311 311 310 311 311 311 310 310
315 312 316 324 326 323 328 333 331 332 331 330 330 331 336 338 337 337 336 335 334 334 334 331 328 323 317 315 314 313 311 310 312 315 312 311 311 313 315 316 316 316 315 316 313 313 313 312 312
315 315 320 325 326 327 328 332 331 332 331 332 330 336 337 337 337 336 335 335 335 334 330 325 318 315 313 312 311 309 311 313 315 311 311 314 316 318 316 316 316 316 315 313 312 313 313 312 312
315 314 326 326 326 325 327 330 330 330 332 332 333 335 337 338 336 335 335 335 333 329 320 315 313 312 311 309 309 311 312 314 312 314 316 317 318 318 317 316 316 316 316 315 314 313 312 312 312
314 316 325 327 327 327 327 326 326 330 331 330 330 335 336 336 334 334 334 333 328 318 314 313 312 311 310 309 309 310 312 311 315 317 319 319 319 317 317 317 317 316 316 316 315 313 313 313 313
315 317 320 324 327 328 325 326 325 331 331 329 330 334 337 336 335 333 332 327 317 314 313 315 315 313 311 309 310 310 311 314 319 320 321 318 318 319 319 318 318 318 317 316 315 315 314 315 315
314 317 316 323 325 326 326 322 327 332 332 330 331 336 336 334 331 331 327 317 314 314 315 320 318 318 318 319 316 317 321 320 321 323 323 323 322 322 320 321 321 319 317 315 315 316 316 316 316
315 314 316 325 325 320 322 320 328 331 326 329 330 334 333 330 324 324 317 313 314 316 321 323 320 322 324 325 325 325 325 324 325 325 325 326 326 325 323 322 321 320 317 316 316 316 316 316 316
314 313 313 318 323 319 320 321 327 325 326 327 330 329 329 328 323 318 314 314 315 322 324 326 322 323 324 325 326 326 326 326 326 326 327 327 327 326 325 322 320 320 316 316 315 315 316 316 315
313 312 311 313 320 319 316 314 323 320 328 327 328 329 330 327 322 316 314 314 318 324 326 327 326 324 326 325 326 326 327 326 326 326 325 325 325 326 325 322 319 317 316 317 317 316 316 315 314
313 314 313 313 313 314 315 314 315 324 329 328 330 331 330 327 322 319 316 317 321 325 327 328 329 325 327 327 327 325 324 324 322 324 323 323 324 325 325 322 319 318 319 318 317 316 315 315 314
315 314 316 315 314 313 315 316 311 329 328 326 326 328 328 326 324 322 323 323 323 324 326 327 328 328 328 326 324 321 322 321 321 323 323 322 322 322 323 321 320 319 318 317 315 315 314 312 311
315 316 316 316 315 315 316 315 313 326 327 326 324 325 325 325 324 324 324 324 323 323 324 326 327 328 328 325 323 320 320 321 323 322 320 320 320 319 319 318 316 315 314 312 311 309 308 308 308
317 317 316 317 316 315 315 316 316 318 323 321 322 325 325 325 325 325 325 325 325 324 323 324 326 328 325 325 321 320 323 320 318 315 314 313 313 313 314 313 312 310 309 309 308 308 307 304 301
314 315 316 315 314 316 316 317 317 317 319 320 320 322 324 324 325 325 325 325 324 324 325 326 327 324 325 325 322 318 317 313 310 309 309 309 309 309 308 308 308 309 309 308 306 302 300 298 297
315 316 317 316 314 316 317 319 318 318 317 318 320 320 323 325 326 326 326 327 327 327 327 326 323 324 322 319 317 316 313 310 310 311 310 310 309 308 308 308 308 308 305 302 300 298 297 296 295
318 318 317 318 315 315 317 318 319 318 318 318 318 320 322 324 323 322 323 322 317 315 314 314 314 313 313 314 313 311 310 311 311 311 310 309 308 308 307 306 304 302 299 298 297 296 295 294 294
320 317 316 316 316 320 314 319 318 319 320 319 318 318 320 321 321 320 316 314 314 314 313 312 312 312 312 311 311 311 311 311 311 310 309 308 308 306 303 301 298 297 296 296 296 295 293 293 296
319 316 317 316 318 318 320 319 317 319 322 320 318 318 319 320 319 315 315 315 315 315 315 315 314 313 313 312 312 312 311 310 309 309 307 305 303 300 297 296 296 296 295 296 296 293 292 293 294
317 319 319 318 320 323 321 322 323 320 320 320 318 317 318 317 316 315 316 316 316 315 315 315 315 315 314 313 312 311 309 307 305 304 302 300 298 297 297 297 297 296 296 296 296 293 293 293 293
318 320 322 322 324 322 318 321 322 317 316 320 319 317 317 316 316 316 316 316 316 316 315 315 315 314 313 311 310 309 306 304 303 301 300 299 298 297 298 297 297 297 297 296 294 293 294 294 294
319 319 325 324 325 323 318 324 322 317 316 317 318 317 317 317 316 316 316 316 316 316 315 315 314 312 311 310 308 306 304 303 301 300 299 299 299 299 298 298 298 298 297 295 295 293 293 293 293
319 320 316 319 315 320 318 319 317 317 316 316 318 318 317 317 317 317 316 316 316 316 315 313 312 310 308 306 305 304 302 301 300 299 299 298 298 298 298 298 298 298 296 295 294 293 293 292 292
317 315 321 318 320 317 316 318 320 320 319 317 318 318 317 317 316 316 316 316 316 314 312 310 308 307 305 305 304 302 301 300 300 299 299 298 297 297 297 297 297 297 296 295 294 293 292 292 291
318 318 315 316 315 316 317 316 315 318 319 319 318 316 316 315 315 313 313 312 310 309 308 308 306 305 304 303 302 301 301 301 300 297 296 298 297 296 295 294 296 297 295 295 293 293 292 290 289
315 316 316 318 316 315 316 317 313 314 315 316 315 315 314 314 312 310 309 308 308 308 306 305 304 302 301 300 300 300 298 295 294 293 293 293 292 292 292 293 296 295 295 294 293 292 290 289 288

GFSSGP_850_thetae_051.txt.gz
Theta_e
315 315 316 317 323 323 325 328 329 341 342 340 339 340 342 344 345 348 341 340 341 342 338 332 327 327 328 328 329 330 331 331 332 332 331 330 329 325 321 320 318 317 316 316 315 314 314 313 313
317 315 314 319 322 324 327 329 330 342 341 340 338 340 340 345 342 343 342 340 341 342 339 334 332 330 329 329 329 330 331 332 332 331 328 322 318 318 317 316 313 313 314 314 313 311 307 307 307
314 314 317 320 322 322 326 328 341 339 337 336 334 334 337 340 341 340 340 340 341 341 340 336 334 333 331 331 331 331 331 332 331 326 318 316 316 316 312 312 313 313 313 310 308 308 309 309 309
315 313 317 322 322 322 325 337 337 336 335 333 334 336 332 333 335 338 338 339 340 340 339 336 335 335 334 333 331 331 332 331 323 317 316 315 313 311 312 313 313 310 309 309 310 310 310 311 311
314 317 320 322 323 323 326 337 336 334 333 331 331 333 334 329 328 333 338 339 338 339 338 334 335 334 334 332 331 332 330 322 317 316 316 312 312 312 312 311 311 311 312 313 313 312 312 312 311
316 318 322 324 324 324 327 334 335 332 330 329 329 331 333 331 332 331 328 332 338 337 337 334 333 333 333 332 331 328 322 317 315 315 312 312 312 312 314 316 315 315 314 312 312 312 312 311 311
317 321 322 324 325 327 329 335 334 331 332 332 327 333 338 336 337 338 335 334 336 338 336 335 333 332 331 329 325 321 317 313 315 313 311 313 316 317 316 316 316 314 313 313 313 312 311 311 313
317 322 322 325 327 329 332 333 331 332 329 329 332 333 336 338 337 330 326 333 337 338 336 335 334 331 329 323 319 315 313 315 315 311 315 319 318 317 317 318 317 317 316 315 314 312 312 313 313
318 321 323 330 329 331 332 332 329 330 328 332 332 334 334 339 338 334 334 336 336 336 335 333 331 331 332 327 312 313 314 315 313 316 319 324 327 326 327 319 318 317 316 316 316 314 313 314 321
319 322 324 327 331 333 331 329 327 328 330 331 335 340 339 337 339 338 337 337 336 335 331 330 331 330 327 325 315 324 316 317 325 326 324 329 329 329 328 321 320 320 318 317 317 316 316 321 322
319 322 324 325 330 329 327 328 326 325 325 327 331 339 338 337 337 337 336 336 335 328 326 327 326 323 323 323 325 324 324 327 329 330 331 328 329 329 329 328 328 328 325 325 323 322 322 322 322
321 321 320 326 326 325 326 325 324 324 327 325 337 336 338 336 336 336 337 334 326 324 324 322 316 313 323 323 323 324 325 328 329 330 325 331 330 327 326 328 327 327 326 324 323 322 324 322 321
320 322 325 326 323 325 325 324 326 327 326 328 334 334 336 335 335 335 332 325 322 323 325 327 325 318 323 327 329 330 329 329 329 330 328 327 327 326 325 325 325 321 324 324 323 323 322 320 320
320 323 323 324 325 325 327 326 326 326 327 331 333 334 333 331 331 328 324 322 323 324 328 328 327 327 329 331 330 329 329 328 328 328 326 326 326 324 324 323 325 325 323 321 320 319 318 318 317
318 323 322 321 325 325 324 324 324 327 327 329 330 330 329 327 326 324 323 323 323 325 329 330 329 330 330 329 328 326 325 323 320 320 320 322 323 323 322 323 322 321 321 319 319 317 316 315 315
320 320 321 321 322 325 323 322 324 327 328 328 327 327 327 325 323 322 322 322 323 326 329 331 330 330 329 326 325 324 320 319 320 320 320 320 320 319 318 317 316 315 314 313 313 313 313 312 311
319 320 320 320 322 322 322 321 323 326 327 328 327 327 327 325 324 325 325 324 323 325 330 331 331 329 326 326 323 324 322 320 318 319 319 314 310 309 310 311 311 311 312 312 312 310 309 308 307
319 320 321 321 322 321 320 321 326 327 326 329 329 329 328 327 327 328 328 328 327 327 330 331 330 327 327 325 324 324 321 319 319 315 310 310 311 311 313 313 312 311 311 311 309 308 306 305 304
319 319 319 319 319 319 319 322 323 326 327 328 329 329 329 329 328 329 330 330 330 331 332 331 327 326 327 325 324 322 318 320 314 314 314 314 313 313 313 312 312 311 309 308 307 305 303 303 302
321 320 319 320 319 321 321 322 323 326 327 328 328 329 329 330 330 331 332 332 332 332 331 328 327 326 326 324 324 322 320 316 315 315 313 313 311 311 311 309 310 309 307 305 304 303 303 302 301
321 321 322 321 320 320 323 324 325 326 327 328 328 329 329 330 331 332 332 331 330 329 329 329 327 326 324 322 320 319 317 316 314 315 314 313 311 310 308 308 307 306 304 303 303 302 301 301 300
321 323 321 322 322 322 323 322 325 325 327 327 328 329 329 330 330 330 330 330 330 328 326 324 324 323 321 319 317 317 315 316 316 315 314 313 311 310 307 306 304 304 303 303 302 301 301 300 299
323 322 322 321 321 323 323 321 325 327 327 326 327 328 329 328 328 325 324 324 324 324 323 323 322 320 319 318 317 317 317 316 315 314 312 311 309 307 306 304 303 304 303 302 302 301 301 300 299
323 323 323 323 323 324 322 323 323 327 326 327 326 327 327 327 325 321 320 320 321 321 320 319 319 318 317 317 317 317 316 314 312 310 308 307 305 304 303 303 303 303 302 302 302 300 300 299 298
323 323 325 325 323 323 324 324 321 325 324 325 327 326 327 327 322 320 320 320 321 320 320 319 318 317 317 317 315 313 311 309 308 308 307 305 303 303 303 303 302 301 301 301 301 301 300 299 298
323 323 323 321 321 321 324 320 324 325 323 324 326 326 327 325 321 320 320 320 320 320 320 319 318 317 316 314 311 310 308 308 307 306 305 304 303 303 303 302 301 300 300 300 300 299 299 299 297
324 322 323 323 324 324 320 323 325 324 323 324 325 326 326 322 321 321 321 321 321 320 320 319 318 316 313 310 308 307 306 305 305 304 304 303 302 301 300 299 299 299 298 298 298 298 298 297 297
322 323 323 322 323 321 319 320 323 323 323 324 325 326 323 322 322 322 322 321 321 320 319 318 316 313 307 306 307 307 306 304 304 303 301 300 299 298 297 296 296 296 296 297 297 297 297 297 296
323 322 321 323 323 322 318 319 322 321 323 323 324 324 323 322 322 322 322 322 321 320 318 314 311 308 306 306 308 306 304 302 300 300 299 297 297 296 296 296 296 296 296 296 296 296 296 295 295
322 322 322 323 321 321 323 320 320 321 322 322 322 323 322 323 322 322 321 319 318 316 313 311 309 306 306 308 302 301 300 300 299 298 297 297 296 296 296 295 296 296 295 295 295 295 295 294 293

GFSSGP_850_thetae_054.txt.gz
Theta_e
312 314 316 318 319 322 322 324 327 333 339 340 339 342 344 343 347 347 342 342 344 338 327 326 327 329 332 331 328 328 330 332 332 331 330 329 326 323 320 319 317 314 313 313 313 313 310 307 307
315 320 317 316 319 321 323 327 337 344 339 337 336 341 343 344 344 341 342 343 342 337 328 326 327 328 328 328 329 330 331 332 332 330 328 322 319 318 317 313 312 313 313 312 309 307 308 309 309
314 317 316 317 319 322 323 341 336 340 336 336 336 337 339 342 341 342 341 342 341 336 333 329 328 328 328 329 330 331 331 331 331 325 318 317 316 314 311 312 313 312 310 308 309 309 310 311 311
316 316 315 319 322 322 322 338 331 336 336 336 334 334 334 336 339 340 340 341 340 340 335 333 330 330 330 331 331 331 331 331 323 316 316 316 313 311 312 312 311 310 310 311 311 312 312 311 311
316 316 316 319 322 323 325 336 333 337 333 333 336 335 332 338 337 338 339 340 339 338 336 335 334 332 332 332 331 331 331 324 317 315 315 312 311 312 312 311 312 312 313 312 312 312 312 311 311
316 316 318 322 323 325 324 336 333 332 331 330 330 333 334 329 337 337 336 334 337 332 330 335 335 334 333 332 331 330 324 318 315 315 312 311 312 312 314 315 314 314 312 313 313 312 311 312 314
316 318 319 322 324 326 332 333 332 330 329 332 330 335 333 335 332 330 331 334 335 329 334 334 334 333 332 331 329 323 319 315 315 314 311 312 316 316 316 315 315 314 313 313 313 312 312 313 314
316 319 320 322 323 334 333 330 331 332 332 331 332 335 335 336 335 334 332 333 329 327 334 334 333 332 330 326 322 318 314 315 315 311 316 319 317 317 317 317 316 316 315 315 314 313 313 313 316
317 318 320 323 329 334 326 330 330 330 330 330 333 328 332 336 332 329 331 331 333 330 333 330 329 325 321 318 315 314 315 315 312 316 322 326 327 328 327 321 317 317 316 315 315 315 314 318 323
318 319 320 325 328 330 327 326 329 329 326 332 337 330 337 337 332 326 325 331 333 332 332 333 332 332 327 318 314 315 315 315 320 320 328 329 330 330 324 326 326 327 324 323 324 322 321 323 323
318 319 321 330 328 328 327 326 327 327 328 325 337 339 339 339 333 327 327 332 325 331 331 332 329 328 326 323 325 318 325 329 329 325 331 329 326 329 328 327 328 326 326 326 323 323 324 323 321
319 320 324 327 328 325 328 329 326 326 327 329 339 337 337 337 334 334 333 335 331 328 328 324 320 324 324 321 324 324 325 329 329 328 326 327 326 327 325 327 327 328 326 324 324 324 323 322 321
320 321 325 325 324 324 325 324 322 327 327 335 336 335 335 336 336 335 332 328 325 325 322 317 313 318 320 326 325 327 327 329 329 328 328 326 326 326 326 323 323 323 322 324 323 323 322 321 320
320 321 324 324 325 325 327 326 325 327 329 331 331 334 334 334 325 334 327 323 323 325 327 324 319 322 328 328 329 328 328 328 327 326 325 324 324 324 325 325 324 325 323 322 321 319 319 317 317
322 323 323 323 325 321 323 327 326 328 330 329 330 331 329 329 331 326 323 323 324 327 329 327 328 330 330 328 329 328 328 326 324 321 320 321 321 322 322 322 321 320 317 316 315 314 313 313 313
321 322 321 320 322 324 323 323 326 327 328 329 329 328 328 327 325 323 323 324 325 329 330 329 330 331 329 328 326 326 325 324 321 320 319 319 319 318 314 311 310 310 311 313 312 311 310 308 308
320 320 321 322 321 323 323 323 326 327 327 327 327 327 325 324 324 323 323 323 325 329 332 331 330 329 328 325 323 324 321 318 319 319 318 319 311 311 312 312 312 310 312 312 311 310 306 305 304
319 320 321 321 320 323 322 321 324 326 328 327 326 326 326 323 324 325 324 324 324 328 332 332 330 327 328 325 324 324 323 323 321 318 317 310 311 312 312 313 313 312 311 310 308 306 304 302 302
321 321 322 321 321 320 320 321 323 324 326 328 327 327 327 326 327 328 328 328 328 327 330 332 330 328 327 326 325 324 321 321 318 318 316 312 313 313 312 312 311 310 309 307 306 305 303 302 302
320 321 319 319 319 319 320 321 321 323 324 327 329 328 329 328 329 330 331 331 330 331 332 330 329 328 326 324 325 324 321 319 316 315 312 313 312 312 312 311 309 307 305 302 303 303 302 301 301
322 323 323 321 319 320 321 320 322 323 325 326 327 328 329 330 330 332 333 333 333 332 332 330 327 325 325 325 323 321 317 316 315 315 315 314 313 312 311 309 307 303 301 302 303 303 302 302 300
323 322 322 322 323 319 322 323 325 324 326 327 327 327 329 330 331 332 333 332 332 330 329 328 327 326 325 322 320 319 317 316 315 316 315 314 313 311 310 307 304 303 304 304 303 303 302 301 301
323 320 324 321 320 323 322 323 325 324 325 327 328 329 329 330 331 331 333 330 330 329 329 327 324 324 322 319 318 317 317 317 317 315 314 313 310 308 306 305 304 304 304 303 303 302 302 302 301
324 324 324 323 324 325 323 325 325 324 326 327 327 328 329 330 330 328 329 328 327 326 324 324 323 321 320 319 318 318 318 316 315 313 311 309 308 306 304 304 304 303 303 302 301 301 301 301 299
322 323 326 329 330 327 322 324 326 325 325 327 327 327 329 328 327 324 324 323 323 323 322 321 320 319 318 318 318 318 317 316 312 309 308 307 306 304 303 303 303 303 302 301 300 301 301 300 297
325 321 327 328 330 327 325 322 325 325 324 327 326 327 328 328 324 322 321 321 322 321 321 319 319 318 318 317 315 313 312 309 309 308 307 306 304 304 303 303 302 301 300 300 299 299 299 299 298
323 323 323 322 323 327 322 320 326 324 323 325 327 327 328 328 324 322 321 321 322 321 321 320 319 318 317 315 312 310 309 310 309 306 305 304 303 302 300 299 298 297 297 296 296 297 297 298 298
321 321 324 322 324 324 320 321 326 324 323 324 326 327 327 327 323 322 321 321 322 321 321 320 319 317 315 313 310 308 309 307 305 304 303 301 301 299 298 297 296 296 296 296 296 296 296 297 296
323 322 321 320 325 328 329 322 325 323 323 323 325 326 327 325 323 322 322 322 322 321 320 320 319 315 312 308 307 307 307 306 303 301 300 299 298 297 297 296 296 296 296 296 296 296 296 295 295
321 322 322 329 322 325 327 323 321 322 323 322 322 324 325 323 323 323 323 322 322 321 319 318 315 310 308 307 308 309 304 301 300 300 298 298 297 297 296 296 296 296 296 296 295 296 295 294 294

GFSSGP_850_thetae_060.txt.gz
Theta_e
311 312 313 315 312 309 313 314 316 329 339 340 341 340 342 343 343 340 341 342 328 331 334 337 336 335 333 327 324 327 329 329 327 321 317 315 314 313 311 311 311 311 308 308 310 311 311 310 317
310 315 319 318 309 310 310 315 327 337 336 338 338 340 341 343 341 340 341 336 328 330 332 336 331 334 331 325 327 330 330 329 324 315 313 314 313 310 311 311 310 309 310 311 312 311 311 311 321
312 314 317 310 305 309 311 333 335 334 334 336 337 338 339 341 342 341 342 332 327 328 329 332 331 331 327 326 330 331 331 327 318 313 313 312 310 311 311 310 310 311 312 312 311 311 312 311 316
312 313 313 308 310 311 317 326 337 336 334 334 333 333 337 339 341 341 341 336 333 327 331 334 333 331 326 330 331 331 330 321 313 313 312 310 311 311 311 311 312 312 312 312 311 313 314 313 314
315 314 309 307 310 326 331 332 331 332 334 333 332 332 336 340 340 342 341 334 327 328 331 333 331 327 330 331 331 330 325 314 313 312 310 311 312 312 313 313 313 313 312 312 312 314 314 315 315
316 311 308 309 314 333 331 330 330 329 331 331 331 332 335 338 340 340 338 331 326 331 331 330 329 330 331 331 331 327 316 313 313 310 310 312 313 314 314 314 313 313 312 312 312 313 314 314 316
313 308 309 311 312 334 332 330 330 330 328 329 333 333 335 338 338 337 337 331 328 329 329 330 331 328 328 330 328 318 314 312 312 310 312 314 314 315 315 315 314 314 313 313 313 313 314 319 320
315 308 311 311 314 329 329 329 331 331 329 331 332 333 332 336 338 337 337 332 329 330 331 327 326 326 331 329 319 314 311 313 310 312 315 315 315 315 315 315 315 315 315 315 315 314 315 318 320
315 310 310 312 320 329 328 329 330 330 329 326 330 332 332 336 335 335 332 332 330 330 328 326 326 330 329 320 315 311 311 311 313 316 317 321 322 321 322 325 324 324 322 322 321 321 321 321 321
311 308 311 319 326 326 325 327 328 328 327 328 331 333 330 332 332 333 330 332 330 329 325 327 328 328 321 316 311 310 313 314 318 320 323 327 324 325 326 327 327 326 325 322 322 323 322 322 321
313 311 319 326 326 326 324 327 328 327 325 326 327 333 332 330 330 329 330 327 326 323 322 326 324 325 317 313 310 312 312 325 329 329 328 327 324 325 328 327 327 326 325 324 323 323 322 322 322
314 317 323 327 326 325 324 327 327 327 328 329 325 330 332 331 329 327 326 323 323 323 328 326 325 318 313 310 311 313 316 324 329 329 328 326 327 329 328 327 326 326 324 324 324 323 322 322 321
314 325 326 326 324 326 325 323 323 327 332 330 327 331 332 330 329 325 323 323 324 326 329 328 327 322 314 313 314 317 325 324 327 328 328 329 329 328 326 325 324 323 324 323 323 323 322 321 319
320 324 323 324 325 324 324 322 324 329 324 328 328 331 329 329 328 326 327 326 327 328 329 329 326 322 319 319 322 324 326 325 325 326 325 326 326 325 324 324 323 323 323 322 320 313 310 309 308
323 322 321 321 323 322 324 322 323 326 326 329 331 331 329 326 326 324 324 327 329 330 330 328 324 323 323 322 324 325 327 328 329 328 326 322 320 321 321 322 322 321 318 310 310 308 307 305 303
318 317 319 321 322 322 322 324 322 324 330 332 332 331 329 327 322 326 326 328 329 328 321 322 322 322 323 323 324 325 327 327 327 325 320 319 318 318 320 318 312 311 310 309 308 306 304 302 301
317 318 319 323 321 321 320 321 325 327 330 330 331 330 328 324 323 324 328 328 328 324 316 317 319 323 326 325 326 327 327 326 323 320 319 318 315 311 311 311 311 310 310 309 308 305 302 301 300
318 319 319 320 322 321 320 319 322 326 327 326 328 330 327 325 321 324 328 327 324 326 318 316 320 323 328 327 327 327 326 324 321 321 317 314 312 312 312 312 311 310 309 308 305 301 300 300 300
319 319 318 317 317 321 319 318 319 323 324 323 327 329 327 324 323 324 325 324 324 328 324 319 323 326 328 327 326 326 323 323 323 320 314 312 313 312 312 312 311 310 308 304 301 301 300 299 299
321 321 320 318 316 319 316 318 321 322 324 324 323 322 324 326 326 326 324 324 327 328 328 327 328 328 328 328 325 323 324 323 322 319 315 314 313 312 313 312 311 308 305 303 302 301 300 299 300
321 320 319 318 318 317 315 319 320 322 323 323 323 323 322 322 322 323 325 325 328 329 329 329 329 329 329 328 326 323 322 320 317 316 314 312 312 313 314 313 309 308 306 303 302 302 302 302 302
320 320 320 320 317 315 317 318 319 319 324 323 321 324 323 323 324 327 327 327 328 330 330 330 329 329 328 326 323 319 316 316 316 315 314 314 315 315 314 311 310 308 306 303 303 303 302 302 301
321 320 321 321 319 319 320 317 316 319 321 323 323 322 324 325 326 326 326 327 329 330 330 331 330 327 325 324 322 322 316 316 315 315 315 315 315 312 309 308 307 305 304 303 303 303 302 301 299
319 320 321 320 319 322 321 319 317 318 321 321 323 325 326 327 328 328 328 329 330 331 331 330 325 324 325 325 323 320 317 316 315 315 315 314 311 310 308 307 304 304 303 303 303 302 300 298 299
320 319 320 320 320 322 321 321 319 318 318 318 321 324 326 327 329 330 331 331 331 330 329 324 325 326 325 321 321 320 317 316 316 315 315 313 310 307 305 306 305 303 303 302 300 298 296 295 295
321 319 319 322 322 320 323 323 322 320 320 323 324 326 326 328 329 331 332 331 329 327 327 324 325 326 320 319 319 318 317 316 315 313 309 307 307 308 311 308 304 302 302 298 295 293 293 293 294
320 321 321 323 320 319 318 320 321 321 320 321 322 328 329 329 330 332 332 329 326 326 327 326 327 322 320 319 318 317 317 316 315 312 310 309 309 308 304 303 301 300 296 294 293 292 293 294 295
318 319 322 321 318 318 317 318 322 322 324 321 321 325 329 330 331 331 330 329 327 326 324 322 321 321 320 320 318 318 317 316 311 309 310 310 307 303 300 300 298 296 296 294 293 293 294 295 295
318 319 319 318 316 318 318 317 316 319 322 321 321 325 328 328 328 328 328 327 326 325 324 323 322 321 319 318 318 317 316 311 308 309 308 308 301 300 299 298 297 297 295 295 293 294 294 294 294
318 319 318 317 318 317 314 316 315 317 318 323 323 325 327 327 327 325 325 325 324 322 321 320 320 319 319 318 316 313 311 309 308 302 304 301 299 298 298 297 297 296 295 294 295 295 295 295 294

GFSSGP_850_thetae_063.txt.gz
Theta_e
312 311 312 314 311 309 313 313 314 316 334 339 340 341 341 340 339 338 340 335 332 335 339 338 336 335 331 324 324 327 328 327 324 318 314 312 312 310 310 311 309 309 311 311 311 310 319 319 322
310 315 319 315 308 310 309 311 328 328 335 340 338 337 341 342 339 342 339 338 330 336 339 337 336 334 328 324 328 329 329 326 319 314 312 311 310 311 311 310 310 312 312 311 311 311 318 320 320
312 313 317 308 305 308 309 319 333 333 333 335 337 338 338 342 339 339 341 335 332 336 338 337 336 333 326 327 330 330 329 322 313 312 311 310 311 311 311 311 312 312 311 311 311 311 314 319 319
313 313 311 308 310 309 320 326 332 334 333 333 334 332 337 339 339 340 339 331 341 338 338 337 335 331 325 329 331 330 326 315 313 312 310 311 311 311 312 313 312 312 312 314 313 315 315 318 319
314 313 307 307 309 319 330 329 330 331 333 331 331 334 336 340 340 341 332 332 334 335 337 336 334 327 328 331 331 329 322 313 313 310 310 312 312 313 313 313 312 312 312 314 314 314 315 316 319
315 310 306 309 310 332 331 330 330 329 329 330 332 332 336 339 340 340 332 330 332 332 335 335 330 328 331 330 329 323 315 312 311 310 311 312 313 313 313 313 312 312 312 313 313 314 315 317 316
311 307 309 310 310 321 331 330 329 329 328 331 332 331 336 337 339 338 333 330 333 333 334 331 330 331 330 330 328 319 313 313 310 311 312 314 314 313 313 313 313 313 312 312 313 315 318 317 319
314 307 310 310 310 315 329 329 330 330 328 331 331 331 334 338 337 336 337 329 333 333 332 330 331 328 327 325 322 314 312 311 310 313 314 315 315 315 315 315 315 315 315 314 314 315 318 320 320
314 309 310 311 315 321 328 329 330 329 329 328 330 331 333 335 337 336 334 330 331 330 330 329 323 323 326 326 316 312 313 311 313 315 316 317 317 320 320 322 320 320 320 320 319 319 319 320 320
309 307 310 311 322 326 326 327 328 328 327 328 333 332 336 335 335 335 333 330 328 330 326 324 326 325 329 318 313 313 311 313 315 321 321 324 323 325 325 325 324 324 323 322 322 321 321 321 320
311 311 310 325 327 326 324 326 327 327 325 326 332 335 335 334 333 332 331 330 328 327 323 323 319 318 318 316 313 313 313 316 321 324 327 325 325 326 326 326 326 325 324 323 322 322 322 322 321
313 312 317 323 325 324 324 326 326 325 326 327 331 331 332 331 330 331 330 329 326 322 320 322 323 326 323 314 314 312 317 321 325 326 326 326 323 324 327 327 326 326 324 323 323 323 323 322 320
312 322 324 326 326 325 324 324 323 326 328 327 332 331 330 329 329 326 325 321 322 320 319 322 324 327 318 314 313 315 323 326 326 327 327 326 325 326 327 325 325 324 324 323 323 322 321 320 316
320 322 321 324 324 324 321 322 323 328 329 329 329 330 329 328 326 323 323 324 321 322 324 326 325 319 313 314 315 316 319 322 326 326 328 326 327 326 325 325 324 323 323 323 321 315 310 307 306
322 320 320 322 323 321 322 322 323 325 329 329 327 322 328 327 323 321 323 323 323 324 328 328 326 319 315 318 317 321 321 321 322 325 326 326 325 323 323 323 323 322 319 311 309 307 306 305 303
316 317 322 320 321 322 321 323 322 325 330 330 328 322 328 327 325 323 322 323 325 327 328 328 327 322 321 322 322 323 324 326 328 328 326 321 320 320 321 322 320 311 310 309 309 308 306 302 300
314 316 320 322 320 320 319 322 323 325 331 331 330 329 328 328 327 325 322 326 327 328 329 329 325 322 323 323 322 324 327 329 329 325 320 318 318 318 317 313 311 310 310 310 309 305 302 300 299
317 317 318 320 319 320 320 319 322 324 330 331 331 330 328 327 325 325 323 326 327 329 328 328 325 322 322 324 325 326 327 327 323 320 319 317 314 312 311 311 311 311 310 309 305 303 301 299 299
320 319 318 317 315 320 319 318 318 325 326 328 330 330 329 325 321 324 327 327 328 328 327 323 317 319 323 325 327 327 327 325 321 320 318 314 313 312 312 312 312 312 309 306 304 303 301 300 300
320 320 319 318 316 318 317 318 316 321 323 327 329 329 328 326 324 322 326 327 327 327 324 319 316 319 325 327 327 326 326 324 322 320 317 316 314 313 312 313 313 310 308 306 305 303 302 301 301
319 320 319 319 316 317 315 318 318 322 323 324 328 328 328 324 323 321 324 328 328 327 325 318 317 321 324 327 327 326 324 322 322 320 318 316 314 312 312 313 310 308 306 305 305 303 302 302 302
320 318 318 319 315 317 316 318 318 320 324 321 324 326 327 325 323 322 324 326 324 324 326 326 323 324 326 328 327 326 324 324 322 319 316 313 313 313 313 310 308 307 305 305 305 303 302 302 302
319 319 319 320 318 318 319 316 315 317 324 323 320 322 323 326 325 324 323 323 324 323 325 328 328 328 328 328 327 325 322 318 316 316 314 314 314 313 310 308 306 306 305 305 304 303 302 301 299
319 320 318 317 317 318 319 317 316 317 320 324 322 321 321 323 323 323 323 323 323 324 326 328 328 328 328 328 327 324 321 316 315 315 314 314 313 312 310 308 306 307 310 306 303 302 300 297 295
318 317 318 318 318 319 319 319 318 317 316 317 321 322 322 322 323 323 323 324 324 326 328 328 328 328 328 327 324 323 322 317 316 315 315 314 313 311 309 305 309 309 304 302 301 298 294 293 292
320 317 317 321 320 317 320 322 319 319 319 318 319 322 323 324 324 326 327 327 328 329 328 328 328 326 324 324 324 322 320 318 316 315 315 314 311 311 308 310 308 303 302 299 296 294 293 292 293
320 320 318 319 317 319 317 316 316 317 318 320 323 322 324 325 325 326 328 328 330 330 328 327 324 324 325 325 323 320 321 318 316 315 311 311 308 309 308 304 301 300 298 297 296 294 293 293 294
317 318 320 318 319 318 315 316 316 317 320 320 321 325 324 326 327 327 328 329 330 329 327 325 323 324 325 322 320 319 318 316 314 313 310 310 309 306 301 300 299 298 297 296 294 294 293 294 294
319 318 317 317 314 317 317 316 313 318 318 320 318 324 327 327 327 328 329 330 330 328 325 325 325 325 324 320 318 318 317 315 312 309 309 310 309 301 300 298 298 297 296 294 295 293 293 294 295
317 317 316 315 317 315 314 315 313 315 316 320 321 322 326 329 329 329 330 331 329 327 326 325 325 324 322 320 319 317 315 312 309 309 312 303 301 299 298 297 297 295 295 295 294 294 294 295 295

GFSSGP_850_thetae_066.txt.gz
Theta_e
311 311 313 315 311 308 311 312 314 315 322 339 339 340 338 339 339 338 339 337 330 337 338 335 332 330 326 322 321 324 326 324 320 319 318 315 312 310 310 308 309 311 310 311 315 317 320 321 323
310 316 318 314 308 308 307 310 322 332 333 338 337 337 340 341 339 337 336 333 333 339 339 334 332 331 325 322 325 326 326 321 316 313 312 311 310 310 309 310 311 311 311 312 319 320 320 320 322
310 316 316 305 303 308 308 310 329 332 333 335 336 337 337 339 338 337 336 334 336 340 339 334 333 330 324 324 328 327 324 315 313 312 311 310 310 309 311 312 311 310 311 312 316 318 318 317 316
312 314 310 306 310 308 309 325 327 333 332 333 334 333 337 337 339 338 338 337 341 339 338 335 334 328 323 328 329 327 320 312 312 311 310 311 309 311 312 311 311 312 313 315 316 316 316 316 316
313 312 306 307 308 309 329 329 328 330 331 331 330 334 336 338 340 338 337 336 335 338 337 335 334 327 326 330 329 323 313 313 311 310 311 310 311 312 312 311 313 313 313 314 315 315 316 317 318
313 309 306 309 309 318 329 330 329 328 329 331 333 333 336 340 340 339 337 336 336 338 336 335 333 327 330 330 325 317 313 312 310 311 311 312 312 312 311 311 313 313 314 315 315 316 316 316 317
310 307 309 309 309 310 329 329 328 328 328 330 332 331 335 338 338 339 337 337 336 334 336 334 330 329 330 322 321 318 313 311 311 311 312 313 312 313 312 311 312 312 313 314 317 317 317 319 319
313 306 310 309 310 311 327 329 330 329 327 330 330 331 335 337 338 336 332 332 333 334 335 331 329 328 324 325 320 314 312 310 311 312 314 313 313 314 314 313 313 313 313 313 315 318 320 320 320
313 309 309 311 312 314 328 328 329 328 328 328 331 332 333 335 337 335 332 332 332 333 333 330 328 325 320 322 316 313 311 311 313 314 314 315 315 315 315 315 316 316 316 317 317 319 320 321 321
309 307 309 310 311 325 326 327 327 328 326 331 331 333 335 335 336 334 332 332 332 332 331 330 325 321 321 323 316 312 311 313 315 315 316 317 319 320 322 321 321 321 321 321 321 321 321 321 321
309 310 309 312 323 325 324 325 326 326 325 328 332 334 334 332 332 332 331 331 330 328 324 322 322 324 326 319 313 312 311 315 316 320 321 322 324 324 325 325 324 324 323 323 322 322 322 321 321
312 311 311 322 325 323 322 326 326 324 327 327 331 332 331 330 333 331 330 328 327 325 321 320 319 318 322 318 314 312 314 316 323 324 324 323 325 326 326 326 325 325 324 323 323 323 322 322 321
310 317 321 324 324 325 325 323 323 327 327 329 331 330 331 330 330 330 328 325 325 325 323 319 318 319 320 317 314 313 318 322 324 327 327 324 323 326 326 325 326 324 324 323 323 322 321 320 314
319 320 322 324 325 324 321 321 322 329 330 330 330 329 328 328 328 329 327 320 323 323 321 321 323 325 327 315 314 315 319 326 326 326 326 326 326 325 325 324 324 323 323 322 321 317 310 307 305
321 321 320 322 322 321 321 322 324 330 327 322 328 327 322 325 325 325 324 319 320 320 321 322 324 326 324 315 313 319 327 326 326 327 327 326 325 325 324 324 323 323 322 318 310 308 307 304 302
319 316 321 319 319 320 320 322 323 329 326 318 324 328 324 328 326 324 322 321 319 320 324 326 325 322 316 315 317 320 321 323 325 325 326 326 323 322 321 321 322 320 311 309 310 309 305 302 301
312 316 318 320 319 319 319 322 321 328 328 325 324 326 327 326 323 323 323 322 322 324 326 328 329 324 317 319 323 325 325 324 324 327 326 323 320 318 319 320 316 310 310 310 309 306 304 302 299
317 317 317 318 317 319 319 319 321 325 330 328 326 326 328 327 324 322 323 323 323 325 326 327 328 326 321 322 324 324 326 326 327 327 321 318 318 318 317 312 311 311 311 310 308 306 304 301 300
317 318 318 315 315 318 318 318 322 322 327 329 328 328 328 327 326 325 323 324 325 326 328 328 329 326 323 323 324 323 325 327 326 322 319 319 317 314 311 311 311 312 311 309 307 305 303 302 301
319 319 318 317 315 316 316 317 316 322 326 327 330 330 329 327 326 326 324 323 323 326 328 328 327 326 323 322 323 324 326 326 324 321 320 316 313 312 312 312 313 310 307 307 306 305 304 302 302
318 319 318 318 316 316 315 316 317 319 325 326 327 329 330 328 325 324 324 325 324 324 324 325 325 322 321 320 324 326 326 325 321 321 319 316 314 312 312 312 310 307 307 306 306 306 304 302 302
319 317 317 318 315 316 314 316 315 318 323 321 323 327 329 329 327 322 320 323 322 322 324 325 325 321 320 321 324 326 326 324 323 322 320 317 314 312 312 312 308 308 307 308 308 305 303 302 301
318 318 319 318 316 316 317 314 314 319 323 323 321 325 328 328 328 324 321 322 323 324 325 326 325 321 320 321 325 326 325 324 323 322 319 315 313 313 312 312 309 308 307 309 309 303 302 300 296
317 319 315 314 316 318 317 316 315 316 321 322 322 322 325 328 328 325 323 322 323 324 327 326 325 323 319 323 326 326 325 324 320 319 316 314 313 313 313 311 311 309 308 310 307 302 300 295 293
317 315 316 317 317 319 317 318 317 316 315 317 320 322 323 327 327 326 323 322 322 324 325 324 324 325 325 325 327 326 324 323 318 315 315 314 314 314 313 311 306 306 309 305 302 298 295 294 292
318 316 316 320 318 317 316 320 318 317 318 318 318 320 322 323 325 325 325 323 323 323 324 324 324 325 326 326 327 326 325 322 320 316 315 314 314 313 312 309 308 309 302 300 297 296 295 293 292
319 318 315 317 315 318 316 314 312 315 318 320 322 318 320 321 322 324 323 323 323 323 324 325 326 327 327 327 327 325 323 321 319 317 316 315 314 312 309 310 309 303 299 297 297 296 294 293 293
317 316 318 316 320 318 314 314 314 315 316 318 322 321 320 321 322 322 322 322 322 323 326 327 328 327 328 326 324 323 321 320 320 319 316 315 312 309 310 310 302 299 297 297 296 295 295 293 294
318 317 315 315 313 316 316 314 311 315 316 317 318 321 323 323 323 323 323 323 323 325 327 328 325 324 323 322 323 322 321 320 321 318 315 313 309 311 308 303 298 297 297 295 295 295 294 294 294
315 316 315 316 316 314 312 314 312 311 312 317 319 321 322 324 325 325 325 324 326 328 327 327 324 323 323 323 324 322 320 318 316 311 308 309 310 307 302 298 298 297 295 295 294 294 294 294 294

GFSSGP_850_thetae_069.txt.gz
Theta_e
311 310 313 315 316 315 315 316 316 317 320 337 339 339 339 339 339 342 339 334 337 339 338 329 327 325 322 320 320 321 323 324 324 322 320 319 314 311 310 308 310 310 310 314 320 321 322 324 324
310 314 317 314 315 315 314 313 321 328 331 336 336 339 341 341 339 336 336 333 339 339 337 330 327 325 321 320 323 325 324 321 318 317 315 312 310 309 308 310 311 312 314 316 319 320 323 323 324
311 317 316 313 311 314 314 312 324 327 332 334 336 336 338 340 337 337 336 335 342 339 336 330 327 324 321 323 326 325 321 315 314 312 311 311 309 309 311 311 311 313 317 318 318 317 317 319 319
312 314 310 314 314 313 312 316 330 333 332 333 335 336 338 338 339 336 336 336 342 339 336 331 328 323 323 326 327 323 315 313 313 310 311 309 309 311 311 311 311 312 315 316 316 315 316 317 318
313 312 314 313 312 311 316 328 329 331 331 331 330 336 337 337 338 337 336 339 340 338 335 332 329 324 325 328 326 317 313 313 311 311 309 309 311 311 311 312 314 314 314 315 316 317 317 317 319
314 309 313 314 312 312 325 330 329 329 329 331 334 335 335 338 338 337 337 337 335 338 335 332 331 326 328 329 318 312 312 310 311 311 309 311 311 311 313 313 313 314 314 314 315 316 317 318 318
315 314 314 312 312 313 321 329 329 329 329 331 331 334 334 335 338 337 336 336 337 337 335 333 330 328 330 319 314 313 312 310 311 311 311 312 311 311 313 313 314 314 315 316 317 318 319 319 319
313 313 312 312 314 315 321 329 329 329 329 330 330 333 335 337 337 337 336 335 335 335 334 332 329 331 324 321 316 313 312 311 310 311 312 312 312 311 312 313 313 314 315 316 319 320 319 319 320
313 315 315 315 313 316 327 329 329 328 328 329 331 331 333 336 337 336 336 335 335 334 333 331 331 326 324 322 319 313 311 310 311 313 312 313 312 312 312 312 313 314 314 318 320 320 320 321 320
313 314 315 314 313 322 327 328 327 328 328 331 332 331 336 335 335 333 331 332 333 333 331 330 327 324 323 319 315 312 310 311 313 313 313 314 314 314 314 315 317 318 320 320 321 321 321 321 321
311 316 313 313 313 325 325 326 326 327 328 328 331 334 335 335 333 333 332 333 332 331 330 327 320 318 316 315 315 313 312 314 314 315 315 316 318 320 320 321 321 322 322 322 322 322 322 321 322
314 312 312 315 323 323 324 325 326 324 327 328 331 333 331 333 333 332 331 331 328 326 326 320 320 317 313 313 314 312 314 315 315 316 318 321 323 324 325 325 325 324 323 323 323 323 322 322 321
312 316 321 318 323 323 324 323 325 328 328 328 332 331 330 329 329 330 329 326 324 324 322 321 319 320 323 318 313 312 315 315 318 322 323 324 325 325 326 326 325 325 324 323 323 322 322 319 311
318 320 323 324 324 323 321 322 322 328 329 329 328 329 328 329 328 328 327 325 322 321 321 321 318 317 319 320 316 312 316 323 324 325 326 324 323 326 325 324 325 324 323 323 322 320 311 308 306
320 323 321 322 323 322 321 324 326 328 329 330 329 328 329 329 328 327 326 324 323 323 318 318 318 322 326 323 316 314 318 324 326 327 326 325 324 324 324 324 324 323 322 321 313 308 308 306 303
320 319 323 320 321 320 322 324 326 328 327 329 328 327 325 326 326 324 323 323 324 320 318 319 323 323 326 322 316 315 319 326 324 324 324 324 325 324 323 322 323 322 317 309 310 308 306 305 303
316 319 320 320 320 320 320 323 324 328 326 324 326 323 326 327 325 323 323 322 320 319 320 323 324 325 324 317 314 317 325 325 322 323 325 325 323 321 320 322 320 313 310 310 310 309 308 305 301
319 319 318 319 319 320 320 321 323 326 328 325 326 326 327 327 324 323 320 320 321 321 322 326 328 326 320 316 318 323 324 324 323 324 325 324 322 318 319 320 314 310 311 311 310 309 308 305 302
318 319 320 318 317 318 319 320 324 325 328 328 327 326 325 327 323 322 323 322 320 320 323 326 328 328 324 317 322 324 325 324 324 324 325 321 318 318 318 312 311 311 312 310 309 309 308 305 303
319 320 320 319 317 318 318 319 321 324 327 328 328 327 326 325 326 323 322 323 322 322 323 325 327 327 327 322 321 323 323 324 325 324 320 318 318 316 312 311 311 312 311 309 308 307 306 305 304
320 320 320 320 317 316 317 319 318 320 324 327 328 328 328 327 325 325 324 322 323 324 325 326 328 327 327 325 322 323 324 325 325 321 319 319 316 313 312 312 312 312 309 308 308 308 308 306 303
320 318 318 319 319 320 315 320 317 319 323 325 327 328 329 329 328 325 325 325 325 323 323 326 327 327 325 325 323 322 324 325 324 323 321 320 315 313 312 312 312 310 308 306 309 308 306 304 301
320 318 319 319 318 318 318 319 319 318 321 323 324 326 328 328 328 327 325 323 324 325 324 324 326 327 326 324 323 322 325 325 324 322 320 318 315 313 312 312 312 309 308 308 309 308 304 301 298
317 319 317 317 319 323 319 319 321 320 321 322 322 324 325 327 328 328 326 323 321 321 324 325 325 326 326 325 322 320 325 325 324 322 320 318 315 314 313 313 312 308 309 308 309 304 301 297 295
318 319 321 322 323 323 319 320 321 319 318 318 320 322 323 325 326 327 328 325 322 321 322 324 325 325 326 325 323 321 322 324 324 323 321 319 316 314 313 313 311 309 306 309 308 301 297 296 294
319 320 323 320 321 320 317 322 321 318 317 318 318 319 318 322 325 326 327 327 324 322 321 322 324 326 324 324 324 321 324 325 323 320 317 316 315 314 313 312 311 308 310 308 301 298 297 295 294
320 321 317 319 317 322 320 318 317 315 318 319 321 322 318 319 321 324 326 327 326 323 322 322 323 324 323 324 324 325 325 325 323 321 318 315 315 314 313 310 308 310 309 302 299 297 296 295 294
319 319 322 320 321 321 318 316 319 319 318 319 322 323 322 318 320 321 323 326 326 325 323 322 322 323 324 325 325 326 326 325 322 321 320 315 314 312 309 308 310 308 300 298 297 296 295 295 294
320 320 317 318 319 322 321 320 317 318 318 319 320 320 321 322 321 321 321 322 323 323 324 323 323 325 326 326 327 326 325 322 322 321 320 315 313 309 309 310 309 299 298 298 297 295 295 294 294
317 320 319 324 320 317 318 319 316 316 315 314 318 319 320 321 322 323 322 322 323 323 323 323 324 326 323 325 325 324 323 323 322 321 318 313 309 312 310 309 301 299 298 296 295 295 294 295 294

GFSSGP_850_thetae_072.txt.gz
Theta_e
312 311 311 316 319 318 319 319 319 321 325 324 329 338 340 341 339 342 340 340 341 341 335 330 330 332 335 335 335 335 335 328 322 324 325 324 319 312 310 308 309 310 311 318 320 322 323 325 324
310 313 316 317 317 319 319 318 321 326 327 334 334 336 337 339 342 339 339 339 342 341 336 333 328 328 333 335 335 331 322 322 325 325 322 318 312 310 308 309 310 313 317 319 321 323 323 323 320
311 317 318 319 318 318 318 318 321 329 330 335 329 333 337 341 339 339 339 339 340 340 336 332 325 324 324 324 321 321 324 324 322 319 315 311 310 308 310 311 313 315 318 318 321 323 322 320 318
314 315 315 317 318 317 317 319 327 333 332 334 335 332 339 338 341 338 339 338 341 339 338 328 324 322 321 321 323 325 322 319 316 313 310 310 309 310 311 312 316 318 317 317 317 318 319 318 318
313 315 317 317 317 317 317 320 327 333 333 334 334 335 332 337 337 337 338 338 341 339 338 327 324 322 322 325 325 321 316 314 312 310 310 309 310 311 311 312 315 316 317 316 317 317 319 318 318
317 316 317 317 317 318 318 324 329 332 333 334 335 334 328 337 337 338 339 340 341 338 337 328 325 324 326 327 322 315 313 311 310 310 309 310 311 311 311 312 314 315 317 317 318 318 319 318 318
318 318 317 317 318 321 322 329 331 331 331 333 334 336 338 336 337 337 339 338 337 337 336 329 328 329 330 325 317 314 311 311 310 310 310 311 311 312 314 314 315 315 315 316 317 317 318 318 319
316 318 317 318 320 322 324 330 331 331 332 333 333 334 337 336 338 336 337 337 337 337 334 330 330 331 329 318 317 313 311 311 310 310 311 311 312 313 313 314 315 316 316 317 318 319 319 319 319
315 319 317 318 321 320 325 329 331 330 331 333 334 334 337 336 337 337 337 336 335 335 333 330 329 330 320 318 316 314 313 310 310 311 312 311 312 313 316 314 314 315 318 318 320 320 320 320 320
317 319 318 318 318 319 323 329 330 330 331 332 333 335 336 337 336 336 336 335 335 334 332 331 331 324 320 318 316 315 312 313 312 313 312 311 313 320 317 312 313 315 318 320 321 321 321 320 318
319 319 319 318 318 318 324 328 328 328 328 329 332 335 335 336 335 335 333 333 333 334 331 331 327 324 321 317 316 314 311 312 313 312 313 312 313 314 320 316 319 321 321 321 321 321 318 321 321
319 319 318 318 322 325 327 327 327 328 330 330 330 334 334 334 333 332 332 333 332 331 330 328 323 322 322 320 319 315 311 313 313 313 314 315 317 317 321 322 321 322 322 322 322 322 322 322 321
320 320 324 321 325 326 324 326 327 328 330 331 331 334 331 331 332 332 331 331 330 327 323 321 320 318 317 316 315 314 313 314 314 315 316 319 323 323 324 324 324 323 323 322 323 322 321 316 308
323 324 326 326 327 325 324 325 326 329 329 329 329 330 330 329 330 330 328 325 326 321 320 319 318 317 315 313 312 311 312 313 316 319 323 324 325 326 326 325 325 324 321 322 321 318 310 307 307
324 326 326 326 326 325 324 327 327 329 330 330 330 328 327 328 328 328 324 324 324 322 322 321 319 320 319 319 316 312 315 318 325 325 323 325 324 324 324 324 324 323 323 322 318 309 309 307 306
324 325 324 325 324 324 325 325 328 328 329 328 329 328 326 329 327 325 323 323 322 321 320 320 320 322 321 321 316 314 319 323 323 326 326 325 323 324 323 323 323 323 322 316 309 309 310 309 306
323 322 321 322 323 324 324 323 327 327 325 325 327 327 327 326 322 325 324 323 324 322 320 320 322 324 322 323 319 322 323 323 325 325 326 324 324 323 322 322 322 322 315 310 310 311 309 308 307
321 321 321 321 322 322 323 323 326 328 326 325 325 326 328 327 326 325 325 326 324 321 321 322 324 323 324 326 318 315 321 324 324 323 323 324 324 322 320 321 321 315 310 311 311 310 310 309 308
321 321 321 321 321 322 322 322 324 329 328 326 326 326 329 327 326 325 325 324 324 323 324 326 327 326 324 319 318 318 320 324 322 322 323 324 323 321 320 320 317 311 311 311 310 310 310 308 308
321 321 322 321 321 321 322 323 323 328 329 328 327 327 326 328 326 325 324 325 324 325 326 327 327 328 328 324 322 324 324 323 324 323 324 324 322 319 319 318 312 311 312 311 310 309 309 309 307
321 322 322 321 322 321 322 323 323 324 327 328 328 328 328 326 327 325 325 325 325 325 325 326 328 328 327 328 324 325 325 323 324 324 324 322 319 319 317 312 311 311 312 310 309 310 310 309 307
322 322 322 322 323 323 321 322 322 323 325 327 328 329 329 329 326 327 326 326 327 327 326 326 327 329 328 327 326 322 324 325 323 324 323 320 318 317 313 312 312 312 312 310 309 310 309 307 307
322 321 322 323 323 323 322 321 322 322 323 324 326 328 330 330 329 326 327 327 327 327 328 329 329 329 328 327 327 325 325 325 324 324 323 319 318 315 312 312 312 312 311 309 308 310 309 306 304
321 322 323 324 324 324 322 322 321 322 322 323 323 324 328 330 330 330 328 327 327 328 329 328 327 326 327 327 326 325 325 322 324 324 324 319 316 316 314 313 312 312 311 309 308 310 310 305 299
322 324 325 325 325 324 323 323 322 321 322 323 323 323 324 327 329 331 330 329 327 328 327 326 326 327 326 326 327 325 322 320 322 324 324 317 316 317 316 313 312 312 310 308 310 310 303 299 300
322 323 324 322 323 323 321 321 321 322 322 321 323 323 323 324 326 329 330 330 328 327 323 321 322 325 325 325 326 326 324 322 319 323 323 319 318 316 314 313 311 311 308 310 310 306 300 300 298
324 323 322 323 323 324 321 321 320 321 320 323 324 325 326 323 324 326 329 330 330 329 323 321 321 323 324 324 325 324 325 324 322 324 323 319 317 315 313 312 312 310 309 309 307 300 300 299 298
323 322 323 323 323 322 321 321 320 320 320 323 322 321 326 323 323 324 326 328 329 330 329 324 323 322 323 324 326 324 324 324 323 325 322 317 315 314 313 312 309 308 309 307 299 299 300 299 298
323 323 322 322 323 323 322 322 320 320 320 321 322 323 323 326 324 324 324 326 327 329 329 328 325 325 327 324 324 324 324 325 325 323 322 320 316 314 312 309 310 310 307 299 298 299 299 298 298
322 322 323 322 322 323 323 322 321 321 321 321 321 321 323 323 326 326 326 326 327 328 329 328 327 326 327 325 324 324 324 324 324 322 320 319 314 312 311 312 310 305 300 299 299 298 298 298 298

GFSSGP_850_thetae_078.txt.gz
Theta_e
316 318 318 318 319 320 320 320 321 322 322 324 325 325 325 331 338 342 329 333 342 339 337 336 336 337 337 336 333 330 330 328 328 324 323 323 317 311 310 310 310 313 319 322 323 321 316 316 316
318 322 318 317 319 321 320 321 321 322 327 327 326 326 326 331 329 329 327 330 325 339 334 334 334 336 337 335 332 330 330 329 326 323 324 321 314 310 309 310 312 320 325 322 323 318 315 316 315
315 318 318 321 322 321 321 321 321 322 327 326 324 325 325 332 329 332 330 325 333 339 335 338 338 337 337 334 331 331 330 328 324 324 323 317 311 308 309 311 318 326 326 321 320 316 316 316 316
318 318 318 320 318 319 320 322 323 325 327 325 327 328 336 339 332 326 325 329 339 339 340 340 342 338 337 334 331 332 331 325 323 324 320 312 309 309 311 316 320 321 321 320 319 316 317 317 316
318 317 319 320 320 321 322 323 323 323 327 323 322 325 334 337 333 337 340 340 339 339 339 338 340 338 337 334 333 333 329 323 325 323 316 309 309 311 314 317 319 321 319 319 317 317 317 318 317
318 319 320 320 321 323 325 323 328 326 326 322 320 328 330 330 327 327 338 341 340 339 339 335 339 338 336 334 334 332 323 325 324 319 311 308 310 312 316 317 318 318 318 318 317 317 317 318 318
318 319 320 320 320 324 323 323 326 327 323 321 321 330 330 333 328 327 336 339 339 337 338 334 338 337 336 335 331 324 325 324 319 313 309 310 312 315 317 316 316 316 317 318 318 317 317 318 319
318 318 319 320 320 323 324 325 325 329 330 328 327 330 323 332 335 334 334 337 334 329 324 338 337 337 336 330 326 326 322 317 312 309 310 311 314 315 316 316 316 316 317 318 318 318 318 319 319
317 318 320 322 321 321 322 324 323 329 329 328 329 334 334 339 339 335 325 331 334 328 328 324 330 332 330 328 325 319 315 312 310 311 312 312 314 314 315 316 316 315 316 317 318 319 319 320 320
319 320 321 322 320 320 321 321 323 326 326 325 321 332 338 338 337 336 336 334 334 329 327 326 329 328 328 324 318 314 312 311 311 312 313 316 314 314 315 315 315 316 317 319 319 320 320 320 320
320 320 321 321 321 320 322 325 325 326 328 325 326 331 337 337 335 334 336 335 333 330 328 328 327 330 326 318 315 315 312 314 314 313 315 315 313 314 314 316 316 318 319 320 321 320 320 320 320
321 320 320 321 321 322 322 325 326 326 331 330 332 337 337 335 334 332 334 334 333 333 330 327 329 328 324 316 313 310 310 311 312 315 318 313 318 315 316 314 317 320 320 321 321 320 320 320 321
321 321 320 320 322 321 324 323 325 327 331 331 333 334 335 333 333 330 331 331 330 331 329 329 324 321 320 320 315 314 312 311 317 322 314 314 314 313 314 317 319 321 321 321 321 321 322 321 310
321 321 322 321 323 324 325 325 326 321 325 331 332 333 331 331 331 330 329 328 328 326 327 326 321 321 321 316 315 313 312 316 318 317 314 316 322 325 325 324 323 323 322 322 321 319 318 311 310
322 322 323 324 324 324 325 325 325 322 324 329 330 331 331 328 328 328 327 326 327 325 322 322 321 321 319 318 317 316 314 314 315 314 316 322 321 325 325 324 323 323 322 321 320 317 312 310 309
322 322 325 326 324 324 325 325 325 322 326 329 329 329 330 328 327 327 326 325 324 323 323 321 320 318 314 313 314 315 316 315 314 315 317 318 320 323 324 324 324 323 322 321 320 315 310 311 310
321 324 325 325 325 324 324 325 325 322 326 328 325 328 328 326 324 324 324 323 322 321 321 320 318 318 317 316 315 316 314 315 315 316 317 319 321 325 325 325 324 323 321 319 316 312 312 311 311
324 326 325 324 325 324 324 322 328 328 326 328 323 326 325 324 324 323 322 321 321 321 319 319 318 316 318 317 314 318 320 318 317 317 317 321 323 324 323 324 324 322 319 316 312 312 312 312 312
322 323 322 323 323 324 324 321 323 327 326 327 323 321 323 324 324 323 322 322 321 321 318 316 315 316 317 318 318 320 321 316 313 314 320 322 325 325 324 324 323 321 317 316 312 312 312 312 312
322 321 322 323 323 324 322 322 324 326 327 327 328 322 323 326 325 325 325 324 322 319 319 319 320 321 320 322 322 320 321 317 318 321 322 323 325 324 324 324 322 320 316 315 313 312 313 314 313
321 322 323 324 323 324 324 322 323 325 326 328 327 328 324 325 326 325 325 326 324 321 321 323 324 323 323 323 324 323 323 323 320 321 323 323 322 322 323 323 322 319 316 315 313 313 314 314 313
323 323 324 323 323 324 325 325 324 324 326 327 329 327 328 326 326 326 325 324 323 323 323 322 324 326 325 326 325 322 323 325 322 322 324 322 321 323 324 323 322 318 316 315 313 313 313 313 312
323 323 324 323 324 324 325 326 323 324 324 326 328 329 327 327 327 326 326 327 326 324 322 322 324 326 327 326 326 323 324 324 323 323 324 324 323 323 324 322 320 318 316 314 313 313 313 313 312
322 323 324 323 325 326 325 325 324 324 324 324 326 328 328 328 327 326 326 327 327 326 326 324 327 329 328 328 326 325 326 326 326 325 324 324 323 323 323 321 319 317 316 314 313 313 312 311 311
323 324 326 329 329 329 325 325 326 324 324 323 323 325 328 329 328 327 326 327 327 327 327 328 327 327 329 330 328 327 326 326 327 326 325 324 322 324 322 320 318 317 315 313 313 313 311 310 310
323 324 328 330 331 330 327 326 322 324 323 322 321 322 325 327 329 329 327 326 327 327 327 327 328 327 328 329 329 328 327 328 327 327 324 323 320 322 323 321 317 316 315 314 313 311 309 309 308
324 324 324 327 326 331 328 325 325 323 322 321 321 322 322 323 327 330 329 328 327 327 328 328 329 330 329 330 330 330 327 328 329 326 325 324 321 321 323 320 317 315 315 314 312 309 309 309 308
323 324 326 326 328 327 323 324 325 324 322 322 322 323 324 326 326 326 329 330 329 328 328 329 330 329 331 330 331 330 329 329 329 327 326 325 324 322 320 319 317 315 314 313 309 309 309 308 305
322 323 326 325 325 328 330 325 324 323 322 323 322 322 322 322 326 326 326 327 331 330 329 329 329 330 331 330 330 330 330 328 328 327 326 325 325 322 319 318 316 315 314 311 308 309 308 303 303
322 323 324 327 325 328 330 328 324 323 323 322 322 321 321 322 322 324 326 327 329 332 331 330 330 331 331 331 331 331 329 328 326 326 326 325 324 322 319 317 316 314 312 310 309 309 304 304 302

GFSSGP_850_thetae_081.txt.gz
Theta_e
314 317 319 319 313 311 313 315 316 317 326 326 324 324 327 333 334 335 329 330 332 340 338 338 338 335 332 327 327 324 325 326 324 323 323 319 311 311 311 311 314 317 322 321 315 314 314 323 323
315 319 323 320 312 313 315 316 317 324 323 324 325 326 326 332 329 329 328 326 330 328 334 342 339 334 330 327 327 325 326 325 323 323 322 315 310 310 310 313 317 319 321 317 315 315 316 323 323
316 318 318 313 313 316 315 319 321 326 323 323 322 324 333 333 332 334 330 327 326 325 327 332 340 336 331 328 328 327 327 325 323 324 319 313 310 309 312 318 318 319 319 315 316 315 320 322 322
317 318 318 314 315 315 321 326 325 326 324 321 321 324 326 332 333 330 328 327 328 325 324 330 338 337 333 330 329 328 329 326 323 323 318 311 309 310 315 326 321 318 318 316 316 316 319 322 323
319 319 312 314 315 317 323 323 326 325 325 322 322 323 325 327 327 330 335 338 335 326 331 336 339 337 334 331 330 329 328 324 324 322 315 309 309 311 317 323 322 318 317 316 316 316 316 320 322
319 317 313 315 316 320 322 322 326 328 323 323 324 324 326 324 326 326 326 334 338 336 337 339 339 338 334 331 331 329 326 324 324 319 311 309 310 314 318 318 318 318 316 316 316 317 317 315 319
315 312 312 313 315 321 322 325 324 325 325 324 323 324 328 328 330 329 329 332 335 334 332 330 339 338 335 332 331 328 324 324 322 316 309 310 314 317 318 318 318 317 316 316 317 317 318 318 315
318 311 312 313 317 321 323 322 325 327 325 324 327 329 327 327 334 334 333 335 331 329 330 325 332 337 335 333 331 325 324 324 317 310 309 312 317 318 318 318 317 316 316 317 317 318 319 319 316
318 311 312 314 318 318 322 323 324 328 328 326 328 324 324 334 333 334 328 333 330 327 324 325 330 336 334 332 326 324 324 318 311 309 312 315 318 318 317 316 316 316 316 317 318 318 319 320 319
314 311 314 317 318 318 320 324 322 327 327 325 325 323 330 333 334 335 334 333 333 330 327 325 327 332 332 327 325 323 316 312 310 312 315 316 317 317 316 316 316 316 316 318 318 320 320 319 319
318 314 316 318 319 321 320 324 328 328 330 330 327 331 334 334 333 334 334 333 333 331 329 328 326 328 330 325 321 316 312 311 312 314 316 314 315 316 315 315 316 317 318 319 320 320 320 319 319
317 318 318 320 319 321 320 324 326 330 330 332 334 334 334 333 332 332 332 332 333 330 328 329 329 329 324 320 316 313 311 311 314 316 314 314 315 316 315 315 316 317 319 320 320 320 320 320 320
319 318 321 322 323 324 323 323 325 323 324 331 331 331 333 332 331 330 331 329 330 331 329 329 329 327 323 318 314 312 312 310 313 313 314 318 315 315 314 315 316 318 320 321 321 321 321 320 320
319 320 319 322 323 322 324 324 324 322 326 331 331 330 329 329 330 330 331 330 328 330 329 328 326 323 321 318 315 313 311 312 316 318 316 314 317 314 313 314 317 319 321 321 322 322 321 318 310
320 319 318 322 322 322 323 324 323 322 322 329 331 330 328 328 329 330 330 330 329 329 329 328 327 322 319 315 314 312 312 313 319 318 316 320 318 314 313 317 319 322 322 322 322 321 316 311 310
319 318 318 322 322 323 322 323 324 322 326 329 329 330 327 326 326 328 328 328 328 327 326 325 324 322 316 317 316 314 314 321 318 317 317 319 317 324 322 322 322 323 322 322 321 320 316 310 311
319 318 320 324 323 323 322 324 323 324 324 326 329 329 326 324 325 325 326 326 325 325 322 322 322 318 319 319 315 315 316 315 316 317 319 319 320 321 322 323 324 323 322 322 321 319 312 311 311
320 322 325 325 323 323 322 322 322 323 325 327 329 326 325 323 322 322 323 324 324 323 322 322 320 318 317 316 313 315 315 315 315 316 315 315 317 320 322 324 324 323 322 322 321 317 311 312 311
321 322 322 322 323 322 321 320 325 324 326 325 326 325 323 324 322 322 322 321 321 320 320 320 319 318 316 314 314 315 315 315 315 315 316 316 318 321 323 324 323 323 322 321 318 312 312 312 312
322 320 319 320 322 321 320 319 321 325 324 322 321 321 323 323 324 321 321 321 321 320 319 318 317 317 317 316 314 316 315 316 317 316 316 317 320 322 323 323 323 323 321 319 316 313 312 312 312
321 320 320 320 321 320 322 320 321 323 324 321 321 323 323 321 322 322 322 322 321 319 317 315 315 315 314 313 315 316 318 318 316 314 315 316 321 322 323 323 324 323 321 319 317 314 312 312 313
321 320 321 323 321 320 322 321 321 323 326 324 321 323 325 324 322 324 323 321 319 317 316 316 318 319 319 319 319 319 320 322 319 319 317 321 322 322 322 323 323 322 321 318 317 316 312 314 314
321 322 323 323 321 321 322 323 321 321 324 327 325 322 324 325 323 324 324 321 319 318 319 321 323 324 323 322 321 324 323 322 322 322 319 321 322 322 323 323 323 322 322 318 316 316 312 313 314
321 322 322 323 321 322 322 325 321 320 324 324 326 326 323 326 326 324 322 324 323 319 319 320 323 324 325 325 324 325 324 322 322 323 321 321 323 322 322 323 323 322 321 319 317 315 313 313 313
320 320 322 325 325 324 327 327 323 322 321 322 327 326 326 325 326 326 325 323 324 324 323 321 321 323 324 326 324 326 324 322 323 324 324 323 321 323 323 323 323 322 321 318 316 314 314 313 312
319 320 323 327 326 330 328 328 323 322 322 322 323 327 326 326 326 326 326 325 326 326 325 324 322 323 325 326 327 325 324 323 324 325 326 325 324 324 323 323 323 321 319 318 315 314 313 313 311
322 322 321 326 328 329 327 324 323 322 320 319 320 321 326 327 326 326 326 326 326 326 326 325 325 324 326 328 329 329 328 325 325 326 326 325 324 324 323 322 322 320 318 317 316 313 312 312 309
320 322 324 323 329 329 327 325 324 321 321 320 319 322 325 326 327 326 326 326 326 326 326 325 325 325 323 325 328 329 329 329 326 326 326 325 325 325 322 322 322 318 316 316 313 313 312 309 308
321 321 324 324 323 322 322 322 321 321 321 321 319 321 322 323 324 326 327 327 326 326 326 326 326 326 326 326 326 329 330 330 329 328 326 326 325 324 323 322 322 319 317 315 314 314 311 310 310
320 320 321 324 325 324 322 321 321 320 318 319 319 321 321 321 325 324 323 326 328 327 327 327 327 327 327 328 329 329 330 330 328 328 327 327 325 324 323 322 321 319 317 314 314 314 311 310 309

GFSSGP_850_thetae_084.txt.gz
Theta_e
314 316 319 319 311 308 312 314 314 320 324 324 324 326 328 330 334 333 334 332 337 335 337 335 329 329 325 323 323 323 324 323 322 321 319 312 311 311 311 312 318 321 316 313 317 321 323 324 324
315 317 321 320 310 311 311 313 325 324 323 323 322 326 330 331 329 328 327 330 338 338 336 331 334 328 324 324 323 324 325 324 322 322 318 310 311 311 312 317 322 319 314 314 320 322 323 323 323
315 315 318 311 309 312 313 316 322 324 322 321 321 326 331 330 333 330 326 327 337 338 337 337 336 330 328 325 323 325 326 324 323 321 315 310 310 311 316 319 320 314 314 314 320 322 323 323 323
316 317 315 312 313 312 315 315 323 325 324 322 321 323 323 326 332 332 334 326 329 330 336 333 330 326 329 326 324 325 326 323 323 320 312 310 311 313 316 318 316 314 314 315 321 322 322 322 322
319 318 310 311 312 313 314 321 324 324 324 323 322 323 323 325 326 329 331 335 335 328 330 334 328 334 333 327 326 326 325 323 323 319 311 310 312 317 316 318 315 315 315 316 321 322 322 321 321
317 314 311 311 313 314 319 321 326 325 323 323 324 325 327 327 329 329 328 330 331 330 327 328 331 336 330 330 327 326 325 324 322 317 310 310 314 319 317 317 315 315 316 315 318 322 322 321 320
313 310 312 311 314 313 320 323 325 325 325 324 325 327 326 325 330 326 332 331 334 333 330 330 328 328 330 332 327 326 324 324 321 313 309 311 317 321 320 317 315 315 316 316 316 315 319 321 320
317 310 313 311 313 314 319 322 324 327 323 325 327 328 325 321 327 324 331 332 331 332 332 327 326 325 332 331 327 325 324 323 319 311 309 313 319 318 320 318 316 316 316 317 317 318 315 319 320
318 311 311 312 313 316 319 322 326 327 326 326 328 323 322 322 328 330 332 330 326 326 327 326 325 324 330 332 328 326 324 321 313 309 311 316 321 320 320 318 317 316 317 317 318 319 319 316 319
314 309 312 313 313 316 319 324 324 327 326 325 326 327 324 330 330 331 332 331 328 325 324 328 332 334 330 329 327 324 320 314 309 311 316 319 319 319 318 317 317 316 317 317 318 319 320 319 315
314 313 315 315 316 318 319 326 328 327 329 331 331 330 327 333 333 332 332 332 328 325 324 327 326 331 330 327 324 321 316 311 310 313 317 318 318 318 317 317 317 317 317 318 319 320 319 319 319
316 316 316 316 321 322 318 326 327 329 330 333 333 334 335 334 333 331 331 330 330 329 328 328 329 327 324 325 321 317 313 311 313 316 318 318 315 316 315 316 317 317 318 319 320 320 320 319 319
316 316 319 320 322 323 323 324 324 328 331 332 330 330 332 333 331 330 333 331 329 328 328 326 329 324 325 327 323 314 312 312 313 316 316 315 315 315 316 315 317 317 319 320 320 320 320 320 320
318 319 319 319 320 322 323 323 323 322 329 331 329 328 327 329 330 330 330 329 329 328 328 328 327 328 327 324 317 315 315 314 317 316 315 314 315 315 315 316 317 316 320 320 321 321 321 321 319
319 317 316 317 320 321 322 322 322 322 327 331 329 328 328 327 328 328 329 328 328 328 328 329 328 326 323 319 319 316 314 312 314 313 314 315 315 315 315 315 315 317 319 321 321 321 321 319 311
318 317 317 317 321 322 321 319 321 322 323 330 329 328 326 325 325 328 328 328 327 328 328 329 327 324 322 316 316 313 313 316 313 315 318 319 315 314 313 314 314 317 320 322 322 321 319 315 310
317 318 318 319 320 321 321 320 320 322 325 328 329 327 325 324 324 326 326 327 327 328 326 326 325 324 321 317 313 313 315 319 315 316 316 315 320 316 317 318 316 320 322 322 322 320 319 315 311
318 319 321 321 321 321 321 320 320 322 324 326 328 326 325 323 324 324 325 325 326 326 326 324 322 322 319 313 313 315 314 314 318 316 315 317 317 321 321 322 323 322 323 322 321 320 319 313 311
318 319 319 319 320 322 321 320 320 321 326 327 327 324 323 322 322 323 324 324 323 323 323 322 321 319 316 316 316 312 314 316 319 316 316 319 321 320 321 321 322 323 323 323 322 321 320 312 311
318 319 319 318 318 320 321 318 318 322 325 326 325 323 322 322 321 323 323 323 322 322 321 321 321 319 319 319 318 315 317 317 316 316 316 317 317 317 319 322 323 324 324 322 321 321 319 312 312
319 319 319 318 318 319 319 318 321 322 324 324 323 321 322 322 322 322 322 321 321 321 321 321 320 318 318 317 314 313 314 315 316 315 316 316 316 317 320 322 322 323 323 323 322 320 317 314 312
320 319 319 320 320 319 319 320 318 321 323 322 320 320 321 321 319 321 322 321 321 321 319 319 319 317 317 315 314 315 316 315 315 315 315 316 316 317 320 321 322 323 323 323 322 319 317 314 312
320 320 320 322 321 319 319 321 319 322 325 322 320 321 321 321 317 316 321 320 321 320 318 317 316 317 316 316 315 316 316 315 317 317 316 313 313 315 319 322 323 323 323 323 321 319 317 315 312
320 320 320 320 319 322 324 324 321 319 323 324 321 322 322 321 319 318 318 321 320 318 316 315 315 315 315 314 314 315 315 315 316 315 315 317 318 318 321 322 323 323 323 323 321 319 317 316 313
318 318 320 322 323 322 326 326 323 321 319 324 324 321 324 323 320 320 320 320 319 317 316 316 318 320 319 318 319 318 318 319 320 321 321 322 319 320 321 322 322 323 323 323 322 321 317 315 313
318 318 320 324 324 326 326 324 323 320 319 321 325 325 322 324 324 322 321 319 319 318 318 318 320 322 324 324 324 322 322 322 322 322 322 321 321 319 318 323 322 322 323 323 320 319 316 314 313
318 319 319 324 326 325 325 324 321 319 319 319 322 325 324 323 325 325 324 323 321 319 318 318 318 319 321 324 324 325 324 324 324 323 322 322 324 324 323 322 323 323 323 323 320 317 315 315 313
319 319 321 322 327 328 325 325 324 320 320 319 317 324 325 325 324 325 325 325 324 322 320 320 320 320 320 321 323 324 326 326 324 324 323 323 324 324 324 324 324 323 322 323 320 319 316 315 313
319 320 322 322 323 325 322 320 317 319 320 318 317 320 324 325 326 325 326 326 326 325 323 324 323 323 322 321 321 324 325 327 328 326 325 324 325 325 324 324 324 322 322 322 320 318 316 315 312
317 319 321 323 324 322 320 320 319 317 317 317 316 320 323 325 326 326 326 326 326 326 325 326 326 325 324 324 323 322 325 327 328 328 327 325 326 326 325 324 323 321 321 321 320 317 316 314 313

GFSSGP_850_thetae_087.txt.gz
Theta_e
314 316 319 319 310 308 312 313 313 317 322 323 323 323 326 329 332 327 336 337 340 341 330 325 325 328 325 325 325 329 329 323 321 318 315 313 312 311 311 314 318 316 314 315 318 320 321 322 320
315 316 321 317 309 310 311 310 315 321 322 321 322 324 331 329 329 328 330 329 338 339 333 328 328 327 323 328 329 328 325 322 321 318 314 311 311 311 312 315 319 314 316 320 322 323 323 323 321
315 314 317 309 307 312 312 312 315 323 323 321 320 326 329 328 332 329 328 328 336 344 336 332 328 326 323 323 328 325 324 322 321 317 312 311 311 311 316 320 316 315 320 322 323 322 323 322 322
315 316 314 311 313 311 313 313 314 324 324 322 321 323 323 324 327 331 329 327 337 335 336 335 328 327 330 325 323 328 324 323 321 316 311 311 311 314 321 317 314 319 320 322 322 322 322 323 323
318 316 309 310 311 312 312 314 317 323 323 322 322 323 323 324 326 325 327 328 332 333 334 334 335 332 330 328 325 326 326 323 322 316 311 312 314 319 320 314 314 316 321 322 322 322 322 322 323
316 312 310 311 311 312 312 316 324 324 322 323 324 324 327 327 329 329 327 329 330 331 329 332 334 334 330 325 327 325 326 323 322 315 311 312 318 321 317 314 314 317 321 322 322 322 321 321 322
313 309 312 311 312 313 313 319 324 324 324 325 325 326 326 324 325 326 329 330 330 331 328 332 333 332 330 327 326 326 326 323 323 312 311 314 318 319 315 315 315 318 321 322 321 321 321 321 321
316 309 313 311 312 312 313 321 324 326 325 325 326 328 324 322 329 330 331 331 331 330 330 327 328 331 332 328 329 326 326 324 318 311 313 321 319 319 315 315 315 317 321 321 319 320 321 320 320
315 311 311 312 312 313 315 320 325 326 325 325 327 325 322 322 329 330 331 331 332 332 330 330 329 329 330 332 330 326 326 319 314 310 314 327 321 319 316 315 316 316 316 316 316 316 320 320 319
311 309 312 311 312 313 315 320 325 326 326 326 326 327 324 324 329 330 331 330 329 326 327 327 327 326 326 330 328 328 326 322 313 311 326 328 325 319 317 316 316 317 317 318 318 317 316 317 319
312 313 313 315 316 315 313 324 325 325 326 329 329 331 329 327 331 332 331 331 329 325 325 327 328 329 330 325 327 327 325 321 314 314 325 326 324 320 318 316 317 317 317 318 319 319 319 317 314
314 314 314 316 319 320 318 324 326 326 327 331 331 329 328 332 331 331 329 330 327 324 325 328 326 327 329 325 328 326 326 319 316 315 317 321 323 320 320 317 316 317 317 318 319 319 319 319 318
313 314 317 318 319 320 322 323 323 328 331 331 329 329 332 330 329 330 329 330 329 325 327 328 326 327 327 327 326 325 320 318 314 316 318 320 321 318 316 315 316 316 318 318 319 320 319 319 319
316 316 317 318 318 319 320 321 324 325 329 331 329 328 329 330 330 329 328 329 329 328 327 328 326 326 327 326 324 318 315 314 313 318 320 319 316 316 315 316 316 316 318 319 320 320 320 320 319
318 316 315 316 317 318 321 320 320 321 326 331 329 328 327 329 329 327 328 329 329 329 327 327 325 325 327 325 323 318 314 315 317 319 317 315 315 315 315 315 317 315 319 320 320 320 321 320 317
317 316 316 316 318 320 320 319 318 323 330 331 329 328 326 329 325 326 327 327 326 328 327 327 327 326 326 324 318 315 318 318 321 319 317 316 315 316 315 315 316 317 319 320 321 321 321 319 310
315 316 317 317 317 318 319 319 317 322 327 330 329 327 325 325 325 325 325 326 327 327 328 328 327 327 326 320 317 319 319 318 317 316 316 316 316 315 315 316 317 317 319 320 321 322 321 314 310
316 317 318 318 318 320 319 319 318 321 326 328 328 325 324 323 325 324 325 325 325 325 326 326 327 326 323 319 318 318 316 314 314 317 320 316 316 316 315 317 318 317 319 321 322 322 319 317 312
317 317 317 317 317 320 319 318 318 319 321 325 326 324 323 322 323 324 323 324 323 325 325 324 325 325 322 318 317 315 319 315 314 316 318 316 315 315 317 319 319 320 320 322 322 321 320 319 314
316 317 317 316 317 317 317 318 316 319 322 324 325 325 323 321 321 322 320 322 323 323 323 324 323 324 320 318 315 315 321 319 315 316 316 315 315 317 319 321 322 322 322 323 322 322 320 319 314
316 317 317 317 317 316 318 317 317 320 323 325 325 325 321 320 321 321 323 322 321 322 321 322 322 321 320 317 314 313 316 316 319 316 315 315 317 317 318 319 320 322 322 323 323 322 321 320 317
318 317 318 318 318 320 317 319 316 318 323 324 323 324 321 320 319 320 322 322 323 322 321 320 320 320 319 316 315 316 314 314 315 317 316 316 316 318 318 318 321 322 323 323 323 323 321 321 319
319 318 318 318 319 318 319 319 317 322 323 322 320 322 322 320 319 316 321 321 321 321 320 320 320 320 319 319 318 318 316 315 318 317 316 316 316 317 316 317 320 321 322 322 323 323 322 321 318
318 318 318 318 318 320 322 321 319 317 322 323 321 320 321 320 320 317 318 321 321 321 320 318 318 318 318 318 317 315 315 315 316 315 315 315 315 315 316 315 317 320 321 322 323 323 322 321 318
316 317 318 319 320 321 322 325 322 319 318 321 321 321 320 320 320 319 317 320 321 320 319 317 317 317 317 317 316 314 315 316 316 315 316 315 315 316 316 314 317 320 322 322 322 323 322 321 318
314 316 319 322 321 321 324 325 322 319 320 319 321 322 321 321 321 320 317 317 320 318 316 315 315 315 315 316 316 315 315 316 317 317 316 316 315 313 313 315 318 319 321 321 322 323 322 322 317
315 317 317 319 324 324 322 322 320 319 318 317 321 322 321 322 323 323 321 318 317 319 317 317 316 316 316 316 315 314 313 313 314 313 313 314 316 318 320 320 318 319 321 322 322 323 323 322 320
316 317 319 319 325 327 323 323 322 320 319 317 318 322 322 322 323 323 323 322 320 317 318 317 317 318 318 318 317 318 319 318 319 319 320 321 320 321 321 322 322 320 320 323 322 323 323 321 319
316 317 319 319 319 321 322 320 317 320 318 318 315 321 323 323 323 324 324 325 324 320 318 318 317 317 318 320 321 322 323 324 323 322 322 323 324 324 323 322 323 324 323 323 322 323 322 321 319
315 317 318 321 322 320 318 319 316 316 315 316 318 319 319 324 324 324 325 325 325 324 323 320 318 317 317 317 318 319 320 323 323 325 325 326 325 325 325 323 323 324 324 324 322 322 322 322 319

GFSSGP_850_thetae_090.txt.gz
Theta_e
314 315 319 318 310 307 312 313 312 315 320 322 321 323 325 328 330 324 335 338 338 334 328 326 326 327 326 332 332 333 333 333 336 336 335 323 314 312 322 327 328 325 317 314 313 314 313 312 309
314 316 319 316 309 311 311 310 313 316 322 322 321 323 327 329 330 328 330 329 333 339 332 327 328 327 327 331 331 330 332 332 334 332 321 315 313 314 324 326 323 318 316 315 318 317 318 314 315
314 314 316 307 306 311 311 311 311 317 321 322 320 324 329 327 324 330 327 327 328 339 338 327 327 325 325 331 329 328 328 325 322 317 315 313 313 315 323 319 317 316 315 316 321 321 321 321 320
316 315 312 310 312 311 312 312 312 316 323 322 321 320 322 323 323 330 327 328 326 336 339 327 326 326 326 327 330 329 325 320 321 318 314 313 313 315 316 316 315 316 318 320 322 322 322 322 322
318 315 308 310 310 310 310 312 313 320 322 322 321 322 323 324 324 327 330 330 327 330 337 331 327 327 326 327 328 326 323 321 318 318 314 312 314 316 316 316 321 319 319 320 322 322 323 323 322
315 311 309 310 310 311 311 314 320 321 322 322 322 323 324 325 324 325 327 328 329 331 331 332 331 328 326 327 325 324 323 323 320 315 313 312 316 317 316 317 320 321 320 321 321 322 322 323 322
312 308 310 311 312 312 313 318 322 324 323 324 324 325 325 325 323 325 327 328 327 328 329 332 331 328 325 324 324 324 323 324 319 316 319 313 319 317 315 319 320 321 320 321 321 321 322 322 321
315 308 312 310 312 312 313 320 321 324 324 325 325 325 324 324 322 326 326 328 325 328 328 329 330 333 327 327 326 325 324 324 323 319 316 315 320 316 315 319 321 321 321 321 321 320 321 321 320
314 310 310 312 311 313 313 317 322 325 326 324 326 326 325 323 323 328 331 329 329 330 329 329 328 330 331 330 327 325 325 327 325 321 322 322 320 315 315 320 321 321 321 321 321 320 320 320 319
311 309 311 310 310 312 314 314 321 325 325 325 325 326 326 325 324 329 331 330 330 330 330 330 328 327 330 331 328 326 327 326 326 325 324 323 320 315 316 320 321 320 320 320 319 320 320 319 318
311 312 311 314 314 314 312 316 322 324 325 325 327 327 330 326 327 331 330 331 330 327 327 329 330 328 327 327 331 327 325 325 327 322 325 323 319 316 316 318 317 317 316 315 315 316 317 318 315
312 312 313 315 317 317 316 319 325 324 325 327 329 330 329 327 330 329 330 330 330 326 325 327 327 327 327 328 331 329 326 327 326 322 327 324 319 316 316 316 317 317 318 318 318 318 317 315 312
311 312 315 317 317 317 318 322 323 324 326 330 329 328 329 330 330 329 329 329 329 325 325 326 327 326 327 328 330 328 326 325 323 326 325 326 320 315 316 317 317 317 318 318 319 319 319 318 315
315 315 315 317 316 316 319 319 322 323 327 330 329 329 329 327 326 327 327 329 329 328 326 328 326 326 327 327 328 327 325 323 324 323 326 327 320 317 316 316 317 317 317 318 319 319 319 319 318
316 315 313 314 315 315 317 318 320 321 328 329 329 328 329 327 326 325 326 329 328 328 327 328 326 327 326 327 327 325 325 323 319 322 320 323 321 319 316 315 316 316 318 319 320 319 319 319 319
316 314 315 314 315 317 319 318 316 319 325 330 330 328 325 325 324 325 326 328 327 328 327 327 325 326 326 327 326 327 324 320 312 318 318 319 320 317 315 316 316 315 318 319 320 320 320 320 318
313 315 315 315 316 317 319 319 317 319 326 329 330 326 324 324 323 324 325 325 326 327 327 326 326 326 324 326 326 325 321 315 316 317 317 320 317 318 318 318 316 316 318 319 320 321 321 320 314
315 316 315 316 317 316 318 317 317 319 322 327 329 326 323 322 323 324 325 326 326 326 327 327 327 325 326 325 323 320 317 317 319 320 320 316 315 319 320 318 317 316 318 319 320 321 321 319 314
315 315 316 314 315 317 315 314 314 316 318 321 326 326 323 322 321 322 324 324 325 325 325 325 326 325 325 323 318 317 322 321 323 322 321 315 320 321 318 318 317 316 318 319 320 321 321 318 314
315 316 316 314 314 315 315 315 315 315 318 319 322 325 324 322 322 321 323 324 324 324 324 324 322 323 324 319 317 317 320 319 320 317 314 314 315 317 317 316 317 316 318 319 320 322 321 319 317
315 316 315 315 314 315 315 315 316 316 320 322 323 324 324 322 321 321 321 322 322 323 323 324 323 324 323 320 316 316 317 319 320 317 315 315 316 316 315 315 316 318 320 321 321 322 322 321 319
317 315 316 316 317 317 315 317 315 316 319 322 323 324 324 322 320 319 323 323 322 322 321 322 322 323 323 320 318 316 316 316 316 314 317 318 316 316 315 318 319 321 322 321 322 322 322 322 321
317 316 316 317 316 316 317 317 316 320 320 319 320 323 324 323 321 319 319 322 322 322 322 321 321 321 321 321 319 316 318 318 317 315 315 316 317 315 316 318 318 319 320 321 322 323 322 322 322
317 317 317 317 316 318 317 317 317 316 319 319 319 321 323 324 322 320 317 321 322 321 321 320 320 320 320 320 319 317 314 314 315 316 316 316 314 315 317 318 319 317 317 320 321 322 322 323 322
315 316 318 318 319 321 317 323 320 317 316 317 318 321 322 323 323 321 319 319 321 321 320 320 320 320 320 319 318 316 316 316 316 316 316 315 316 316 316 316 317 316 316 316 318 320 321 322 322
315 316 317 321 319 319 322 325 321 318 318 319 320 319 321 321 323 322 321 317 320 321 319 317 317 319 319 319 319 319 318 317 317 317 317 316 316 316 315 316 316 315 315 314 315 317 321 322 322
313 315 315 316 320 322 320 320 318 318 318 316 316 319 321 321 322 323 322 320 316 319 318 316 315 315 316 317 318 317 316 316 316 316 315 315 316 315 315 315 314 315 315 313 316 318 320 321 321
313 313 317 317 322 324 320 322 319 318 318 316 316 319 321 321 321 322 322 322 320 316 319 318 316 315 314 314 314 315 316 316 315 315 316 316 316 316 316 316 315 314 314 320 321 319 320 322 322
313 315 317 317 317 319 320 319 316 318 317 317 314 317 321 321 322 323 324 323 322 320 317 318 317 316 315 315 316 315 315 314 313 313 314 314 315 314 314 314 316 319 321 322 322 322 321 321 320
313 314 315 317 318 317 316 318 315 315 315 315 315 318 319 322 322 322 323 323 323 323 321 318 318 317 317 317 317 318 318 318 317 317 318 317 318 319 320 321 322 323 323 324 323 322 323 316 317

GFSSGP_850_thetae_093.txt.gz
Theta_e
314 315 318 317 317 316 317 318 314 316 320 322 321 322 326 327 329 327 330 337 337 339 331 330 329 330 332 332 334 334 335 336 333 331 332 331 318 318 323 323 328 329 326 315 311 311 311 311 310
314 316 319 315 318 318 318 314 316 318 320 322 321 322 326 330 328 327 327 334 333 337 331 329 329 327 326 326 332 334 336 336 334 333 331 327 317 320 323 324 329 327 316 312 312 311 309 310 308
314 315 316 315 314 318 318 315 317 315 318 321 322 321 329 329 327 327 328 327 327 336 332 330 328 329 329 329 333 335 336 336 335 335 330 319 317 322 323 328 327 317 314 313 314 310 316 316 310
316 315 312 317 317 316 316 317 314 315 321 322 321 322 322 322 324 324 328 327 327 331 335 329 327 327 328 331 333 333 335 335 335 333 328 316 316 320 326 324 318 316 315 317 317 317 319 318 312
317 315 316 315 315 314 314 313 313 317 321 322 321 324 323 323 323 324 326 329 330 328 334 334 328 329 327 330 332 332 335 335 329 322 316 314 316 320 324 318 317 324 326 322 321 321 321 320 316
315 312 316 317 315 314 314 313 315 319 321 322 322 323 324 325 325 323 322 326 327 328 330 331 332 328 330 330 330 332 333 330 320 318 318 313 313 318 318 316 324 327 323 321 322 322 321 320 318
315 315 315 314 315 315 316 316 323 322 323 324 324 326 325 325 325 323 324 325 327 327 329 326 330 329 327 326 328 327 324 320 319 317 315 312 313 316 316 321 322 322 321 322 322 322 321 320 318
315 315 314 314 316 316 314 318 320 321 321 323 324 328 327 324 324 322 324 326 324 324 327 329 330 323 325 324 330 327 322 319 318 317 314 313 313 317 322 318 320 321 321 321 322 322 322 320 317
314 317 317 316 314 317 313 316 317 321 324 324 325 325 325 325 324 324 325 326 325 324 326 328 329 330 327 328 329 327 325 321 318 315 316 315 316 320 321 319 321 321 321 321 321 322 322 319 317
315 317 316 314 314 316 316 314 315 324 326 326 325 325 325 326 326 326 326 328 329 329 328 328 328 330 329 328 327 325 327 323 318 320 323 319 318 318 318 321 321 321 321 320 321 321 321 318 316
313 317 314 315 314 314 315 315 318 324 324 324 325 325 326 327 327 326 327 329 329 329 329 329 329 328 330 328 327 327 328 324 322 321 322 319 318 316 320 321 321 321 321 320 320 320 319 318 316
315 314 314 315 315 315 316 318 323 324 322 322 325 326 329 328 326 329 330 330 328 330 329 328 328 329 327 328 330 330 326 323 323 325 324 321 318 317 319 321 321 321 320 319 319 319 318 316 313
313 314 313 314 315 315 316 318 320 322 321 324 326 328 328 327 329 330 331 330 329 328 327 326 325 327 328 328 328 329 327 325 325 324 325 319 319 318 319 321 320 319 316 315 316 317 315 315 311
314 313 315 315 316 315 317 318 320 320 321 323 327 328 329 327 327 325 326 327 328 328 325 325 325 327 326 325 326 329 327 325 325 326 323 320 320 317 320 320 317 316 317 318 318 318 317 317 314
316 317 317 316 316 316 315 318 321 319 320 328 329 329 328 326 325 325 325 326 327 328 328 327 326 326 326 327 327 327 327 326 326 324 324 323 320 317 317 316 316 317 318 318 319 319 318 319 317
317 316 318 315 316 317 318 321 320 319 323 329 329 328 327 326 324 324 324 327 326 327 328 327 325 326 325 325 327 326 326 325 326 324 323 325 319 316 316 316 317 317 317 318 319 319 319 319 318
316 315 317 317 316 318 320 322 320 319 324 327 329 328 326 326 324 323 323 325 326 327 327 327 325 325 326 327 325 326 326 326 324 324 321 323 321 316 316 316 317 317 318 318 319 319 320 320 319
316 318 317 318 318 317 317 319 319 316 321 324 328 328 326 325 323 321 322 323 325 326 327 327 326 326 326 326 325 325 325 325 324 321 320 322 321 317 316 316 316 317 318 318 319 320 320 320 319
316 317 318 317 317 317 318 316 318 318 317 320 325 328 325 324 323 321 322 324 325 325 325 326 326 326 325 326 325 324 324 322 315 318 317 318 319 321 319 318 317 316 318 318 319 320 320 320 315
317 318 318 317 316 316 317 318 319 318 319 319 321 325 326 324 322 321 322 323 324 324 324 325 324 326 326 325 325 324 323 316 314 317 317 319 321 318 318 320 320 317 318 318 319 320 320 319 316
317 318 319 318 316 316 317 319 320 318 318 320 321 323 325 324 323 321 320 324 324 323 322 324 322 324 325 324 324 322 316 314 316 322 319 319 317 316 316 321 320 317 317 316 318 319 320 321 318
317 316 317 317 318 318 317 320 320 320 320 319 322 323 323 323 323 321 320 321 323 322 323 323 321 322 324 323 321 318 316 316 318 323 322 321 317 316 318 317 317 315 316 315 317 319 320 321 320
317 317 317 318 318 318 319 321 320 318 321 321 321 323 323 323 324 321 319 320 320 321 321 322 322 321 323 322 319 316 318 319 320 320 318 315 315 315 315 315 318 316 315 317 320 321 321 321 321
317 317 318 318 319 322 320 321 321 320 321 321 321 320 323 323 324 322 320 319 321 321 321 321 321 322 322 321 319 317 316 319 319 318 316 315 314 314 316 316 316 316 318 319 319 320 321 322 322
317 318 318 321 322 322 319 320 321 320 320 320 321 320 321 322 323 323 320 319 320 321 320 320 321 320 321 321 320 318 318 317 317 318 316 314 315 315 316 316 318 318 317 318 318 318 319 320 321
316 317 318 319 322 322 322 324 323 322 321 319 319 319 319 321 322 324 322 319 317 320 320 319 320 320 321 321 320 319 318 317 315 315 315 313 314 316 315 316 316 317 317 317 318 316 315 315 316
316 317 316 317 320 322 321 322 321 321 321 319 318 317 319 319 321 323 323 321 316 319 319 318 318 319 320 320 320 320 319 317 316 316 315 315 316 316 315 315 314 316 316 316 316 315 315 315 314
314 316 318 318 319 318 319 322 321 320 321 320 320 319 320 319 320 321 323 322 320 316 319 318 317 316 317 319 319 319 319 318 317 316 317 318 316 316 316 315 316 316 315 315 315 315 315 316 318
314 315 316 318 319 319 319 321 321 322 322 321 321 319 317 320 321 321 322 323 321 320 317 318 318 316 315 315 316 318 318 318 317 317 317 317 316 316 316 316 316 315 315 315 315 315 317 321 322
313 315 315 317 317 320 319 320 317 320 320 319 319 318 317 319 321 321 321 322 321 321 321 318 318 318 316 315 314 314 314 314 315 316 316 316 316 316 316 316 316 316 315 315 317 320 319 319 321

GFSSGP_850_thetae_096.txt.gz
Theta_e
313 315 318 318 322 322 322 322 320 321 322 323 324 325 326 327 326 326 329 328 335 340 340 338 336 334 334 332 334 334 332 333 328 326 321 320 317 316 317 322 321 327 323 317 314 311 311 311 311
314 316 319 319 322 322 322 321 321 321 320 322 322 324 326 327 329 330 330 324 330 337 341 340 335 333 332 333 335 335 334 334 328 326 321 319 318 318 317 324 327 327 321 313 311 311 311 310 309
314 317 320 322 322 321 321 321 321 321 319 321 323 325 326 326 331 331 326 326 327 328 338 340 335 333 333 334 336 335 335 335 329 326 324 320 318 317 318 325 329 325 314 311 311 309 309 309 308
315 316 317 321 321 321 321 321 320 321 322 322 324 325 325 326 328 331 324 325 326 327 334 340 336 334 334 335 336 335 336 335 330 328 327 323 317 318 321 327 328 319 312 311 310 312 310 309 308
316 317 319 320 321 321 320 320 319 321 322 324 325 324 326 327 325 324 324 325 329 332 329 333 336 333 333 334 330 335 336 334 330 328 327 320 318 318 323 329 322 316 313 311 317 315 311 310 309
318 318 319 319 320 320 320 319 319 322 322 323 324 325 325 327 325 330 324 324 326 326 330 329 329 327 335 333 332 336 336 334 332 331 326 319 317 321 327 324 317 315 316 316 319 317 315 314 311
318 319 318 318 319 320 320 319 322 321 321 322 325 326 325 329 330 325 324 325 326 327 328 329 328 324 324 335 336 334 336 334 333 330 322 316 314 322 323 319 321 321 319 321 321 319 318 317 313
317 319 318 318 318 320 320 319 321 322 322 324 325 325 326 329 324 324 323 325 326 329 328 328 328 323 329 330 333 332 333 333 333 326 318 315 317 319 319 321 322 323 321 322 321 320 318 317 313
316 319 319 319 318 318 319 320 320 322 323 325 326 326 328 329 325 326 331 332 331 329 327 328 326 324 328 328 329 330 332 333 330 321 318 318 320 320 321 326 322 321 322 323 322 321 318 316 313
317 319 319 319 318 319 319 320 320 322 323 325 325 327 329 330 330 331 332 332 333 332 331 328 329 327 325 326 327 325 325 331 325 319 321 324 320 322 329 324 321 321 321 322 322 321 318 316 313
317 319 319 318 318 318 319 319 320 322 323 322 322 322 327 332 332 332 332 332 332 330 331 330 329 330 326 329 326 327 327 327 325 320 317 326 325 326 327 324 321 321 321 322 322 322 319 321 319
318 318 318 318 318 318 319 319 320 321 322 321 325 326 330 332 332 331 332 331 332 330 329 329 330 329 333 330 327 330 329 326 326 324 322 326 326 327 324 324 325 322 323 323 323 322 323 322 320
319 318 317 317 317 317 318 319 320 320 320 321 325 331 331 331 332 333 330 328 329 328 328 329 329 329 329 330 330 329 328 328 326 327 323 326 326 326 322 324 326 326 326 325 325 324 320 317 313
317 317 317 317 317 318 319 319 319 320 320 323 328 330 332 332 332 331 329 329 327 329 328 327 326 326 326 329 329 329 326 327 328 330 325 325 325 320 320 323 324 325 326 325 324 322 319 314 313
317 318 318 318 318 319 318 320 319 319 323 326 329 331 331 331 330 329 328 328 327 328 328 328 327 328 327 326 326 327 328 327 326 328 325 321 319 318 315 319 322 322 323 322 322 318 317 314 312
318 319 320 320 319 318 320 320 323 322 324 323 326 330 330 330 329 328 327 326 326 327 328 327 328 325 326 325 325 325 327 328 327 326 326 325 320 317 314 319 321 320 320 319 318 318 317 316 314
318 319 320 320 319 319 321 322 324 323 323 323 324 328 330 330 329 327 326 325 326 326 327 327 327 325 324 325 326 327 326 327 327 325 326 325 321 317 315 320 320 316 317 318 318 318 318 318 315
320 320 320 319 320 320 321 322 323 322 321 322 324 327 329 329 328 327 326 323 324 325 326 326 326 325 325 325 326 326 326 326 326 325 326 322 320 318 316 320 317 317 318 318 318 318 319 318 316
319 319 319 319 320 320 320 319 320 322 322 323 323 327 329 329 328 326 325 324 324 325 326 326 326 326 326 326 324 325 326 326 327 326 324 324 321 318 317 316 316 317 318 318 319 319 319 320 317
318 318 318 319 319 319 320 319 320 322 323 323 323 325 327 328 328 326 324 322 324 325 325 326 326 326 326 326 324 325 325 326 326 325 324 322 324 317 316 316 317 317 318 318 319 319 318 320 320
317 317 318 318 319 319 320 320 319 320 322 323 324 324 325 327 328 326 324 320 324 324 323 325 325 325 325 326 324 324 325 325 324 323 321 320 323 318 316 316 316 316 317 317 318 319 319 320 320
316 316 317 317 318 320 319 319 318 321 322 323 322 325 326 327 327 327 325 322 323 324 322 324 324 322 324 325 325 324 324 323 319 318 320 319 322 322 321 318 317 318 317 317 318 319 317 319 320
316 316 316 318 319 320 320 320 319 321 323 323 323 322 326 327 327 327 326 323 321 324 323 323 323 322 324 324 325 325 323 316 315 318 318 316 318 318 320 318 317 321 318 317 316 316 316 319 319
317 318 319 320 321 323 321 320 320 321 324 322 323 324 326 327 327 327 326 324 324 322 322 323 323 322 323 323 323 323 319 315 314 317 319 318 318 320 319 317 316 317 317 316 316 315 316 318 319
316 319 322 324 323 323 320 321 320 323 323 323 323 323 325 327 327 327 326 324 324 323 321 321 322 322 323 323 322 321 318 315 315 317 323 322 320 319 317 316 316 316 316 315 316 316 318 319 320
316 319 320 320 323 323 321 323 323 323 323 322 323 324 325 326 327 327 326 325 324 323 321 320 321 322 323 323 323 320 320 318 318 320 320 320 318 317 316 316 316 314 315 316 317 318 318 319 318
316 318 317 318 319 321 323 323 323 323 323 323 323 322 323 325 327 327 327 326 324 323 322 320 320 320 321 322 322 321 319 317 319 321 319 317 317 317 315 314 315 317 317 318 318 319 321 320 318
314 316 318 319 320 320 319 321 323 321 322 323 323 323 323 324 325 327 327 326 325 322 322 320 321 321 320 320 320 321 320 319 319 319 320 320 319 318 318 319 319 319 319 319 319 319 320 319 319
312 315 316 317 319 321 321 321 321 321 321 322 323 323 323 324 325 326 327 326 325 324 321 320 319 320 320 321 320 320 320 319 319 319 318 317 317 318 318 318 319 319 319 319 319 319 319 319 317
317 316 315 317 317 319 320 321 321 322 322 323 323 323 322 324 325 325 326 326 326 325 323 318 319 318 318 319 320 320 320 320 320 319 319 318 318 318 318 319 319 319 319 319 319 317 316 316 315

GFSSGP_850_thetae_099.txt.gz
Theta_e
312 315 320 321 323 324 325 324 323 322 323 324 324 324 325 324 325 327 334 337 324 339 343 342 339 335 335 337 337 331 327 327 327 325 322 319 319 318 316 320 331 325 320 322 316 314 312 311 310
319 319 321 323 323 326 325 324 323 323 322 322 323 323 324 326 325 327 331 335 326 336 342 344 339 336 335 338 336 333 328 328 329 327 322 319 318 319 319 319 330 323 319 316 313 311 311 311 311
319 320 322 324 325 325 324 324 323 322 321 321 322 323 324 324 327 328 336 328 331 337 340 342 342 337 335 339 336 335 330 328 330 328 321 319 318 321 323 319 328 324 317 312 311 311 311 310 309
317 317 318 321 323 325 323 323 322 322 321 322 322 324 323 325 325 332 335 332 333 335 338 340 341 340 336 337 336 336 331 330 331 326 319 319 323 324 327 326 323 322 313 311 311 309 308 308 308
317 319 321 322 322 323 323 322 321 322 322 323 323 324 322 324 328 333 335 330 329 334 338 332 334 336 338 335 336 337 333 331 331 327 319 320 326 329 327 327 326 323 312 310 309 309 308 308 308
319 319 322 323 323 323 323 321 321 322 322 322 323 323 323 328 330 331 332 328 325 324 336 328 329 334 330 331 335 339 335 334 332 326 320 321 327 328 327 329 324 316 311 311 310 309 309 308 307
321 322 322 322 322 322 323 321 322 322 322 322 322 324 323 326 333 334 331 325 324 324 325 328 327 329 328 324 323 333 336 335 331 326 323 323 321 325 328 327 318 313 311 315 312 312 310 309 308
318 321 321 322 322 321 322 321 321 321 322 323 323 323 324 333 335 334 331 328 325 325 326 329 327 329 325 325 326 325 338 335 332 326 325 321 322 324 328 320 316 313 314 318 315 316 314 310 309
318 319 321 323 323 322 321 321 321 321 322 322 323 325 325 330 332 333 334 336 334 328 329 326 328 328 324 325 325 326 330 334 332 329 324 320 325 320 324 325 318 317 319 320 318 317 314 311 310
319 320 321 323 322 321 320 321 321 321 321 322 323 323 325 331 332 332 333 333 335 334 332 332 328 325 329 325 326 328 333 333 331 328 323 324 324 325 329 325 325 321 321 321 319 317 315 312 310
319 320 321 322 321 319 320 320 320 321 322 322 323 323 324 328 332 333 334 333 333 333 332 329 330 325 327 328 324 329 330 326 334 329 325 326 322 326 329 326 327 323 322 322 320 318 316 319 317
320 319 320 320 320 319 320 320 320 320 321 320 321 322 326 328 332 333 333 334 333 333 332 329 330 329 327 328 328 329 328 326 332 330 325 326 324 327 329 327 324 322 323 322 321 319 322 322 320
321 321 320 320 320 319 319 319 319 319 319 319 320 322 326 330 331 333 335 333 332 332 332 329 330 330 331 330 332 330 329 327 330 326 325 328 324 325 327 327 324 326 326 323 323 323 325 324 321
319 320 320 320 320 319 320 320 319 320 319 320 321 324 328 331 332 334 334 332 332 331 331 329 329 330 330 330 331 330 329 326 328 325 324 326 324 326 326 326 326 326 327 326 325 324 324 323 320
318 319 320 320 320 320 320 321 321 320 320 320 324 326 330 331 332 332 332 331 331 331 329 328 328 328 328 329 330 330 329 328 327 325 324 323 324 327 324 326 326 326 326 326 325 326 323 321 319
320 320 321 321 322 321 321 321 322 322 322 324 325 325 329 331 331 331 331 331 330 330 328 328 328 328 328 327 327 330 330 329 328 328 325 323 325 328 324 326 326 326 326 327 325 324 321 319 317
319 321 322 323 323 322 321 322 322 324 324 324 324 324 326 331 332 331 330 330 329 329 327 328 327 327 326 326 326 326 327 328 328 328 327 323 324 326 324 324 322 326 326 325 324 322 319 318 317
319 321 322 323 323 323 322 322 322 322 324 324 323 323 325 328 331 332 330 330 328 327 326 327 328 327 326 325 327 325 325 326 327 329 328 325 322 322 322 316 318 323 324 323 322 320 319 319 319
319 321 323 323 323 322 322 323 322 322 322 323 323 323 324 327 330 331 329 329 328 326 326 327 326 325 325 326 326 325 326 326 328 328 327 327 323 322 317 314 322 322 322 320 319 319 320 320 319
318 320 322 322 322 322 322 323 322 322 322 321 323 323 324 326 330 330 329 328 327 325 325 327 326 326 325 326 325 325 327 327 327 328 327 327 324 321 320 320 320 320 319 319 319 320 321 320 319
318 320 321 322 321 322 322 322 323 322 322 320 321 323 323 325 329 330 329 328 328 327 325 326 327 326 325 326 325 326 326 327 327 328 327 327 326 318 319 317 320 318 319 319 319 320 320 320 318
316 318 318 319 320 322 322 323 323 323 321 322 323 323 324 324 326 330 329 327 328 327 325 324 325 325 326 326 325 326 325 325 325 326 326 326 322 317 315 319 319 317 319 320 318 318 319 320 319
315 316 317 318 320 321 321 322 322 323 322 322 323 323 323 325 327 329 329 328 327 327 326 325 324 324 325 325 324 325 323 325 325 324 324 322 319 318 318 319 317 316 319 321 318 317 318 319 319
316 317 317 319 320 323 322 323 323 323 323 325 325 323 324 325 328 329 329 328 326 326 327 327 323 323 324 325 325 324 323 324 324 324 322 321 323 322 318 317 317 317 318 319 318 317 318 317 318
316 317 319 321 324 325 323 324 324 323 323 325 324 324 325 326 328 329 329 328 327 326 326 324 325 323 324 324 325 325 325 325 323 321 320 320 320 322 321 319 318 319 320 320 319 317 317 317 316
316 316 321 320 323 325 324 323 323 323 322 323 324 323 324 326 328 329 329 328 327 327 326 323 323 323 323 324 323 322 322 322 320 320 321 319 319 319 319 320 320 319 317 317 317 317 316 317 318
314 318 318 320 321 323 325 324 323 324 324 324 323 323 323 326 328 329 329 329 327 327 327 325 324 323 322 324 324 323 322 321 317 315 318 319 320 319 318 318 318 319 318 317 317 317 317 317 317
313 315 318 319 321 321 321 322 324 324 322 323 324 324 323 324 327 329 329 329 328 327 327 325 325 325 324 322 324 323 322 322 321 317 318 320 322 321 320 319 318 317 316 316 316 315 317 317 319
312 314 315 317 318 321 323 323 323 323 322 323 324 324 324 325 326 328 329 329 329 328 327 326 325 324 324 324 323 323 323 323 322 322 322 321 321 320 320 319 318 318 319 319 319 318 318 319 320
317 315 315 319 317 318 322 323 322 322 322 322 324 324 324 324 326 327 329 329 329 328 327 326 325 325 325 324 323 323 323 323 321 321 321 321 321 321 320 320 320 320 320 320 320 320 320 320 320

GFSSGP_850_thetae_102.txt.gz
Theta_e
312 314 319 322 323 323 325 325 325 323 323 324 324 324 323 322 323 328 335 333 324 341 341 340 341 337 337 337 336 334 327 326 326 323 321 321 321 319 322 322 322 323 321 321 317 315 315 314 313
315 320 320 322 325 324 326 325 324 323 323 323 323 322 323 325 325 327 335 330 325 329 341 340 340 339 336 336 338 333 328 326 327 324 322 326 323 320 322 323 323 321 319 319 316 313 311 311 311
318 321 321 324 326 325 326 324 324 323 322 322 321 322 323 324 327 333 332 328 326 329 337 341 342 341 337 335 336 337 331 327 328 325 330 326 324 326 324 326 320 323 327 325 312 311 311 311 312
319 319 319 320 321 323 324 324 323 323 322 322 323 323 323 325 325 330 328 326 328 335 336 331 333 336 339 336 335 337 333 329 328 327 329 328 327 323 325 328 322 321 316 317 311 311 311 310 312
319 319 321 322 323 323 324 323 323 322 322 322 322 323 323 322 329 326 324 324 325 333 336 327 325 327 334 337 337 336 336 332 329 328 328 324 328 326 326 327 325 321 312 311 310 309 308 308 313
319 319 321 321 323 324 324 323 322 322 322 322 323 323 323 327 329 332 326 325 325 325 328 324 323 325 327 331 339 336 337 334 330 330 328 325 328 327 330 329 323 316 313 310 309 309 309 308 312
319 321 322 323 323 323 323 323 323 323 322 323 323 324 322 331 331 332 329 328 326 325 325 323 323 324 325 332 334 335 335 333 333 331 326 325 331 326 329 328 321 315 312 310 310 310 309 308 311
319 321 321 321 322 323 323 322 322 322 322 322 323 323 324 335 332 330 327 326 326 325 324 324 323 325 325 327 330 329 329 323 326 332 326 324 328 331 329 328 321 312 310 311 310 310 308 308 312
319 320 320 321 322 324 323 322 322 321 321 322 322 322 324 329 333 333 334 336 335 334 329 329 328 326 326 328 328 326 325 325 323 332 327 331 327 331 329 325 315 311 312 312 312 311 310 309 310
320 321 320 321 322 323 322 321 321 322 321 322 322 322 323 329 332 333 333 334 336 337 336 333 332 330 327 326 325 326 324 325 325 333 325 326 329 329 328 320 313 314 314 315 315 312 310 310 312
319 320 320 320 321 321 321 321 320 321 321 321 322 322 323 330 332 332 333 333 334 334 336 332 330 329 326 325 325 325 325 324 328 331 326 327 330 329 326 321 314 318 317 317 316 313 312 310 314
320 319 320 320 321 321 321 321 321 321 321 320 320 321 322 325 328 331 333 334 334 334 334 333 331 330 326 327 326 327 324 330 333 331 329 332 329 326 326 322 316 319 319 318 316 314 312 310 317
321 321 320 321 321 321 321 321 321 321 320 319 319 320 321 325 329 330 333 335 335 334 333 331 330 331 328 327 326 327 328 326 330 331 330 328 327 325 327 324 323 320 321 319 317 316 321 320 319
322 322 321 321 321 321 321 321 321 320 320 320 320 320 322 325 329 331 334 335 333 333 333 332 330 330 331 331 328 329 330 328 326 327 331 328 325 326 327 325 325 322 322 320 318 322 324 323 321
320 320 320 320 320 320 320 321 321 321 321 321 321 321 323 328 330 332 335 334 334 333 331 330 329 330 331 333 331 330 331 328 326 329 328 327 324 325 327 326 325 323 323 322 320 324 325 324 321
320 320 322 321 321 321 321 322 322 322 322 322 321 323 325 328 330 332 332 332 332 332 330 330 329 330 329 329 331 331 330 328 326 325 326 325 324 325 327 324 323 323 326 324 323 325 324 322 320
317 319 320 321 322 323 323 323 323 322 323 324 324 324 324 327 331 332 332 332 332 331 329 329 328 328 329 329 329 329 330 329 328 328 327 325 325 325 326 324 324 326 326 326 325 325 323 320 319
317 319 320 320 321 322 323 323 322 322 322 324 325 324 324 324 332 332 332 331 331 329 327 327 328 328 327 327 326 327 328 330 330 328 327 325 324 324 326 324 325 326 326 325 326 325 322 319 317
315 317 319 321 321 322 324 324 323 323 323 323 323 324 324 324 328 333 332 331 331 327 325 326 327 327 327 326 324 326 326 328 329 329 327 325 324 326 325 325 325 325 325 324 325 323 320 318 317
314 317 318 319 320 321 323 323 323 323 323 323 322 322 323 324 330 332 331 331 330 326 326 327 327 326 326 324 326 324 324 325 326 330 328 327 325 325 324 325 324 324 324 324 323 322 319 320 319
315 315 318 319 319 321 322 323 323 323 323 323 322 322 322 323 330 332 331 331 330 325 328 326 327 326 326 325 325 325 326 326 326 326 329 327 325 324 324 324 320 321 318 323 323 321 320 321 320
316 315 316 316 318 321 321 323 323 323 323 324 324 323 321 323 324 331 331 331 330 326 328 327 327 325 326 326 325 325 327 327 327 326 326 327 326 325 322 320 317 315 317 321 320 319 320 321 320
317 316 315 316 318 319 319 321 321 322 323 323 324 322 323 324 324 332 331 330 329 327 329 326 327 327 326 326 325 325 326 327 328 327 327 328 326 324 321 319 316 315 320 319 320 318 320 320 321
317 316 316 317 317 320 319 320 322 323 323 323 324 323 324 323 325 330 331 330 329 328 328 325 326 327 325 325 325 325 325 326 326 326 327 327 327 325 320 320 314 319 319 320 317 319 318 319 321
316 317 318 318 320 320 319 321 322 323 323 324 324 324 324 325 327 329 330 330 328 329 326 327 324 327 324 326 325 325 325 325 324 324 324 323 323 322 319 317 315 317 319 318 316 316 319 319 318
314 317 319 321 321 323 321 327 324 324 323 323 324 324 325 325 328 329 330 330 328 328 324 327 325 325 324 325 325 324 324 324 324 324 323 323 321 319 318 317 315 316 318 316 315 319 319 317 317
313 316 317 319 320 321 322 323 325 325 323 323 323 324 324 326 328 329 330 330 328 328 325 325 326 325 326 324 325 325 325 324 325 324 324 323 322 321 317 316 316 317 318 315 319 320 318 317 317
312 313 316 318 320 322 320 322 327 326 325 324 324 325 324 325 328 329 330 330 329 329 328 324 325 323 324 324 324 323 322 322 323 322 322 321 321 321 322 319 317 317 317 318 317 318 317 317 317
312 313 314 316 318 321 323 321 323 324 325 324 324 324 324 323 327 329 330 330 329 329 328 327 325 325 323 324 324 324 323 322 320 319 321 320 319 319 319 320 321 320 320 319 317 318 318 317 316
317 315 314 316 317 319 320 320 321 322 323 323 323 323 324 324 325 328 329 330 330 328 328 327 326 326 325 323 327 325 322 322 321 321 318 316 318 321 321 321 320 319 318 318 318 317 316 318 320

GFSSGP_850_thetae_105.txt.gz
Theta_e
311 313 318 320 318 315 317 319 319 321 321 322 322 322 321 321 321 326 335 327 325 324 325 332 338 337 336 335 334 331 326 326 326 323 321 322 323 322 322 321 323 323 320 318 318 320 325 325 326
312 316 320 321 318 319 320 319 319 321 322 321 321 321 321 322 331 336 334 330 325 326 326 324 331 339 336 336 335 333 328 326 326 323 323 322 323 322 320 322 322 321 320 317 316 316 318 317 313
313 321 322 316 318 319 319 320 318 320 322 321 321 321 322 324 332 333 329 325 323 323 324 325 330 330 337 336 336 335 334 327 326 325 322 323 325 324 323 322 320 319 318 316 314 313 311 311 312
316 320 321 314 315 316 319 320 321 321 322 321 322 322 322 324 326 326 324 321 323 323 326 328 327 328 328 332 337 336 336 330 329 326 323 322 327 324 326 325 321 318 316 314 311 311 311 312 321
317 318 313 315 316 318 319 321 321 320 321 322 323 321 323 324 327 327 322 322 324 325 324 327 325 326 328 326 334 336 337 334 329 329 325 328 327 326 330 328 325 319 313 311 311 311 315 319 324
319 317 313 314 316 318 319 322 321 321 322 321 321 322 324 328 328 327 324 324 324 328 325 325 325 326 326 328 332 336 336 336 331 330 327 329 328 325 328 328 326 317 311 311 310 310 314 317 324
315 313 314 314 317 318 319 322 320 320 322 322 323 322 331 330 329 328 327 326 323 326 326 325 325 324 326 327 333 337 338 336 334 332 327 330 328 325 322 327 327 314 311 310 308 309 316 321 323
319 312 314 316 317 316 319 322 322 321 321 321 322 321 323 328 330 330 329 324 324 326 326 325 323 323 324 325 327 336 337 336 335 333 327 329 329 327 329 328 322 313 310 309 309 308 312 320 321
317 314 315 315 316 317 319 320 321 321 321 321 321 322 322 326 331 329 327 328 330 332 333 333 329 329 327 325 326 327 330 332 332 332 327 329 329 326 328 330 321 311 309 310 310 308 309 313 320
314 313 315 316 317 317 319 319 319 320 321 321 321 322 322 329 330 329 328 329 332 333 335 334 333 332 327 327 326 327 328 330 332 329 326 328 327 322 328 330 319 309 309 310 309 309 310 317 321
317 315 315 317 319 319 318 318 320 318 316 319 320 321 326 329 331 331 332 332 333 334 334 334 334 332 328 328 326 324 325 324 326 327 323 326 327 327 330 327 314 310 310 310 309 309 310 315 320
317 317 317 317 318 318 317 319 318 319 319 320 320 319 321 328 331 332 331 331 333 334 334 334 334 330 328 326 325 325 325 324 325 325 325 323 329 326 331 325 312 311 312 312 310 310 311 319 321
317 317 318 319 319 319 320 318 319 319 320 320 320 320 319 326 328 330 331 332 334 334 334 333 332 329 329 326 326 327 327 327 327 326 327 327 325 325 330 319 313 313 314 314 311 310 311 319 320
319 319 319 319 319 319 318 318 320 320 320 320 320 320 320 320 324 329 330 332 334 335 333 332 329 329 331 327 327 326 327 327 329 327 328 326 325 330 327 318 314 315 317 316 313 311 312 320 321
317 317 317 318 318 317 318 317 317 320 320 320 320 321 320 320 324 327 328 331 333 333 332 332 328 330 331 331 328 327 329 326 329 328 328 326 330 328 325 317 316 318 318 316 314 315 316 318 321
312 312 316 317 318 319 319 318 319 320 320 320 320 321 321 322 325 328 331 332 333 334 333 330 328 329 330 330 330 328 330 328 328 330 328 328 327 326 326 319 317 320 319 317 319 321 322 322 320
310 311 312 315 317 318 319 319 318 319 320 320 321 320 321 324 326 330 332 332 332 332 332 330 327 328 329 330 330 331 331 328 326 327 329 327 325 325 326 324 322 320 321 319 321 325 324 323 322
310 311 313 315 316 318 319 319 319 320 320 320 321 324 324 324 326 331 332 332 332 331 331 329 327 328 328 328 328 330 330 329 327 328 328 327 325 324 324 324 324 322 322 321 323 325 324 323 320
308 310 311 312 315 318 318 318 319 319 320 318 320 322 324 324 326 331 331 331 331 330 330 324 327 327 328 328 328 328 329 330 328 328 326 324 324 323 323 324 323 322 322 323 323 326 324 322 319
308 310 311 312 315 316 316 318 318 318 320 320 320 321 321 321 328 332 332 331 330 330 326 323 326 328 327 326 325 325 326 328 328 328 326 325 325 324 323 324 323 323 323 323 324 325 323 320 317
312 313 311 311 313 315 316 318 319 319 319 321 322 322 322 322 331 332 332 331 331 329 322 324 327 327 326 325 323 325 324 325 327 329 328 326 325 325 324 324 324 324 324 325 325 324 323 319 317
313 314 314 314 313 313 316 319 318 317 318 319 320 321 321 322 331 332 331 331 330 326 321 325 329 326 325 326 326 325 324 325 325 326 328 327 325 325 322 325 326 326 325 325 324 323 322 319 319
313 315 315 314 313 313 314 316 317 317 318 319 319 320 321 323 329 332 331 330 329 327 319 323 328 329 325 325 324 324 324 325 326 325 327 327 326 325 326 325 325 325 325 323 322 319 321 320 320
314 315 315 314 313 314 315 316 316 316 317 319 320 321 321 322 329 331 331 330 330 327 320 322 328 326 325 326 325 325 325 326 327 327 326 326 325 324 326 324 324 324 321 320 321 321 320 320 319
314 313 315 316 315 316 315 317 316 318 318 319 320 321 323 322 329 331 331 330 329 327 320 322 327 326 326 325 325 325 325 327 327 327 326 325 324 324 326 325 324 319 317 317 317 318 319 317 317
311 311 315 318 317 316 318 322 320 319 320 322 321 322 325 329 330 331 330 330 329 327 322 320 325 325 325 324 327 324 324 325 326 325 326 325 326 324 325 324 323 320 317 316 318 319 318 315 318
309 312 312 316 316 318 318 318 318 324 323 323 321 322 325 329 331 331 330 330 329 328 322 321 323 324 324 323 326 324 325 324 325 324 325 326 326 326 325 324 321 319 318 316 319 319 316 316 318
309 310 311 316 320 320 317 317 320 323 322 323 322 322 323 328 329 330 330 330 330 328 323 321 321 323 322 323 325 324 324 323 323 324 323 323 323 324 324 322 320 318 318 318 318 318 316 317 316
315 309 309 311 318 318 319 318 322 324 323 323 322 323 321 324 328 330 330 330 330 329 326 320 322 322 322 322 324 325 325 324 324 324 324 323 323 321 321 321 320 318 317 316 318 317 316 315 319
314 315 315 309 312 316 316 316 317 320 320 321 320 322 322 323 326 330 330 330 329 329 328 323 321 322 322 321 323 324 324 323 322 323 323 322 322 322 322 320 318 318 317 316 318 317 316 318 318

GFSSGP_850_thetae_111.txt.gz
Theta_e
311 312 313 319 316 311 315 315 315 318 320 320 321 320 318 319 318 319 324 323 323 322 322 321 323 335 333 330 328 325 326 328 330 332 335 338 339 338 335 333 332 331 327 325 326 327 328 328 327
311 313 319 318 315 316 315 315 317 316 319 321 320 320 319 324 327 329 325 325 323 322 322 322 322 332 335 331 330 325 326 326 327 331 335 338 338 336 334 333 332 329 326 324 324 326 328 329 331
311 314 320 312 312 316 317 317 318 317 320 319 319 320 321 325 327 326 327 327 324 323 322 322 322 324 335 333 331 329 325 326 325 326 330 333 333 333 332 329 326 324 323 321 320 326 329 330 330
312 318 317 313 314 314 316 318 317 316 319 320 319 320 322 323 323 324 326 327 322 321 321 322 322 323 330 336 333 332 329 326 326 324 325 329 331 329 326 323 320 321 321 320 320 324 329 327 327
316 317 312 311 311 312 313 315 316 315 317 319 320 320 321 325 325 324 325 324 322 321 322 321 323 323 325 330 335 334 332 328 326 325 324 325 327 325 325 322 322 320 320 324 319 322 324 322 315
315 312 309 311 311 312 313 317 317 316 317 320 320 319 322 325 326 325 324 324 322 322 323 322 324 324 325 328 330 334 335 332 328 329 326 324 323 324 324 323 324 318 321 318 318 320 315 312 315
312 308 310 311 311 314 316 318 316 316 319 320 321 320 326 323 325 325 325 323 322 323 323 323 324 325 327 329 331 332 334 335 332 331 329 327 324 327 326 326 326 318 328 321 316 312 314 319 323
316 310 312 311 314 314 315 316 317 318 317 319 321 326 328 322 326 326 325 323 323 325 324 323 324 325 326 327 327 332 333 336 334 332 327 324 325 327 326 326 327 319 315 314 314 317 324 324 321
316 310 312 314 312 313 315 315 317 317 317 318 320 320 322 323 326 328 327 325 326 326 325 324 325 325 325 325 325 326 329 336 335 333 329 327 326 328 327 323 326 326 312 312 316 325 326 326 324
312 309 311 311 312 313 315 315 316 315 316 317 318 319 319 320 326 328 327 326 326 327 325 326 327 327 329 326 326 326 326 331 335 334 333 329 327 328 325 324 322 326 312 313 319 326 327 326 323
312 314 310 313 314 314 313 313 315 314 313 316 316 318 319 319 325 327 327 327 327 327 325 327 329 332 333 332 331 331 327 329 332 334 332 330 327 328 325 325 322 327 313 315 324 326 324 323 323
315 312 314 314 317 315 312 316 313 315 315 319 318 318 317 320 323 325 327 327 328 327 326 329 332 334 333 333 332 328 325 327 328 332 332 331 327 327 326 324 321 327 313 318 324 324 321 322 321
313 314 316 317 318 317 316 313 314 315 319 319 319 318 318 321 324 324 325 327 329 327 328 330 332 334 334 333 332 326 326 327 326 328 331 328 330 327 326 327 318 328 312 316 323 321 320 321 321
315 315 315 316 316 316 315 315 315 317 319 318 318 319 319 319 320 324 327 327 329 327 327 331 332 334 334 333 329 326 325 324 324 325 326 328 329 327 327 326 322 328 312 312 322 320 320 320 320
312 311 310 311 314 314 316 316 313 318 318 318 319 320 320 320 320 319 320 322 327 327 328 330 332 334 333 329 327 326 325 325 326 327 327 327 329 327 327 325 322 328 310 309 320 320 320 320 320
310 310 311 314 314 315 315 317 316 317 317 318 318 319 319 319 319 321 318 320 326 327 328 331 333 333 331 327 328 327 327 326 327 328 326 328 328 326 327 327 321 328 310 309 316 319 320 320 320
307 310 310 311 313 313 312 311 313 316 315 316 317 317 317 316 317 320 319 318 322 326 329 332 333 331 330 326 328 330 328 327 328 328 326 325 327 326 327 327 324 328 311 308 311 315 319 320 321
309 307 308 310 310 311 309 309 309 312 315 314 315 316 315 316 316 318 319 319 321 326 331 333 332 331 328 325 328 329 329 328 328 327 326 325 327 326 325 324 326 327 310 308 309 313 319 320 321
308 307 306 306 306 306 306 306 307 309 311 312 314 315 315 316 316 318 320 320 326 329 332 332 332 330 326 324 328 328 329 330 327 328 326 324 326 325 324 327 325 326 309 308 308 310 318 320 321
304 305 305 304 304 305 305 307 309 308 309 312 315 316 316 316 317 319 319 321 323 331 332 332 331 330 324 324 328 328 329 329 327 328 326 324 325 324 324 324 325 325 310 309 308 310 318 320 320
306 305 305 305 305 307 307 310 311 310 311 314 315 315 315 316 317 319 319 324 327 331 332 331 331 329 323 326 327 327 329 328 329 327 328 327 326 325 324 325 325 325 311 312 310 310 316 318 319
311 307 307 306 309 311 310 313 313 311 310 311 312 313 314 315 317 318 321 325 327 332 332 331 330 327 322 326 327 327 330 328 328 329 327 329 327 325 325 327 325 326 313 314 313 311 311 315 321
312 311 311 311 310 310 310 310 312 310 312 311 311 313 315 316 317 318 319 322 328 332 331 331 329 323 323 326 327 327 327 330 328 327 328 327 326 326 327 325 327 326 317 314 316 314 318 321 321
309 309 310 311 310 312 311 310 312 310 311 312 312 314 320 320 321 321 321 324 328 331 331 330 329 321 323 326 326 325 325 325 328 328 327 327 327 327 327 326 327 326 321 315 317 316 320 324 323
307 308 308 309 312 313 310 311 312 311 311 313 319 321 321 320 321 324 322 322 326 331 330 330 327 321 324 329 325 324 323 322 324 325 327 328 328 328 327 326 328 326 326 318 318 317 319 324 324
307 308 309 309 310 310 311 313 312 314 315 319 320 321 320 320 320 324 323 322 325 330 330 330 325 321 325 325 326 323 324 324 323 323 324 324 326 327 328 328 326 326 326 324 324 320 319 322 323
310 308 308 308 308 313 310 311 310 313 317 318 319 321 320 319 317 320 327 327 327 329 330 329 324 320 323 325 324 326 324 324 325 324 326 325 326 326 326 327 327 327 326 324 324 323 324 322 320
311 310 308 309 313 311 310 313 313 314 318 318 317 319 319 318 316 319 328 327 327 329 330 328 323 319 322 324 323 324 324 324 324 324 325 325 326 325 324 326 326 326 326 324 324 324 323 323 321
308 311 311 312 310 313 311 309 315 319 319 317 316 317 316 316 318 319 319 328 327 328 327 328 322 320 322 321 322 324 324 325 324 325 323 325 325 325 324 325 325 326 325 325 325 324 322 322 320
308 312 312 314 314 313 313 311 310 311 318 317 317 316 314 315 317 317 316 327 328 327 326 326 322 320 321 321 321 322 324 324 323 324 324 323 324 325 325 324 324 324 324 324 325 324 323 320 319

GFSSGP_850_thetae_114.txt.gz
Theta_e
315 311 313 319 316 311 316 315 314 317 318 319 319 318 317 319 318 317 326 324 324 322 320 321 321 326 333 332 330 328 329 332 336 338 339 338 335 332 332 332 332 329 328 327 328 327 327 330 327
311 312 318 317 313 315 313 314 317 316 318 319 319 319 319 320 323 325 325 325 325 321 321 322 322 328 334 330 330 326 326 329 333 338 339 337 336 334 333 332 332 330 329 328 328 330 331 331 327
311 314 319 310 310 314 315 315 316 316 316 319 317 319 320 323 323 324 325 326 324 321 321 322 322 327 334 332 330 327 325 327 328 333 337 338 338 337 334 333 332 331 332 331 332 332 330 327 328
311 316 315 313 313 314 315 317 316 314 318 318 319 318 320 322 322 322 325 326 324 321 321 322 322 324 333 333 331 330 326 327 328 332 335 339 338 336 333 333 332 329 327 331 332 330 327 328 329
315 316 311 311 310 311 312 315 315 315 315 317 318 318 321 322 322 323 325 324 323 322 321 322 323 323 328 334 333 332 328 327 327 329 328 329 336 334 333 333 330 328 326 329 330 332 329 328 327
313 312 310 310 309 311 312 315 315 315 316 316 318 319 321 322 322 323 323 323 323 321 322 322 325 325 324 334 334 334 332 329 327 326 328 330 328 328 327 323 324 328 328 329 330 329 328 327 325
309 307 309 310 309 312 312 316 315 315 316 318 318 319 321 321 323 324 324 326 324 321 322 322 324 327 327 327 331 332 333 332 329 327 327 325 326 324 324 326 323 324 326 327 329 326 324 323 318
314 309 310 310 312 312 314 316 316 316 315 317 319 321 323 323 324 323 325 327 325 323 323 324 324 327 328 328 329 331 333 333 331 328 329 327 325 324 326 326 325 324 325 328 325 320 320 314 314
315 310 310 312 312 312 314 314 316 316 316 316 317 318 318 318 321 324 326 327 324 323 325 325 325 326 327 329 327 331 335 335 333 331 330 330 327 324 325 324 323 322 325 327 321 316 313 318 323
311 309 310 311 310 312 314 314 315 314 314 316 317 319 318 317 319 323 325 326 325 324 324 325 324 326 326 327 327 327 331 335 335 334 332 331 326 324 324 326 328 323 325 325 316 315 318 323 324
312 312 310 312 313 315 312 312 315 314 312 316 317 319 318 317 319 323 323 325 324 324 325 326 325 326 326 326 326 325 326 331 334 335 334 331 327 324 327 327 324 323 325 323 319 323 324 325 324
312 311 312 313 315 314 312 315 313 315 315 318 318 319 318 318 318 319 323 323 324 325 325 327 326 327 328 330 331 330 329 330 334 332 334 332 328 327 327 326 324 325 324 316 322 325 326 326 324
313 313 315 315 316 317 316 313 314 313 317 318 318 318 318 318 318 319 323 323 326 327 326 327 327 327 329 331 332 332 332 330 331 331 333 332 331 328 327 327 325 325 323 312 321 326 327 325 323
314 313 314 315 315 315 314 313 314 316 318 317 317 317 318 318 319 319 320 321 324 324 327 328 328 328 330 332 333 333 332 329 327 328 330 331 330 328 328 327 324 324 322 311 318 326 326 322 322
311 310 310 310 312 312 315 313 312 317 318 316 317 318 318 318 318 317 316 317 320 320 325 327 329 329 331 333 334 332 330 326 326 327 327 328 330 329 327 327 325 321 321 313 319 325 322 321 321
309 309 310 312 311 313 314 316 316 316 314 314 313 313 317 316 316 314 315 316 318 320 319 326 330 330 332 334 333 330 327 326 324 324 325 327 328 329 327 327 325 322 324 314 320 323 320 320 320
306 309 309 310 312 313 312 314 310 313 311 310 311 312 314 314 314 314 315 316 317 320 318 320 329 329 331 334 331 327 327 326 326 325 327 327 327 328 327 328 326 325 326 313 317 323 319 320 320
309 308 307 309 310 309 309 308 306 308 308 309 310 312 313 314 314 314 315 316 317 320 319 318 328 330 332 332 329 326 329 327 326 326 327 328 327 327 327 327 327 321 325 314 314 322 319 320 320
308 307 307 307 307 306 307 305 303 305 306 307 311 312 313 314 314 314 315 316 319 320 321 320 327 331 333 331 327 325 328 329 328 328 326 326 326 326 328 327 327 322 326 314 310 321 319 319 320
305 305 306 305 305 304 303 304 305 306 307 310 311 312 313 314 314 315 316 317 319 319 322 323 329 331 332 330 326 325 328 329 329 328 328 326 325 325 327 326 326 320 326 317 309 318 319 318 320
303 303 304 305 305 305 305 308 309 308 308 312 313 313 313 313 314 316 316 317 318 319 322 326 331 331 331 329 324 326 328 328 329 327 327 324 326 327 327 326 327 325 326 318 308 311 316 318 320
310 307 308 309 306 309 310 310 310 310 310 310 311 312 313 317 320 320 319 316 318 320 324 330 332 332 331 328 324 326 328 328 328 327 326 325 326 326 325 325 325 325 326 317 308 309 313 317 320
311 309 308 308 308 309 309 309 308 309 309 309 309 312 319 321 320 320 322 321 320 321 324 329 332 332 330 326 324 326 327 327 328 327 329 326 325 325 325 324 325 324 326 323 309 308 309 316 319
309 309 309 309 308 310 308 308 308 308 310 310 312 319 320 320 318 318 319 325 321 322 324 330 332 331 330 326 325 325 327 328 327 328 327 329 328 326 326 324 324 323 324 326 312 309 308 312 319
307 307 308 306 312 309 309 309 309 309 309 317 318 320 320 319 318 318 319 324 324 325 325 329 332 331 329 325 325 325 327 326 327 327 327 328 328 328 326 325 325 325 326 325 322 310 310 309 317
306 307 309 308 308 307 310 310 310 311 315 317 317 318 319 319 318 319 318 318 326 325 325 328 331 330 328 324 322 324 326 326 326 327 326 327 327 327 325 326 326 326 325 325 326 314 312 310 312
309 309 308 308 307 310 307 308 308 312 314 315 315 317 316 315 315 318 318 317 319 326 325 326 330 329 328 323 320 325 324 323 322 323 324 325 327 327 326 328 327 326 325 325 326 322 314 315 316
310 310 309 309 312 311 308 311 310 316 317 316 315 315 314 313 314 317 318 317 317 323 326 325 328 328 326 322 320 325 323 323 323 322 323 323 324 324 324 326 326 327 326 326 326 324 317 316 316
308 310 311 312 311 314 314 308 313 310 316 316 314 316 316 315 314 317 318 319 320 323 326 324 327 327 324 322 321 322 322 321 323 323 323 323 325 326 326 325 325 326 326 327 326 326 324 318 318
310 311 311 311 313 312 313 311 310 306 307 309 316 317 317 315 316 318 318 320 322 325 326 325 325 327 324 323 323 322 322 322 324 323 323 324 323 325 325 325 325 325 326 326 326 326 325 323 321

GFSSGP_850_thetae_120.txt.gz
Theta_e
317 311 316 320 323 324 324 325 324 324 324 323 323 326 326 324 326 325 325 334 330 329 321 322 322 322 321 327 331 333 333 331 332 337 339 338 335 333 333 333 338 339 339 335 333 333 333 333 332
317 311 318 320 322 323 323 325 325 324 322 321 322 322 323 325 323 327 331 326 325 322 320 321 322 322 321 325 331 333 330 330 333 337 340 338 336 333 332 336 339 338 336 334 333 334 334 331 330
313 314 320 321 321 321 321 325 325 322 321 321 323 322 323 324 326 328 328 324 324 322 321 321 321 322 321 325 331 330 330 330 334 337 339 339 336 333 333 337 337 336 335 333 333 333 332 330 329
315 317 316 319 321 321 321 324 323 322 320 321 323 324 322 323 327 329 325 324 325 323 321 321 322 322 321 323 330 330 329 327 331 336 339 339 335 334 335 336 334 336 334 332 331 330 331 330 328
314 317 319 319 320 320 321 323 322 322 321 321 321 324 323 324 326 322 323 323 325 324 321 321 322 322 322 324 329 330 329 327 329 333 337 338 335 334 323 327 329 329 333 333 331 329 331 329 329
316 317 319 319 320 319 319 319 319 319 320 320 320 321 323 323 325 329 323 324 325 325 322 321 322 322 324 327 330 331 330 328 327 329 335 337 335 334 330 328 327 321 330 328 329 330 329 327 330
318 319 319 320 320 319 318 318 319 319 320 321 320 323 323 323 320 321 323 324 324 325 324 321 322 322 324 327 331 331 330 329 327 328 329 333 335 331 326 329 322 326 329 322 325 328 328 328 331
316 319 319 319 319 319 318 318 319 319 320 318 318 324 324 321 319 319 321 325 325 325 325 323 322 323 323 325 329 332 331 330 328 328 329 332 335 329 328 329 325 325 323 322 322 329 329 330 331
316 319 321 321 319 320 317 318 318 318 318 318 318 319 320 321 320 321 321 324 326 326 326 325 322 323 324 325 326 331 332 331 330 329 330 332 330 330 332 327 325 325 323 320 320 324 328 330 330
317 320 321 321 319 319 317 318 318 318 318 318 318 319 320 319 323 324 326 330 334 329 327 327 324 323 325 326 326 329 332 332 331 331 330 334 333 333 333 331 327 325 323 322 325 323 323 329 328
317 319 320 318 316 317 317 317 317 317 318 318 319 319 320 320 321 323 325 326 330 337 340 330 327 324 326 326 328 329 332 335 335 336 334 333 335 333 332 331 325 324 324 324 325 326 325 328 326
317 317 317 317 317 317 318 317 318 318 318 318 319 319 319 319 320 321 323 325 328 333 337 337 328 326 326 328 329 329 333 334 335 334 334 333 333 332 331 331 325 325 326 325 326 324 323 326 324
317 317 317 317 317 317 317 318 318 319 319 318 318 319 319 320 320 320 322 323 326 326 332 327 327 327 328 327 330 331 331 333 335 331 334 333 332 331 330 328 325 326 326 327 326 326 327 326 326
316 316 316 316 316 316 317 318 318 319 319 319 319 319 319 319 319 321 322 323 324 324 324 327 319 322 326 328 329 330 331 330 333 329 330 333 333 332 330 327 327 326 329 328 326 327 327 326 326
314 315 316 316 317 318 318 319 320 319 319 319 318 318 318 317 317 318 320 320 320 319 320 325 319 316 320 323 329 331 330 330 331 330 330 334 334 334 331 328 329 327 327 329 327 325 325 326 327
313 315 316 317 316 316 317 319 320 319 318 318 316 314 314 315 315 315 316 317 317 317 318 320 323 316 317 323 332 331 331 330 330 330 331 332 333 333 332 331 330 326 325 326 325 324 326 325 327
311 313 315 315 316 317 318 319 319 318 315 315 314 313 313 314 315 315 316 316 316 317 317 318 317 316 317 321 334 335 331 330 331 330 333 332 331 331 328 331 329 328 325 326 324 323 323 325 326
311 312 312 314 316 316 317 318 318 316 315 315 313 312 313 314 315 315 315 317 318 318 317 316 314 315 322 327 333 334 331 330 331 332 332 331 329 327 330 329 329 327 326 326 323 323 323 324 325
310 310 311 313 314 314 315 316 316 315 314 312 311 314 314 315 315 315 319 321 323 323 322 317 318 318 325 328 332 333 332 331 331 333 332 326 326 327 327 329 327 328 328 326 324 322 323 324 323
310 309 309 310 312 312 313 313 313 313 313 313 314 314 315 315 315 319 320 321 323 326 322 322 324 326 329 328 332 331 331 331 332 333 328 324 325 325 326 330 326 328 328 327 326 322 323 324 324
310 310 310 309 310 309 310 311 312 314 314 313 314 314 314 316 320 320 322 322 323 325 328 328 329 330 328 331 329 331 330 331 333 330 324 327 327 327 327 326 327 327 327 326 326 323 321 323 324
311 311 309 308 309 310 312 313 314 314 314 315 314 315 318 321 321 321 321 322 322 326 328 329 330 324 327 329 330 331 331 332 332 326 323 328 328 328 329 326 326 325 326 326 326 323 319 322 323
310 310 310 310 310 310 312 313 313 313 314 313 315 319 321 322 321 319 319 320 321 324 323 329 330 323 329 332 332 333 333 332 328 322 326 329 327 327 326 325 324 325 326 326 325 323 321 322 322
309 309 311 312 312 313 313 313 313 313 314 313 319 320 320 319 318 318 318 319 320 322 324 324 325 328 330 332 334 333 333 331 326 327 329 327 328 325 326 325 325 325 325 326 325 324 321 321 322
308 310 312 312 313 313 311 311 312 313 315 318 319 319 318 318 318 318 319 319 321 323 323 324 324 329 331 332 332 331 330 328 325 329 327 327 327 325 326 326 325 324 325 326 325 323 321 320 321
310 311 310 311 312 312 312 311 314 318 317 316 316 316 317 318 317 317 319 320 322 324 326 325 326 326 328 327 332 331 329 326 327 327 329 327 327 326 325 326 325 325 325 325 324 325 322 317 319
309 312 312 311 311 310 312 316 318 316 314 313 314 314 317 317 317 317 317 319 320 321 323 326 326 325 326 328 330 331 329 327 330 328 327 327 327 327 326 325 326 325 323 324 325 323 322 318 315
310 310 310 310 311 310 310 313 314 315 311 308 307 307 310 313 314 316 316 318 318 318 320 325 327 325 325 327 328 330 329 327 326 326 326 327 327 326 327 326 325 326 324 324 323 322 323 322 313
313 313 312 312 311 311 312 312 315 314 311 308 307 306 306 309 312 315 316 316 316 318 318 322 325 324 324 325 325 328 328 327 324 326 325 325 325 327 327 326 325 325 325 324 322 323 324 324 315
309 312 314 317 314 313 313 313 314 314 311 308 307 306 306 306 312 315 315 316 316 317 317 319 323 323 324 323 324 327 328 326 324 324 324 324 324 324 324 324 325 326 324 326 324 322 321 322 321

GFSSGP_850_thetae_123.txt.gz
Theta_e
314 313 317 320 324 324 324 326 327 327 327 326 326 329 329 328 328 329 328 333 332 334 325 321 322 322 321 325 329 330 332 334 334 335 337 338 337 334 333 333 335 336 337 336 334 333 333 333 332
322 318 318 322 323 324 325 326 327 326 326 326 325 328 326 326 324 326 330 330 331 333 324 321 322 322 321 322 328 330 332 331 331 333 338 338 337 335 334 334 335 338 338 335 333 332 333 333 332
319 317 320 323 323 323 324 326 326 326 324 324 325 325 325 326 325 327 330 330 332 333 328 322 322 322 322 323 328 329 329 329 331 334 338 338 337 335 334 335 337 338 335 334 333 333 333 331 330
318 317 319 322 323 324 324 325 327 325 324 324 325 326 325 325 326 327 329 332 332 333 334 323 321 322 322 323 328 330 329 328 329 335 339 339 338 335 337 335 329 335 328 334 332 331 331 329 329
318 319 322 322 322 323 324 324 325 325 324 324 325 326 325 324 327 329 329 332 332 334 335 322 321 322 321 322 327 330 329 328 327 333 337 339 338 335 333 331 325 324 324 327 332 330 330 329 328
318 319 322 323 323 324 323 322 324 324 324 324 323 324 325 328 327 329 330 332 334 337 337 322 321 322 322 322 325 330 330 328 327 331 335 338 338 335 333 327 325 327 322 324 325 329 330 330 329
320 323 323 324 324 323 323 321 322 322 323 324 323 325 324 326 327 332 333 333 338 341 330 323 321 322 322 322 324 328 330 329 328 328 334 336 338 336 334 330 329 324 326 323 323 328 328 329 328
319 323 323 324 324 324 324 321 320 320 322 322 322 324 325 325 326 331 336 336 340 342 332 327 323 322 323 322 323 327 331 330 328 328 333 335 335 336 335 329 330 325 325 324 327 326 327 328 329
320 322 323 324 324 323 323 321 320 320 320 321 321 321 324 322 324 328 334 338 341 341 332 329 325 323 323 323 323 324 330 331 330 329 330 331 335 336 335 329 330 326 325 326 324 326 327 326 330
321 323 323 324 324 324 323 320 321 320 320 321 320 320 321 321 322 325 326 330 338 341 343 339 332 326 324 324 324 324 327 331 331 330 331 330 335 336 336 333 330 327 327 324 324 325 325 325 327
321 322 323 323 323 321 322 321 320 321 322 320 320 320 321 322 322 323 325 325 327 335 341 343 344 332 328 328 325 325 333 332 334 336 337 334 334 336 335 334 333 328 326 325 325 325 326 328 328
321 321 321 321 321 320 321 320 321 320 320 320 320 320 320 321 322 322 323 324 325 328 336 342 344 343 334 338 328 327 332 338 338 338 337 336 333 335 335 333 333 331 329 327 324 325 324 326 329
319 320 319 320 319 319 319 320 321 321 321 320 320 320 321 321 321 321 322 322 325 327 331 338 343 344 340 339 330 327 337 333 338 339 337 336 336 335 334 333 332 331 331 327 325 324 323 328 325
318 318 319 319 319 319 319 320 319 320 320 320 320 321 321 321 321 322 322 322 324 327 330 335 339 343 336 336 329 328 329 340 335 339 338 337 336 336 334 332 332 331 330 327 326 324 326 328 326
316 318 318 319 319 320 319 321 320 319 320 320 321 321 321 321 321 321 322 322 323 324 325 327 333 337 341 330 328 331 329 334 340 338 337 337 336 335 334 332 332 331 328 326 325 327 325 326 326
316 317 318 319 319 318 318 320 321 320 321 321 321 321 321 320 320 319 320 321 321 321 321 321 321 328 336 339 331 328 329 332 337 338 336 333 335 335 334 333 332 331 328 327 327 328 327 327 326
315 316 317 318 319 319 319 319 320 319 320 321 321 320 318 318 317 317 318 318 318 318 319 319 320 321 326 334 339 336 328 332 334 337 335 330 334 334 335 333 332 331 328 327 328 327 326 325 325
313 314 315 315 316 318 318 319 320 320 320 320 318 318 317 315 316 316 317 317 319 319 319 321 321 321 323 328 335 338 338 335 338 336 337 335 334 334 334 333 332 331 330 330 328 326 324 326 325
312 312 313 314 315 315 316 317 318 319 319 318 318 317 316 315 315 316 317 320 322 323 325 325 325 323 322 326 332 336 338 337 336 338 335 336 335 333 333 332 331 331 328 329 327 326 323 325 326
312 312 312 313 313 312 313 315 316 316 318 317 317 315 315 316 317 317 319 321 323 324 326 329 329 329 329 328 332 335 336 335 336 336 333 332 333 332 329 329 328 328 329 327 327 326 324 323 325
311 312 312 312 312 311 312 313 313 313 314 315 315 315 316 317 317 319 321 322 324 326 330 331 330 330 332 332 334 335 334 333 334 334 331 331 332 330 329 327 327 329 328 328 327 327 323 322 323
313 312 311 311 312 312 313 312 313 314 315 315 315 315 316 318 320 320 320 321 323 325 330 332 332 332 333 333 334 332 332 331 332 334 332 332 332 327 328 328 328 328 329 329 327 327 323 323 323
312 312 312 311 312 312 311 312 313 315 315 315 316 316 318 321 320 319 319 320 321 324 325 329 332 333 333 332 334 332 331 331 332 332 331 333 329 328 329 329 329 328 329 326 327 326 326 321 324
312 312 311 311 312 312 312 313 314 315 316 316 316 319 320 320 319 319 319 320 321 324 326 326 328 330 331 333 330 332 330 334 334 334 332 329 329 329 329 329 328 327 327 325 325 326 326 318 323
310 310 312 311 313 317 313 313 313 315 315 316 318 320 319 319 319 319 319 320 321 323 325 328 327 328 330 331 331 332 332 333 334 333 328 329 329 328 327 327 325 326 325 325 325 325 325 318 324
312 311 311 314 316 316 314 314 315 314 319 319 319 319 319 319 319 318 318 319 320 321 322 325 327 328 328 327 330 332 332 333 333 333 331 331 329 327 327 325 327 325 324 324 325 324 325 321 322
312 314 312 312 313 313 314 315 318 318 319 318 317 317 318 318 318 317 317 318 319 318 319 322 326 327 328 327 327 331 331 332 332 331 328 330 330 328 326 326 325 327 324 324 323 323 324 322 321
313 313 314 314 318 315 313 314 317 317 316 316 314 312 311 312 313 314 316 317 317 317 319 321 322 326 327 327 326 328 330 331 331 330 330 329 329 329 327 328 326 326 325 324 323 323 324 322 320
311 314 312 313 315 314 314 312 314 317 314 312 310 309 309 308 308 312 315 316 317 317 319 319 320 322 325 325 325 325 328 329 330 330 329 329 330 328 327 326 327 326 326 324 322 322 323 322 322
310 312 313 319 314 314 314 314 315 316 313 312 310 309 308 308 307 308 314 315 317 318 318 318 318 319 321 325 325 324 327 329 329 328 327 328 328 327 326 327 326 326 325 325 324 323 322 323 322

GFSSGP_850_thetae_129.txt.gz
Theta_e
311 313 312 319 317 316 318 319 321 320 325 326 327 326 325 326 329 330 336 333 332 326 321 319 319 320 319 319 323 327 331 334 336 336 336 336 337 335 332 333 334 335 335 336 335 335 333 332 330
312 318 320 319 315 317 317 321 320 322 325 326 326 328 327 327 331 336 334 332 325 321 319 318 319 320 319 320 324 327 330 333 334 334 334 336 336 335 333 333 332 333 334 335 335 333 332 331 329
315 322 324 312 313 317 318 320 319 324 326 326 325 326 326 326 330 330 331 328 325 320 319 319 320 319 319 320 325 328 330 331 331 331 332 335 337 336 333 332 332 333 331 334 332 328 331 331 328
317 322 323 313 315 316 319 319 320 323 325 325 325 324 325 326 330 331 329 330 324 320 320 320 320 319 319 319 324 327 328 328 328 330 334 336 337 336 334 332 326 326 325 331 332 328 331 330 326
317 320 312 313 314 316 318 319 319 323 323 324 324 324 325 326 327 331 326 331 323 321 321 321 322 321 319 319 321 326 328 328 328 332 335 337 337 336 335 332 326 325 324 325 328 328 330 326 326
319 320 315 314 316 318 319 321 321 324 325 324 323 324 326 327 329 331 328 331 327 325 322 322 322 322 321 319 319 322 326 328 328 329 333 338 337 337 335 333 327 325 323 324 325 328 328 324 326
320 315 315 315 317 318 320 322 321 322 324 324 324 323 325 329 330 331 330 329 332 331 326 323 321 322 322 321 320 320 322 327 328 328 330 335 337 336 336 334 329 328 324 324 325 326 324 322 327
321 314 316 317 319 319 321 322 323 321 322 324 323 321 323 330 329 332 332 331 333 333 331 326 322 321 322 322 321 320 321 326 328 329 329 332 335 336 335 335 333 329 323 325 326 323 324 325 328
319 317 318 317 318 319 321 322 323 322 321 321 322 323 326 328 331 332 333 333 334 334 331 330 324 321 321 322 322 322 321 323 327 328 328 329 331 334 336 335 334 330 325 325 323 323 325 325 325
315 316 318 318 318 319 321 322 321 321 320 320 323 323 324 325 325 327 333 337 336 336 334 327 328 324 322 321 322 322 322 322 324 326 327 328 329 331 332 335 334 332 327 326 323 324 325 324 324
315 315 316 318 319 320 320 320 321 319 317 320 321 322 322 322 323 325 327 330 334 334 333 326 324 326 324 322 322 322 322 322 322 324 325 327 328 330 331 334 335 333 328 326 326 326 325 323 323
314 315 317 317 318 319 319 321 319 319 319 321 321 321 321 321 321 321 325 330 332 336 334 330 325 324 326 325 323 323 322 322 322 323 324 326 328 328 330 333 333 334 331 327 328 325 324 324 323
314 314 316 318 318 318 320 319 319 319 320 320 320 320 321 321 321 321 322 323 325 332 334 333 332 329 329 327 324 325 324 323 323 323 323 325 326 327 329 333 333 333 332 330 328 326 324 325 324
316 316 316 317 317 317 317 318 319 319 320 320 320 320 320 320 321 321 322 322 323 323 329 334 334 333 334 333 328 326 329 326 325 324 325 325 327 330 332 333 335 334 332 332 330 327 325 325 326
313 311 313 314 317 316 318 316 317 319 320 320 319 319 319 320 321 321 321 321 322 322 323 329 336 336 336 334 337 333 331 331 327 329 329 329 328 331 335 334 334 334 333 333 331 328 327 325 325
310 310 312 314 315 316 317 316 317 319 319 319 319 319 319 319 320 321 321 321 321 321 322 322 332 335 334 334 336 333 328 332 330 339 335 334 335 335 336 336 335 334 334 332 331 329 327 325 325
309 310 311 312 313 315 315 316 317 318 319 318 319 319 319 320 320 321 321 321 322 322 322 323 330 332 332 333 330 325 325 326 328 338 342 339 338 338 337 337 337 336 334 332 331 330 328 326 325
308 309 311 312 312 314 315 315 313 315 315 315 314 316 318 320 320 321 321 321 321 322 322 326 335 335 334 331 332 334 332 329 330 330 338 341 339 338 337 337 337 336 334 333 332 330 329 328 326
307 308 309 310 311 310 311 312 311 313 314 313 313 314 314 320 321 322 321 321 319 320 320 319 319 319 320 328 334 333 332 331 330 332 335 337 339 339 338 337 337 336 335 333 332 331 330 326 326
310 309 309 310 310 311 311 312 309 311 313 313 313 313 314 315 319 318 317 319 318 319 318 321 321 322 326 327 325 326 332 331 328 329 331 335 336 337 338 337 337 336 335 334 331 331 330 326 325
310 311 311 311 310 309 309 309 310 311 313 313 313 313 313 314 314 317 319 321 322 322 321 321 321 322 321 325 330 328 326 334 333 335 335 336 334 334 336 336 335 335 333 333 331 329 329 328 326
308 310 311 310 309 310 311 310 310 310 311 312 313 312 313 315 316 318 320 321 322 323 322 322 323 321 327 332 330 330 329 327 330 331 330 334 333 333 334 335 334 334 333 332 330 329 328 328 326
306 307 309 310 309 309 310 311 311 310 311 311 312 312 313 315 320 320 321 323 324 324 323 321 319 324 330 333 333 331 331 331 329 331 335 333 331 332 331 336 333 331 331 331 329 326 328 327 328
307 307 308 309 308 310 311 310 311 310 311 312 312 313 313 314 317 319 320 322 323 323 323 321 326 328 328 327 329 333 333 334 335 334 335 333 331 331 330 333 332 332 330 331 327 327 329 329 328
307 311 312 311 309 311 311 312 312 311 311 312 312 318 315 318 319 319 320 320 320 320 320 320 318 324 328 329 328 326 331 334 333 332 330 328 329 329 330 331 331 330 330 328 329 326 326 327 327
306 312 315 316 314 311 312 313 312 311 311 313 313 319 319 318 319 319 320 319 319 318 318 319 319 318 326 327 328 326 327 329 331 330 329 330 329 329 329 329 330 329 329 328 329 327 327 328 328
304 307 311 314 314 316 311 311 310 311 312 313 313 319 319 319 319 318 318 317 319 317 318 319 318 316 316 321 324 324 325 326 328 330 330 332 332 331 330 329 329 328 327 328 328 329 327 328 325
307 309 310 313 316 316 313 310 311 312 319 316 317 318 318 318 317 316 317 317 317 317 317 318 317 316 314 315 318 320 323 325 326 328 332 330 333 331 329 329 328 327 327 328 329 329 325 326 326
304 307 309 311 312 313 316 311 315 314 315 316 313 316 314 313 312 312 314 314 316 316 317 318 318 317 314 314 314 317 320 323 324 326 332 331 333 330 329 328 328 327 328 329 326 325 324 324 324
306 308 311 311 311 309 310 313 309 309 312 311 310 311 310 308 308 308 307 312 314 317 318 318 318 316 314 313 313 313 317 321 323 324 326 331 332 330 329 328 327 327 326 325 325 325 324 323 322

GFSSGP_850_thetae_135.txt.gz
Theta_e
314 311 313 317 312 311 315 315 316 318 319 321 323 323 325 326 326 326 333 334 324 322 322 321 320 318 318 319 322 327 331 334 336 336 336 334 334 330 329 329 331 332 333 334 334 334 334 333 330
310 312 314 317 311 312 309 314 318 317 320 320 323 325 325 330 334 335 333 326 323 322 321 318 318 317 318 318 320 324 329 333 335 335 335 334 334 331 329 329 331 331 333 333 334 333 332 330 328
311 317 320 309 308 311 311 313 316 316 319 319 321 323 329 332 333 333 331 324 323 320 318 317 318 318 317 318 320 323 327 332 333 334 333 334 335 332 330 330 332 332 333 334 333 331 330 328 326
313 319 318 312 311 311 312 316 314 316 319 321 321 320 325 328 331 333 330 322 320 318 317 317 317 317 317 317 319 322 326 329 331 331 332 334 335 332 330 330 329 329 329 333 331 331 330 327 327
315 319 315 312 311 310 312 315 316 315 316 320 321 320 324 329 332 331 330 321 320 318 317 317 317 317 317 316 318 321 324 327 328 328 330 334 336 334 331 326 325 326 328 332 330 330 330 327 328
315 315 313 313 312 312 313 317 317 318 319 320 320 321 326 331 331 331 326 320 319 318 318 318 318 317 317 317 317 321 324 326 326 326 330 335 336 335 331 326 324 324 325 325 329 330 330 326 328
312 310 314 313 313 314 316 318 318 317 317 319 320 321 326 330 330 330 325 320 319 319 318 318 318 318 318 318 318 319 323 325 326 327 331 334 336 335 331 328 326 325 323 325 326 329 330 325 326
319 313 317 314 317 316 317 318 319 319 318 320 320 319 328 327 330 330 325 320 319 319 319 319 319 319 319 319 319 319 321 324 326 327 328 333 335 335 334 330 328 329 325 325 324 330 326 326 325
317 314 315 317 318 317 318 317 318 319 319 319 319 320 324 329 330 330 327 320 320 320 320 320 320 321 320 319 319 320 321 322 325 327 327 330 333 334 335 334 330 330 326 325 325 329 323 321 323
312 311 314 314 316 315 317 316 317 317 317 318 319 320 326 330 334 331 330 324 321 320 320 321 321 321 321 320 320 321 322 323 323 325 325 327 330 332 333 334 333 332 327 325 326 326 323 326 326
311 314 314 314 316 315 314 315 316 316 315 317 318 319 320 328 331 335 331 329 327 326 323 321 321 321 321 321 321 321 322 322 324 324 324 325 328 331 331 332 333 333 329 325 325 325 324 324 324
308 310 310 311 312 313 312 315 314 314 315 317 318 318 319 321 324 332 334 332 329 329 329 329 328 326 324 321 321 322 322 322 323 324 324 325 326 328 330 332 332 333 332 327 325 323 323 323 324
309 310 312 312 313 313 314 312 313 314 315 316 318 318 319 320 320 320 327 333 333 331 330 330 331 331 330 327 321 321 322 322 323 324 325 326 326 326 328 331 332 333 333 330 326 325 323 324 324
308 307 307 309 311 311 311 312 313 315 316 317 317 318 318 319 319 319 319 319 325 333 332 332 332 332 333 333 330 323 321 322 323 323 324 325 326 326 328 329 331 332 333 332 329 327 326 325 324
307 305 305 307 311 311 313 312 312 315 316 316 317 318 318 318 319 318 319 319 319 320 330 333 332 333 334 334 332 328 324 322 322 322 324 325 325 326 327 329 330 331 331 333 332 328 327 327 324
306 306 307 310 308 310 312 312 313 315 314 315 315 316 316 317 317 317 317 317 317 318 320 331 332 332 333 334 333 330 328 326 325 324 324 325 325 327 328 328 330 330 331 332 333 330 328 328 325
302 304 305 306 308 308 309 309 311 312 311 311 313 314 314 315 316 316 315 314 314 315 319 325 332 331 330 332 334 335 334 333 333 331 329 328 327 327 328 329 330 330 331 332 332 332 330 329 326
305 304 305 306 307 306 304 306 308 309 310 310 312 312 313 314 314 315 315 315 314 316 318 321 323 324 327 332 336 337 338 339 338 338 336 335 332 330 330 330 331 332 333 333 334 333 332 330 328
304 303 303 305 304 306 305 306 307 308 307 308 310 312 313 313 313 314 313 314 315 316 319 319 321 321 322 327 334 335 335 337 334 332 330 333 333 332 335 334 335 334 334 334 333 333 333 331 329
306 305 304 304 304 304 304 305 306 307 306 309 309 310 311 312 313 313 312 313 314 318 317 319 320 321 321 324 331 332 332 332 331 328 329 331 332 331 334 333 335 336 336 335 334 333 332 331 330
301 304 304 304 303 304 304 305 306 307 307 309 310 311 312 312 312 312 313 314 316 319 322 321 321 322 326 332 332 335 335 333 331 330 329 330 335 332 332 333 334 334 334 334 331 333 332 331 330
301 304 305 304 303 304 306 304 305 306 306 307 308 310 311 312 312 312 312 316 320 324 325 326 329 330 331 333 333 332 330 327 325 326 326 326 327 330 330 331 332 332 333 333 331 333 332 331 330
303 302 306 307 305 304 305 304 306 306 307 306 306 310 311 311 311 311 313 318 324 325 326 326 326 325 326 325 323 324 327 329 329 329 328 328 328 328 330 330 330 331 333 334 333 333 333 333 330
301 301 304 306 304 305 305 304 305 305 307 309 311 313 314 314 310 312 316 320 325 324 323 321 320 320 321 323 323 321 327 331 331 331 329 328 329 329 328 328 327 329 330 332 333 333 333 332 331
300 302 303 305 307 306 306 305 307 309 311 310 312 312 311 312 314 311 318 325 324 324 322 320 321 326 326 325 327 326 327 326 325 325 329 333 331 330 330 329 329 331 331 331 332 332 333 332 332
300 303 301 303 304 304 304 305 306 307 308 310 312 310 309 312 314 311 314 323 322 318 316 315 315 317 322 322 319 319 320 317 316 322 325 328 331 331 330 330 329 331 330 330 331 332 333 332 331
300 300 302 302 304 305 304 305 308 308 307 308 310 309 308 310 312 317 320 323 319 318 316 314 313 312 311 312 313 313 313 314 317 321 324 325 327 330 330 329 328 328 329 330 330 331 331 331 329
300 300 301 301 301 303 301 306 308 309 309 308 307 305 308 309 310 316 319 320 319 318 316 314 314 314 313 312 313 312 312 312 313 317 322 323 325 326 328 330 330 328 328 328 328 330 330 329 328
303 303 303 302 304 306 307 306 309 308 308 309 308 306 308 307 309 315 317 318 317 316 316 315 315 315 314 313 312 312 311 312 313 317 318 321 322 324 326 327 330 330 330 328 328 330 329 328 327
302 302 303 300 300 306 307 307 308 308 306 307 307 308 309 308 307 312 313 313 312 312 313 314 315 312 311 310 310 310 310 311 311 312 314 318 321 322 324 327 330 329 330 328 327 327 327 327 325

GFSSGP_850_thetae_138.txt.gz
Theta_e
315 311 313 317 310 308 312 312 314 317 318 319 319 319 320 326 328 330 332 332 331 325 322 323 324 325 329 326 327 330 332 334 335 335 334 333 332 329 329 329 330 332 333 333 334 334 335 334 332
311 311 314 316 307 308 306 311 315 316 318 317 319 322 324 327 330 332 333 333 326 321 322 322 321 321 322 321 321 324 328 332 334 335 334 333 333 329 329 329 330 332 333 333 334 334 334 332 329
310 314 318 306 306 308 308 312 313 314 316 317 319 321 326 329 332 332 332 327 322 322 321 319 317 317 318 318 318 319 323 329 332 333 334 333 333 330 329 330 331 332 333 333 333 333 332 329 327
314 320 316 313 311 309 310 313 313 313 318 318 319 317 321 328 331 332 330 324 322 321 318 317 317 317 317 317 318 318 321 325 329 331 332 332 334 330 329 331 332 332 333 333 332 331 329 327 326
315 319 313 314 312 310 310 313 315 314 315 318 319 318 320 326 332 332 330 322 321 319 317 317 317 317 317 317 317 318 320 323 325 328 329 331 334 331 330 327 326 326 331 332 330 330 329 326 326
314 314 313 314 313 311 311 315 316 317 317 318 319 318 322 326 331 332 329 322 320 318 317 317 317 317 317 317 318 318 319 322 324 326 327 331 335 332 330 325 324 326 328 330 330 330 329 327 325
310 310 313 312 312 313 315 317 317 316 316 318 319 316 320 321 332 333 328 322 319 318 317 317 317 317 317 318 318 319 320 322 324 325 327 331 335 334 330 326 325 325 325 325 328 330 330 326 323
317 310 315 311 313 314 316 317 318 318 317 319 319 316 317 322 324 332 326 321 319 318 318 317 317 318 318 318 318 319 321 323 324 325 328 331 335 334 331 328 327 327 324 324 326 329 330 325 323
318 314 314 314 315 315 317 316 317 318 318 318 318 318 318 319 324 329 325 320 318 318 318 318 318 318 318 319 319 319 321 324 325 326 328 330 333 335 333 330 329 329 327 324 324 328 329 326 324
312 310 313 312 315 315 316 315 315 315 316 316 317 318 317 319 324 332 325 321 319 318 319 319 318 318 319 320 320 320 321 323 325 326 327 329 331 333 334 333 331 330 329 324 324 329 326 326 325
310 311 311 314 315 315 313 313 313 314 312 315 315 316 317 317 322 333 325 322 321 321 321 320 319 319 319 319 320 320 322 323 324 326 327 327 329 332 333 333 332 330 331 325 325 328 324 324 325
308 308 310 310 312 311 309 312 312 312 313 315 316 316 317 317 318 322 331 327 324 321 321 321 321 321 320 320 320 320 321 322 323 324 325 327 329 331 332 333 333 332 332 327 326 327 324 325 325
308 309 308 308 308 310 311 310 311 312 314 315 316 316 317 318 318 319 321 331 331 324 322 322 321 321 321 321 321 321 321 321 321 323 324 325 327 329 331 332 332 332 332 330 325 325 324 324 323
307 306 306 307 308 309 309 309 310 313 315 315 315 316 317 317 318 318 319 320 324 329 330 329 326 324 322 322 321 321 321 321 321 322 323 324 326 328 329 331 332 332 332 332 328 325 323 323 323
308 305 304 306 308 307 310 309 309 314 314 314 314 314 315 316 317 317 318 318 318 319 320 321 330 331 331 329 329 326 323 321 321 321 322 323 324 325 328 330 331 332 332 333 331 328 324 324 324
306 304 305 306 306 308 309 308 310 311 310 310 311 312 312 314 315 316 317 316 317 317 317 318 320 328 331 332 332 332 331 325 322 321 322 322 323 324 325 327 329 331 333 332 332 331 327 326 326
302 304 304 305 306 306 308 307 308 309 308 307 309 310 311 312 312 314 315 315 315 314 314 314 315 318 324 332 333 334 335 333 327 323 322 323 325 325 325 326 327 330 332 332 332 332 330 328 327
305 304 304 304 305 305 303 305 305 307 307 307 308 310 311 311 312 312 313 313 313 314 314 315 315 317 318 330 334 336 337 337 333 327 326 326 326 326 327 327 328 329 331 332 332 333 332 330 328
304 303 303 303 303 303 302 303 304 304 305 305 308 309 310 311 311 311 312 313 312 312 313 315 315 317 318 327 335 337 337 338 337 333 334 333 333 333 332 330 328 330 330 331 332 332 333 331 329
300 303 301 302 303 303 301 304 305 303 304 307 308 309 310 311 312 312 312 312 312 312 313 314 316 318 318 321 333 337 337 336 335 336 334 330 327 325 327 330 331 333 332 332 332 332 333 332 331
299 301 301 303 302 301 301 303 303 305 306 306 308 309 308 309 309 310 310 310 311 312 313 315 317 318 317 325 335 331 338 333 333 330 331 330 330 328 329 329 331 330 333 335 334 333 330 330 329
301 300 302 304 303 303 303 304 304 303 303 305 307 311 312 312 311 311 311 311 310 312 315 316 319 319 318 329 334 326 328 331 328 330 327 330 329 329 331 332 330 330 332 333 333 331 331 330 330
301 300 300 302 303 303 301 301 303 302 309 310 309 311 311 311 312 312 312 311 311 319 321 323 322 325 326 327 329 328 327 322 328 332 330 328 329 329 330 329 331 328 328 331 332 332 333 331 330
300 299 300 303 302 304 303 303 303 308 309 309 309 311 308 309 311 312 312 312 313 327 329 331 332 332 332 332 330 328 330 329 328 324 324 327 327 328 328 328 328 329 328 330 330 330 331 332 331
299 299 299 300 305 302 301 301 304 307 307 308 309 309 308 308 309 314 314 312 319 325 326 327 327 328 325 322 321 327 324 325 328 328 329 330 330 329 328 328 329 328 328 329 328 329 329 331 332
298 300 299 300 301 300 299 300 300 306 306 308 308 307 307 309 310 312 318 312 323 324 325 324 324 325 326 323 321 323 323 321 318 316 315 321 325 328 329 330 330 328 328 328 328 328 330 331 332
299 299 300 301 300 301 300 300 301 304 304 307 308 308 306 308 309 312 318 320 321 321 319 319 320 319 319 317 315 314 314 313 315 316 316 321 324 326 329 330 329 329 329 329 328 330 329 330 331
301 300 301 300 294 299 297 300 305 305 306 307 308 307 308 308 307 311 314 316 315 314 313 312 312 312 312 312 312 312 312 312 312 313 316 319 322 323 325 327 329 328 328 328 328 329 330 330 331
301 302 302 301 301 304 304 302 306 307 307 307 307 308 309 306 305 302 303 303 305 310 311 308 309 311 312 312 311 311 310 310 311 312 313 316 318 321 322 323 326 328 329 329 328 328 328 328 329
301 301 300 299 302 303 305 303 306 306 306 306 307 306 305 302 301 301 300 302 299 300 305 306 305 306 308 308 307 307 307 307 308 309 310 312 313 317 320 322 324 326 327 328 328 329 328 328 329

GFSSGP_850_thetae_141.txt.gz
Theta_e
315 312 312 317 316 315 316 317 315 319 318 318 317 319 322 326 335 334 331 334 330 327 326 330 332 331 333 333 333 331 330 331 333 334 333 332 330 329 330 331 331 333 333 333 334 335 335 333 332
312 311 314 315 314 314 315 314 318 318 316 317 319 319 324 328 330 331 332 333 330 325 324 325 326 325 328 330 332 330 330 331 333 333 333 333 331 329 329 330 331 332 333 333 334 334 335 333 331
310 313 317 314 313 314 315 314 317 316 316 317 320 319 322 328 331 332 333 331 325 324 321 321 322 322 322 324 328 328 328 330 332 333 333 332 332 329 329 330 331 332 332 333 333 334 333 331 328
315 317 315 318 315 314 313 315 314 316 316 319 318 321 319 324 329 333 332 330 322 321 321 321 319 317 317 319 322 325 326 328 330 331 332 332 332 329 329 330 331 331 332 333 333 332 331 329 327
314 317 317 317 316 315 313 313 314 317 317 319 318 320 319 320 323 333 333 331 322 321 321 320 318 317 317 318 320 323 324 326 328 328 330 331 333 330 329 331 329 327 330 332 331 330 329 327 326
314 315 317 318 317 315 314 315 315 317 317 318 319 319 320 319 321 332 331 333 324 321 320 318 318 317 318 319 320 321 323 324 325 326 328 330 334 331 330 327 325 326 330 330 329 329 329 327 326
314 316 317 317 317 317 317 316 318 318 318 318 318 320 319 319 319 325 332 328 322 322 318 317 317 318 318 320 321 322 323 323 324 325 326 328 334 332 330 325 325 326 326 327 327 328 329 328 325
314 315 316 316 317 318 317 318 318 317 319 318 318 319 320 318 318 321 327 328 322 322 319 318 317 318 319 320 321 323 324 324 325 325 325 328 334 333 330 326 325 325 325 325 325 328 329 328 325
317 317 316 316 316 317 316 318 317 317 317 317 317 317 317 317 317 319 327 330 322 321 320 320 319 318 319 320 321 323 325 326 327 327 327 331 334 334 331 327 326 325 325 324 325 327 329 328 324
316 317 316 315 316 317 317 316 316 315 316 316 315 316 316 316 317 318 328 330 323 321 320 320 319 319 320 321 321 324 326 328 328 327 328 331 333 334 333 328 326 327 326 324 324 326 329 327 325
312 314 314 315 315 315 315 314 313 313 314 314 314 315 316 316 316 317 323 331 323 321 320 320 319 319 320 321 322 322 324 326 327 327 328 330 332 334 334 331 327 327 327 325 324 326 329 326 325
309 309 312 310 311 309 310 311 312 313 313 313 314 315 316 316 317 317 318 330 325 321 320 320 319 319 320 321 322 322 321 321 322 323 326 328 329 332 333 333 331 328 328 327 325 326 328 325 323
309 310 308 308 308 307 309 310 311 312 312 314 314 315 315 316 316 317 318 324 329 324 320 321 321 320 319 320 322 322 321 320 320 321 322 323 326 329 331 332 333 331 328 329 326 326 327 324 324
306 307 308 307 308 308 309 310 309 311 313 312 313 313 313 314 315 316 317 318 323 329 327 323 321 321 321 321 321 321 323 322 321 321 321 322 322 325 327 329 332 333 330 331 327 325 326 325 324
308 308 307 308 307 309 308 310 311 311 309 309 310 310 310 311 312 314 316 317 317 321 331 332 330 327 323 321 321 322 321 321 321 321 322 322 323 323 325 327 328 331 332 332 330 325 325 325 324
308 306 308 308 307 308 309 310 310 309 308 308 308 309 310 311 311 312 314 316 317 317 318 319 320 323 327 330 327 322 322 322 322 321 322 322 323 324 325 328 329 328 331 333 333 329 326 325 323
306 308 306 307 307 307 308 309 309 308 307 307 308 308 309 310 311 312 312 313 314 314 314 314 315 316 317 319 326 331 328 324 323 323 322 323 325 325 324 326 329 332 331 331 333 333 331 327 324
307 305 305 305 307 306 306 307 306 306 306 306 307 308 309 309 310 311 311 311 311 312 313 313 313 314 315 315 315 323 333 331 328 328 326 323 324 324 325 324 325 326 331 331 332 332 332 331 327
304 304 304 304 304 305 306 306 306 306 305 306 307 307 307 307 308 309 311 311 311 311 311 312 312 313 314 315 316 316 318 330 332 332 331 327 324 324 325 324 325 326 328 329 331 332 332 332 330
301 302 303 304 305 305 306 305 306 306 306 306 307 310 311 312 310 310 310 310 310 310 310 311 312 312 313 315 316 317 318 322 334 333 334 334 328 327 329 329 329 328 329 329 331 331 332 332 332
301 301 302 302 304 304 305 304 305 305 308 309 309 310 311 311 311 310 310 310 310 309 310 310 311 313 313 314 317 322 329 334 334 335 335 333 333 333 333 333 333 332 330 331 333 331 331 331 332
302 301 301 301 302 302 304 302 304 307 310 309 308 309 310 310 310 309 309 310 310 310 311 311 312 314 315 317 322 329 332 336 336 336 332 329 325 328 325 330 331 332 328 333 334 333 332 331 331
302 301 300 301 302 303 303 303 304 309 309 308 308 309 309 309 310 311 312 312 310 311 311 312 312 316 320 322 327 332 336 337 336 335 334 330 326 325 324 328 327 324 326 329 332 334 333 334 332
300 300 300 303 304 302 302 302 304 308 308 308 308 308 308 308 308 310 311 313 314 313 313 316 325 325 331 332 332 334 335 334 330 326 328 332 329 327 327 322 328 327 327 333 332 332 335 335 332
300 301 300 300 304 302 301 301 303 304 306 307 308 308 308 308 309 308 310 314 316 317 322 327 330 332 332 330 332 333 334 324 322 322 321 323 328 328 330 331 331 325 328 329 330 332 330 332 334
300 300 300 299 300 300 300 299 300 305 305 306 307 307 308 308 305 303 304 303 307 311 320 324 324 325 325 326 326 326 326 324 322 319 322 327 329 330 330 329 328 328 327 328 330 331 329 330 331
300 300 301 301 301 300 300 301 301 305 306 307 307 307 307 304 302 301 302 300 299 302 305 308 313 315 314 317 319 318 318 317 316 316 314 317 320 324 326 328 329 330 328 328 329 328 328 329 329
301 301 302 302 300 299 300 301 304 307 308 307 308 305 303 301 300 299 301 298 300 299 301 304 306 308 311 311 311 312 312 312 312 313 315 316 319 322 323 325 326 329 330 329 330 329 329 328 329
302 303 303 304 303 302 304 303 307 308 306 307 304 301 300 299 298 297 296 299 298 302 298 297 301 305 302 311 309 310 310 310 310 311 312 313 315 317 319 322 323 324 327 329 329 329 328 329 329
301 303 303 303 303 305 305 303 306 306 306 305 302 302 300 299 297 296 295 295 297 296 301 294 297 297 299 303 306 307 306 306 306 306 308 309 310 311 313 316 319 322 324 325 328 329 329 329 328